[[{"header":{"parameterUnit":"m.s-1","parameterCategory":1,"la1":31.0,"la2":29.5877,"lo1":-88.7671,"lo2":-86.6584,"dy":0.0162,"dx":0.0185,"nx":115,"ny":88,"refTime":"2023-02-22T06:00:00:Z","depth":0,"parameterNumber":2,"parameterNumberName":"U-component_of_WINDS"},"data":[0.0,0.0,0.0,0.0,0.0,0.0,0.0,0.0,0.0,0.0,0.0,0.0,0.0,0.0,0.0,0.0,0.0,0.0,0.0,0.0,0.0,0.0,0.0,0.0,0.0,0.0,0.0,0.0,0.0,0.0,0.0,0.0,0.0,0.0,0.0,0.0,0.0,0.0,0.0,0.0,0.0,0.0,0.0,0.0,0.0,0.0,0.0,0.0,0.0,0.0,0.0,0.0,0.0,0.0,0.0,0.0,0.0,0.0,0.0,0.0,0.0,0.0,0.0,0.0,0.0,0.0,0.0,0.0,0.0,0.0,0.0,0.0,0.0,0.0,0.0,0.0,0.0,0.0,0.0,0.0,0.0,0.0,0.0,0.0,0.0,0.0,0.0,0.0,0.0,0.0,0.0,0.0,0.0,0.0,0.0,0.0,0.0,0.0,0.0,0.0,0.0,0.0,0.0,0.0,0.0,0.0,0.0,0.0,0.0,0.0,0.0,0.0,0.0,0.0,0.0,0.0,0.0,0.0,0.0,0.0,0.0,0.0,0.0,0.0,0.0,0.0,0.0,0.0,0.0,0.0,0.0,0.0,0.0,0.0,0.0,0.0,0.0,0.0,0.0,0.0,0.0,0.0,0.0,0.0,0.0,0.0,0.0,0.0,0.0,0.0,0.0,0.0,0.0,0.0,0.0,0.0,0.0,0.0,0.0,0.0,0.0,0.0,0.0,0.0,0.0,0.0,0.0,0.0,0.0,0.0,0.0,0.0,0.0,0.0,0.0,0.0,0.0,0.0,0.0,0.0,0.0,0.0,0.0,0.0,0.0,0.0,0.0,0.0,0.0,0.0,0.0,0.0,0.0,0.0,0.0,0.0,0.0,0.0,0.0,0.0,0.0,0.0,0.0,0.0,0.0,0.0,0.0,0.0,0.0,0.0,0.0,0.0,0.0,0.0,0.0,0.0,0.0,0.0,0.0,0.0,0.0,0.0,0.0,0.0,0.0,0.0,0.0,0.0,0.0,0.0,0.0,0.0,0.0,0.0,0.0,0.0,0.0,0.0,0.0,0.0,0.0,0.0,0.0,0.0,0.0,0.0,0.0,0.0,0.0,0.0,0.0,0.0,0.0,0.0,0.0,0.0,0.0,0.0,0.0,0.0,0.0,0.0,0.0,0.0,0.0,0.0,0.0,0.0,0.0,0.0,0.0,0.0,0.0,0.0,0.0,0.0,0.0,0.0,0.0,0.0,0.0,0.0,0.0,0.0,0.0,0.0,0.0,0.0,0.0,0.0,0.0,0.0,0.0,0.0,0.0,0.0,0.0,0.0,0.0,0.0,0.0,0.0,0.0,0.0,0.0,0.0,0.0,0.0,0.0,0.0,0.0,0.0,0.0,0.0,0.0,0.0,0.0,0.0,0.0,0.0,0.0,0.0,0.0,0.0,0.0,0.0,0.0,0.0,0.0,0.0,0.0,0.0,0.0,0.0,0.0,0.0,0.0,0.0,0.0,0.0,0.0,0.0,0.0,0.0,0.0,0.0,0.0,0.0,0.0,0.0,0.0,0.0,0.0,0.0,0.0,0.0,0.0,0.0,0.0,0.0,0.0,0.0,0.0,0.0,0.0,0.0,0.0,0.0,0.0,0.0,0.0,0.0,0.0,0.0,0.0,0.0,0.0,0.0,0.0,0.0,0.0,0.0,0.0,0.0,0.0,0.0,0.0,0.0,0.0,0.0,0.0,0.0,0.0,0.0,0.0,0.0,0.0,0.0,0.0,0.0,0.0,0.0,0.0,0.0,0.0,0.0,0.0,0.0,0.0,0.0,0.0,0.0,0.0,0.0,0.0,0.0,0.0,0.0,0.0,0.0,0.0,0.0,0.0,0.0,0.0,0.0,0.0,0.0,0.0,0.0,0.0,0.0,0.0,0.0,0.0,0.0,0.0,0.0,0.0,0.0,0.0,0.0,0.0,0.0,0.0,0.0,0.0,0.0,0.0,0.0,0.0,0.0,0.0,0.0,0.0,0.0,0.0,0.0,0.0,0.0,0.0,0.0,0.0,0.0,0.0,0.0,0.0,0.0,0.0,0.0,0.0,0.0,0.0,0.0,0.0,0.0,0.0,0.0,0.0,0.0,0.0,0.0,0.0,0.0,0.0,0.0,0.0,0.0,0.0,0.0,0.0,0.0,0.0,0.0,0.0,0.0,0.0,0.0,0.0,0.0,0.0,0.0,0.0,0.0,0.0,0.0,0.0,0.0,0.0,0.0,0.0,0.0,0.0,0.0,0.0,0.0,0.0,0.0,0.0,0.0,0.0,0.0,0.0,0.0,0.0,0.0,0.0,0.0,0.0,0.0,0.0,0.0,0.0,0.0,0.0,0.0,0.0,0.0,0.0,0.0,0.0,0.0,0.0,0.0,0.0,0.0,0.0,0.0,0.0,0.0,0.0,0.0,0.0,0.0,0.0,0.0,0.0,0.0,0.0,0.0,0.0,0.0,0.0,0.0,0.0,0.0,0.0,0.0,0.0,0.0,0.0,0.0,0.0,0.0,0.0,0.0,0.0,0.0,0.0,0.0,0.0,0.0,0.0,0.0,0.0,0.0,0.0,0.0,0.0,0.0,0.0,0.0,0.0,0.0,0.0,0.0,0.0,0.0,0.0,0.0,0.0,0.0,0.0,0.0,0.0,0.0,0.0,0.0,0.0,0.0,0.0,0.0,0.0,0.0,0.0,0.0,0.0,0.0,0.0,0.0,0.0,0.0,0.0,0.0,0.0,0.0,0.0,0.0,0.0,0.0,0.0,0.0,0.0,0.0,0.0,0.0,0.0,0.0,0.0,0.0,0.0,0.0,0.0,0.0,0.0,0.0,0.0,0.0,0.0,0.0,0.0,0.0,0.0,0.0,0.0,0.0,0.0,0.0,0.0,0.0,0.0,0.0,0.0,0.0,0.0,0.0,0.0,0.0,0.0,0.0,0.0,0.0,0.0,0.0,0.0,0.0,0.0,0.0,0.0,0.0,0.0,0.0,0.0,0.0,0.0,0.0,0.0,0.0,0.0,0.0,0.0,0.0,0.0,0.0,0.0,0.0,0.0,0.0,0.0,0.0,0.0,0.0,0.0,0.0,0.0,0.0,0.0,0.0,0.0,0.0,0.0,0.0,0.0,0.0,0.0,0.0,0.0,0.0,0.0,0.0,0.0,0.0,0.0,0.0,0.0,0.0,0.0,0.0,0.0,0.0,0.0,0.0,0.0,0.0,0.0,0.0,0.0,0.0,0.0,0.0,0.0,0.0,0.0,0.0,0.0,0.0,0.0,0.0,0.0,0.0,0.0,0.0,0.0,0.0,0.0,0.0,0.0,0.0,0.0,0.0,0.0,0.0,0.0,0.0,0.0,0.0,0.0,0.0,0.0,0.0,0.0,0.0,0.0,0.0,0.0,0.0,0.0,0.0,0.0,0.0,0.0,0.0,0.0,0.0,0.0,0.0,0.0,0.0,0.0,0.0,0.0,0.0,0.0,0.0,0.0,0.0,0.0,0.0,0.0,0.0,0.0,0.0,0.0,0.0,0.0,0.0,0.0,0.0,0.0,0.0,0.0,0.0,0.0,0.0,0.0,0.0,0.0,0.0,0.0,0.0,0.0,0.0,0.0,0.0,0.0,0.0,0.0,0.0,0.0,0.0,0.0,0.0,0.0,0.0,0.0,0.0,0.0,0.0,0.0,0.0,0.0,0.0,0.0,0.0,0.0,0.0,0.0,0.0,0.0,0.0,0.0,0.0,0.0,0.0,0.0,0.0,0.0,0.0,0.0,0.0,0.0,0.0,0.0,0.0,0.0,0.0,0.0,0.0,0.0,0.0,0.0,0.0,0.0,0.0,0.0,0.0,0.0,0.0,0.0,0.0,0.0,0.0,0.0,0.0,0.0,0.0,0.0,0.0,0.0,0.0,0.0,0.0,0.0,0.0,0.0,0.0,0.0,0.0,0.0,0.0,0.0,0.0,0.0,0.0,0.0,0.0,0.0,0.0,0.0,0.0,0.0,0.0,0.0,0.0,0.0,0.0,0.0,0.0,0.0,0.0,0.0,0.0,0.0,0.0,0.0,0.0,0.0,0.0,0.0,0.0,0.0,0.0,0.0,0.0,0.0,0.0,0.0,0.0,0.0,0.0,0.0,0.0,0.0,0.0,0.0,0.0,0.0,0.0,0.0,0.0,0.0,0.0,0.0,0.0,0.0,0.0,0.0,0.0,0.0,0.0,0.0,0.0,0.0,0.0,0.0,0.0,-3.7542,0.0,0.0,0.0,0.0,0.0,0.0,0.0,0.0,0.0,0.0,0.0,0.0,0.0,0.0,0.0,0.0,0.0,0.0,0.0,0.0,0.0,0.0,0.0,0.0,0.0,0.0,0.0,0.0,0.0,0.0,0.0,0.0,0.0,0.0,0.0,0.0,0.0,0.0,0.0,0.0,0.0,0.0,0.0,0.0,0.0,0.0,0.0,0.0,0.0,0.0,0.0,0.0,0.0,0.0,0.0,0.0,0.0,0.0,0.0,0.0,0.0,0.0,0.0,0.0,0.0,0.0,0.0,0.0,0.0,0.0,0.0,0.0,0.0,0.0,0.0,0.0,0.0,0.0,0.0,0.0,0.0,0.0,0.0,0.0,0.0,0.0,0.0,0.0,0.0,0.0,0.0,0.0,0.0,0.0,0.0,0.0,0.0,0.0,0.0,0.0,0.0,0.0,0.0,0.0,0.0,0.0,0.0,0.0,0.0,0.0,-3.8866,-3.8765,-3.8618,-3.8281,-3.7667,0.0,0.0,0.0,0.0,0.0,0.0,0.0,0.0,0.0,0.0,0.0,0.0,0.0,0.0,0.0,0.0,0.0,0.0,0.0,0.0,0.0,0.0,0.0,0.0,0.0,0.0,0.0,0.0,0.0,0.0,0.0,0.0,0.0,0.0,0.0,0.0,0.0,0.0,0.0,0.0,0.0,0.0,0.0,0.0,0.0,0.0,0.0,0.0,0.0,0.0,0.0,0.0,0.0,0.0,0.0,0.0,0.0,0.0,0.0,0.0,0.0,0.0,0.0,0.0,0.0,0.0,0.0,0.0,0.0,0.0,0.0,0.0,0.0,0.0,0.0,0.0,0.0,0.0,0.0,0.0,0.0,0.0,0.0,0.0,0.0,0.0,0.0,0.0,0.0,0.0,0.0,0.0,0.0,0.0,0.0,0.0,0.0,0.0,0.0,0.0,0.0,0.0,0.0,0.0,0.0,0.0,0.0,0.0,0.0,0.0,0.0,0.0,-3.871,-3.8364,-3.7738,0.0,0.0,0.0,0.0,0.0,0.0,0.0,0.0,0.0,0.0,0.0,0.0,0.0,0.0,0.0,0.0,0.0,0.0,0.0,0.0,0.0,0.0,0.0,0.0,0.0,0.0,0.0,0.0,0.0,0.0,0.0,0.0,0.0,0.0,0.0,0.0,0.0,0.0,0.0,0.0,0.0,0.0,0.0,0.0,0.0,0.0,0.0,0.0,0.0,0.0,0.0,0.0,0.0,0.0,0.0,0.0,0.0,0.0,0.0,0.0,0.0,0.0,0.0,0.0,0.0,0.0,0.0,0.0,0.0,0.0,0.0,0.0,0.0,0.0,0.0,0.0,0.0,0.0,0.0,0.0,0.0,0.0,0.0,0.0,0.0,0.0,0.0,0.0,0.0,0.0,0.0,0.0,0.0,0.0,0.0,0.0,0.0,0.0,0.0,0.0,0.0,0.0,0.0,0.0,0.0,0.0,0.0,0.0,0.0,0.0,-3.8997,-3.8997,-3.8848,0.0,-3.7578,0.0,0.0,0.0,0.0,0.0,0.0,0.0,0.0,0.0,0.0,0.0,0.0,0.0,0.0,0.0,0.0,0.0,0.0,0.0,0.0,0.0,0.0,0.0,0.0,0.0,0.0,0.0,0.0,0.0,0.0,0.0,0.0,0.0,0.0,0.0,0.0,0.0,0.0,0.0,0.0,0.0,0.0,0.0,0.0,0.0,0.0,0.0,0.0,0.0,0.0,0.0,0.0,0.0,0.0,0.0,0.0,0.0,0.0,0.0,0.0,0.0,0.0,0.0,0.0,0.0,0.0,0.0,0.0,0.0,0.0,0.0,0.0,0.0,0.0,0.0,0.0,0.0,0.0,0.0,0.0,0.0,0.0,0.0,0.0,0.0,0.0,0.0,0.0,0.0,0.0,0.0,0.0,0.0,0.0,0.0,0.0,0.0,0.0,0.0,0.0,0.0,0.0,0.0,0.0,0.0,0.0,0.0,0.0,0.0,0.0,-3.9036,-3.8993,-3.8695,-3.8267,0.0,0.0,0.0,0.0,0.0,0.0,0.0,0.0,0.0,0.0,0.0,0.0,0.0,0.0,0.0,0.0,0.0,0.0,0.0,0.0,0.0,0.0,0.0,0.0,0.0,0.0,0.0,0.0,0.0,0.0,0.0,0.0,0.0,0.0,0.0,0.0,0.0,0.0,0.0,0.0,0.0,0.0,0.0,0.0,0.0,0.0,0.0,0.0,0.0,0.0,0.0,0.0,0.0,0.0,0.0,0.0,0.0,0.0,0.0,0.0,0.0,0.0,0.0,0.0,0.0,0.0,0.0,0.0,0.0,0.0,0.0,0.0,0.0,0.0,0.0,0.0,0.0,0.0,0.0,0.0,0.0,0.0,0.0,0.0,0.0,0.0,0.0,0.0,0.0,0.0,0.0,0.0,0.0,0.0,0.0,0.0,0.0,0.0,0.0,0.0,0.0,0.0,0.0,0.0,0.0,0.0,0.0,0.0,0.0,0.0,-3.9059,-3.9059,-3.895,-3.8634,-3.8234,-3.7792,0.0,0.0,0.0,0.0,0.0,0.0,0.0,0.0,0.0,0.0,0.0,0.0,0.0,0.0,0.0,0.0,0.0,0.0,0.0,0.0,0.0,0.0,0.0,0.0,0.0,0.0,0.0,0.0,0.0,0.0,0.0,0.0,0.0,0.0,0.0,0.0,0.0,0.0,0.0,0.0,0.0,0.0,0.0,0.0,0.0,0.0,0.0,0.0,0.0,0.0,0.0,0.0,0.0,0.0,0.0,0.0,0.0,0.0,0.0,0.0,0.0,0.0,0.0,0.0,0.0,0.0,0.0,0.0,0.0,0.0,0.0,0.0,0.0,0.0,0.0,0.0,0.0,0.0,0.0,0.0,0.0,0.0,0.0,0.0,0.0,0.0,0.0,0.0,0.0,0.0,0.0,0.0,0.0,0.0,0.0,0.0,0.0,0.0,0.0,0.0,0.0,0.0,0.0,0.0,0.0,0.0,0.0,0.0,-3.8993,-3.9059,-3.9031,-3.891,-3.8695,-3.8396,0.0,0.0,0.0,0.0,0.0,0.0,0.0,0.0,0.0,0.0,0.0,0.0,0.0,0.0,0.0,0.0,0.0,0.0,0.0,0.0,0.0,0.0,0.0,0.0,0.0,0.0,0.0,0.0,0.0,0.0,0.0,0.0,0.0,0.0,0.0,0.0,0.0,0.0,0.0,0.0,0.0,0.0,0.0,0.0,0.0,0.0,0.0,0.0,0.0,0.0,0.0,0.0,0.0,0.0,0.0,0.0,0.0,0.0,0.0,0.0,0.0,0.0,0.0,0.0,0.0,0.0,0.0,0.0,0.0,0.0,0.0,0.0,0.0,0.0,0.0,0.0,0.0,0.0,0.0,0.0,0.0,0.0,0.0,0.0,0.0,0.0,0.0,0.0,0.0,0.0,0.0,0.0,0.0,0.0,0.0,0.0,0.0,0.0,0.0,0.0,0.0,0.0,0.0,0.0,0.0,0.0,0.0,0.0,0.0,-3.9064,-3.9087,-3.905,-3.8892,-3.8747,-3.8481,0.0,0.0,0.0,0.0,0.0,0.0,0.0,0.0,0.0,0.0,0.0,0.0,0.0,0.0,0.0,0.0,0.0,0.0,0.0,0.0,0.0,0.0,0.0,0.0,0.0,0.0,0.0,0.0,0.0,0.0,0.0,0.0,0.0,0.0,0.0,0.0,0.0,0.0,0.0,0.0,0.0,0.0,0.0,0.0,0.0,0.0,0.0,0.0,0.0,0.0,0.0,0.0,0.0,0.0,0.0,0.0,0.0,0.0,0.0,0.0,0.0,0.0,0.0,0.0,0.0,0.0,0.0,0.0,0.0,0.0,0.0,0.0,0.0,0.0,0.0,0.0,0.0,0.0,0.0,0.0,0.0,0.0,0.0,0.0,0.0,0.0,0.0,0.0,0.0,0.0,0.0,0.0,0.0,0.0,0.0,0.0,0.0,0.0,0.0,0.0,0.0,0.0,0.0,0.0,0.0,0.0,0.0,0.0,0.0,-3.9101,0.0,-3.9031,-3.8892,-3.8777,-3.8528,0.0,0.0,0.0,0.0,0.0,0.0,0.0,0.0,0.0,0.0,0.0,0.0,0.0,0.0,0.0,0.0,0.0,0.0,0.0,0.0,0.0,0.0,0.0,0.0,0.0,0.0,0.0,0.0,0.0,0.0,0.0,0.0,0.0,0.0,0.0,0.0,0.0,0.0,0.0,0.0,0.0,0.0,0.0,0.0,0.0,0.0,0.0,0.0,0.0,0.0,0.0,0.0,0.0,0.0,0.0,0.0,0.0,0.0,0.0,0.0,0.0,0.0,0.0,0.0,0.0,0.0,0.0,0.0,0.0,0.0,0.0,0.0,0.0,0.0,0.0,0.0,0.0,0.0,0.0,0.0,0.0,0.0,0.0,0.0,0.0,0.0,0.0,0.0,0.0,0.0,0.0,0.0,0.0,0.0,0.0,0.0,0.0,0.0,0.0,0.0,0.0,0.0,0.0,0.0,0.0,0.0,0.0,0.0,-3.8979,-3.9101,-3.9101,-3.9031,-3.8925,-3.8837,-3.859,0.0,0.0,0.0,0.0,0.0,0.0,0.0,0.0,0.0,0.0,0.0,0.0,0.0,0.0,0.0,0.0,0.0,0.0,0.0,0.0,0.0,0.0,0.0,0.0,0.0,0.0,0.0,0.0,0.0,0.0,0.0,0.0,0.0,0.0,0.0,0.0,0.0,0.0,0.0,0.0,0.0,0.0,0.0,0.0,0.0,0.0,0.0,0.0,0.0,0.0,0.0,0.0,0.0,0.0,0.0,0.0,0.0,0.0,0.0,0.0,0.0,0.0,0.0,0.0,0.0,0.0,0.0,0.0,0.0,0.0,0.0,0.0,0.0,0.0,0.0,0.0,0.0,0.0,0.0,0.0,0.0,0.0,0.0,0.0,0.0,0.0,0.0,0.0,0.0,0.0,0.0,0.0,0.0,0.0,0.0,0.0,0.0,0.0,0.0,0.0,0.0,0.0,0.0,0.0,0.0,0.0,0.0,0.0,0.0,-3.9101,-3.9101,-3.9059,-3.8983,-3.8848,-3.8621,0.0,0.0,0.0,0.0,0.0,0.0,0.0,0.0,0.0,0.0,0.0,0.0,0.0,0.0,0.0,0.0,0.0,0.0,0.0,0.0,0.0,0.0,0.0,0.0,0.0,0.0,0.0,0.0,0.0,0.0,0.0,0.0,0.0,0.0,0.0,0.0,0.0,0.0,0.0,0.0,0.0,0.0,0.0,0.0,0.0,0.0,0.0,0.0,0.0,0.0,0.0,0.0,0.0,0.0,0.0,0.0,0.0,0.0,0.0,0.0,0.0,0.0,0.0,0.0,0.0,0.0,0.0,0.0,0.0,0.0,0.0,0.0,0.0,0.0,0.0,0.0,0.0,0.0,0.0,0.0,0.0,0.0,0.0,0.0,0.0,0.0,0.0,0.0,0.0,0.0,0.0,0.0,0.0,0.0,0.0,0.0,0.0,0.0,0.0,0.0,0.0,0.0,0.0,0.0,0.0,0.0,0.0,0.0,0.0,-3.9725,-3.9662,-3.957,-3.9456,-3.9339,-3.898,-3.8354,0.0,0.0,0.0,0.0,0.0,0.0,0.0,0.0,0.0,0.0,0.0,0.0,0.0,0.0,0.0,0.0,0.0,0.0,0.0,0.0,0.0,0.0,0.0,0.0,0.0,0.0,0.0,0.0,0.0,0.0,0.0,0.0,0.0,0.0,0.0,0.0,0.0,0.0,0.0,0.0,0.0,0.0,0.0,0.0,0.0,0.0,0.0,0.0,0.0,0.0,0.0,0.0,0.0,0.0,0.0,0.0,0.0,0.0,0.0,0.0,0.0,0.0,0.0,0.0,0.0,0.0,0.0,0.0,0.0,0.0,0.0,0.0,0.0,0.0,0.0,0.0,0.0,0.0,0.0,0.0,0.0,0.0,0.0,0.0,0.0,0.0,0.0,0.0,0.0,0.0,0.0,0.0,0.0,0.0,0.0,0.0,0.0,0.0,0.0,0.0,0.0,0.0,0.0,0.0,0.0,0.0,0.0,0.0,-4.0841,-4.0712,-4.0518,-4.0314,-4.017,-3.9587,0.0,0.0,0.0,0.0,0.0,0.0,0.0,0.0,0.0,0.0,0.0,0.0,0.0,0.0,0.0,0.0,0.0,0.0,0.0,0.0,0.0,0.0,0.0,0.0,0.0,0.0,0.0,0.0,0.0,0.0,0.0,0.0,0.0,0.0,0.0,0.0,0.0,0.0,0.0,0.0,0.0,0.0,0.0,0.0,0.0,0.0,0.0,0.0,0.0,0.0,0.0,0.0,0.0,0.0,0.0,0.0,0.0,0.0,0.0,0.0,0.0,0.0,0.0,0.0,0.0,0.0,0.0,0.0,0.0,0.0,0.0,0.0,0.0,0.0,0.0,0.0,0.0,0.0,0.0,0.0,0.0,0.0,0.0,0.0,0.0,0.0,0.0,0.0,0.0,0.0,0.0,0.0,0.0,0.0,0.0,0.0,0.0,0.0,0.0,0.0,0.0,0.0,0.0,0.0,0.0,0.0,0.0,0.0,0.0,-4.1367,-4.1967,-4.2025,-4.1528,-4.0614,-3.9878,0.0,0.0,0.0,0.0,0.0,0.0,0.0,0.0,0.0,0.0,0.0,0.0,0.0,0.0,0.0,0.0,0.0,0.0,0.0,0.0,0.0,0.0,0.0,0.0,0.0,0.0,0.0,0.0,0.0,0.0,0.0,0.0,0.0,0.0,0.0,0.0,0.0,0.0,0.0,0.0,0.0,0.0,0.0,0.0,0.0,0.0,0.0,0.0,0.0,0.0,0.0,0.0,0.0,0.0,0.0,0.0,0.0,0.0,0.0,0.0,0.0,0.0,0.0,0.0,0.0,0.0,0.0,0.0,0.0,0.0,0.0,0.0,0.0,0.0,0.0,0.0,0.0,0.0,0.0,0.0,0.0,0.0,0.0,0.0,0.0,0.0,0.0,0.0,0.0,0.0,0.0,0.0,0.0,0.0,0.0,0.0,0.0,0.0,0.0,0.0,0.0,0.0,0.0,0.0,0.0,0.0,0.0,0.0,-4.1222,-4.1768,-4.2824,-4.3237,-4.2986,-4.1456,-4.0535,0.0,0.0,0.0,0.0,0.0,0.0,0.0,0.0,0.0,0.0,0.0,0.0,0.0,0.0,0.0,0.0,0.0,0.0,0.0,0.0,0.0,0.0,0.0,0.0,0.0,0.0,0.0,0.0,0.0,0.0,0.0,0.0,0.0,0.0,0.0,0.0,0.0,0.0,0.0,0.0,0.0,0.0,0.0,0.0,0.0,0.0,0.0,0.0,0.0,0.0,0.0,0.0,0.0,0.0,0.0,0.0,0.0,0.0,0.0,0.0,0.0,0.0,0.0,0.0,0.0,0.0,0.0,0.0,0.0,0.0,0.0,0.0,0.0,0.0,0.0,0.0,0.0,0.0,0.0,0.0,0.0,0.0,0.0,0.0,0.0,0.0,0.0,0.0,0.0,0.0,0.0,0.0,0.0,0.0,0.0,0.0,0.0,0.0,0.0,0.0,0.0,0.0,0.0,0.0,0.0,0.0,0.0,0.0,-4.1772,-4.2085,-4.3338,-4.4094,-4.4194,-4.2455,-4.1417,0.0,0.0,0.0,0.0,0.0,0.0,0.0,0.0,0.0,0.0,0.0,0.0,0.0,0.0,0.0,0.0,0.0,0.0,0.0,0.0,0.0,0.0,0.0,0.0,0.0,0.0,0.0,0.0,0.0,0.0,0.0,0.0,0.0,0.0,0.0,0.0,0.0,0.0,0.0,0.0,0.0,0.0,0.0,0.0,0.0,0.0,0.0,0.0,0.0,0.0,0.0,0.0,0.0,0.0,0.0,0.0,0.0,0.0,0.0,0.0,0.0,0.0,0.0,0.0,0.0,0.0,0.0,0.0,0.0,0.0,0.0,0.0,0.0,0.0,0.0,0.0,0.0,0.0,0.0,0.0,0.0,0.0,0.0,0.0,0.0,0.0,0.0,0.0,0.0,0.0,0.0,0.0,0.0,0.0,0.0,0.0,0.0,0.0,0.0,0.0,0.0,0.0,0.0,0.0,0.0,0.0,0.0,0.0,-4.1932,-4.2604,-4.3515,-4.4005,-4.3989,-4.282,-4.2079,0.0,0.0,0.0,0.0,0.0,0.0,0.0,0.0,0.0,0.0,0.0,0.0,0.0,0.0,0.0,0.0,0.0,0.0,0.0,0.0,0.0,0.0,0.0,0.0,0.0,0.0,0.0,0.0,0.0,0.0,0.0,0.0,0.0,0.0,0.0,0.0,0.0,0.0,0.0,0.0,0.0,0.0,0.0,0.0,0.0,0.0,0.0,0.0,-3.6911,0.0,0.0,0.0,0.0,0.0,0.0,0.0,0.0,0.0,0.0,0.0,0.0,0.0,0.0,0.0,0.0,0.0,0.0,0.0,0.0,0.0,0.0,0.0,0.0,0.0,0.0,0.0,0.0,0.0,0.0,0.0,0.0,0.0,0.0,0.0,0.0,0.0,0.0,0.0,0.0,0.0,0.0,0.0,0.0,0.0,0.0,0.0,0.0,0.0,0.0,0.0,0.0,0.0,0.0,0.0,0.0,0.0,0.0,0.0,-4.237,-4.2797,-4.3596,-4.3942,-4.3832,-4.3275,-4.2835,0.0,0.0,0.0,0.0,0.0,0.0,0.0,0.0,0.0,0.0,0.0,0.0,0.0,0.0,0.0,0.0,0.0,0.0,0.0,0.0,0.0,0.0,0.0,0.0,0.0,0.0,0.0,0.0,0.0,0.0,0.0,0.0,0.0,0.0,0.0,0.0,0.0,0.0,0.0,0.0,0.0,0.0,0.0,0.0,0.0,0.0,0.0,0.0,0.0,0.0,0.0,0.0,0.0,0.0,0.0,0.0,0.0,0.0,0.0,0.0,0.0,0.0,0.0,0.0,0.0,0.0,0.0,0.0,0.0,0.0,0.0,0.0,0.0,0.0,0.0,0.0,0.0,0.0,0.0,0.0,0.0,0.0,0.0,0.0,0.0,0.0,0.0,0.0,0.0,0.0,0.0,0.0,0.0,0.0,0.0,0.0,0.0,0.0,0.0,0.0,0.0,0.0,0.0,0.0,0.0,0.0,0.0,-4.2418,-4.2853,-4.3002,-4.3636,-4.3929,-4.3804,-4.3649,-4.3443,-4.3087,0.0,0.0,0.0,0.0,0.0,0.0,0.0,0.0,0.0,0.0,0.0,0.0,0.0,0.0,0.0,0.0,0.0,0.0,0.0,0.0,0.0,0.0,0.0,0.0,0.0,0.0,0.0,0.0,0.0,0.0,0.0,0.0,0.0,0.0,0.0,0.0,0.0,0.0,-3.6376,-3.6341,0.0,0.0,0.0,0.0,0.0,0.0,0.0,0.0,-3.6642,0.0,0.0,0.0,0.0,0.0,0.0,0.0,0.0,0.0,0.0,0.0,0.0,0.0,0.0,0.0,0.0,0.0,0.0,0.0,0.0,0.0,0.0,0.0,0.0,0.0,0.0,0.0,0.0,0.0,0.0,0.0,0.0,0.0,0.0,0.0,0.0,0.0,0.0,0.0,0.0,0.0,0.0,0.0,0.0,0.0,0.0,0.0,0.0,0.0,0.0,0.0,0.0,0.0,0.0,0.0,0.0,-4.2508,-4.2696,-4.3132,-4.3782,-4.3871,-4.3883,-4.3804,-4.3617,-4.3286,-4.2807,0.0,0.0,0.0,0.0,0.0,0.0,0.0,0.0,0.0,0.0,0.0,0.0,0.0,0.0,0.0,0.0,0.0,0.0,0.0,0.0,0.0,0.0,0.0,0.0,0.0,0.0,0.0,0.0,0.0,0.0,0.0,0.0,0.0,0.0,0.0,0.0,0.0,0.0,0.0,-3.6715,-3.6577,0.0,0.0,0.0,0.0,0.0,0.0,0.0,0.0,-3.7053,0.0,0.0,0.0,0.0,0.0,0.0,0.0,0.0,0.0,0.0,0.0,0.0,0.0,0.0,0.0,0.0,0.0,0.0,0.0,0.0,0.0,0.0,0.0,0.0,0.0,0.0,0.0,0.0,0.0,0.0,0.0,0.0,0.0,0.0,0.0,0.0,0.0,0.0,0.0,0.0,0.0,0.0,0.0,0.0,0.0,0.0,0.0,0.0,0.0,0.0,0.0,0.0,0.0,0.0,0.0,-4.3262,-4.332,-4.3571,-4.3923,-4.3913,-4.3851,-4.3684,-4.3478,-4.3178,0.0,0.0,0.0,0.0,0.0,0.0,0.0,0.0,0.0,0.0,0.0,0.0,0.0,0.0,0.0,0.0,0.0,0.0,0.0,0.0,0.0,0.0,0.0,0.0,0.0,0.0,0.0,0.0,0.0,0.0,0.0,0.0,0.0,0.0,0.0,0.0,0.0,0.0,0.0,0.0,-3.7715,-3.7767,-3.8525,0.0,0.0,0.0,0.0,0.0,0.0,-3.7997,-3.7285,0.0,0.0,0.0,0.0,0.0,0.0,0.0,0.0,0.0,0.0,0.0,0.0,0.0,0.0,0.0,0.0,0.0,0.0,0.0,0.0,0.0,0.0,0.0,0.0,0.0,0.0,0.0,0.0,0.0,0.0,0.0,0.0,0.0,0.0,0.0,0.0,0.0,0.0,0.0,0.0,0.0,0.0,0.0,0.0,0.0,0.0,0.0,0.0,0.0,0.0,0.0,0.0,0.0,0.0,0.0,-4.3753,-4.3703,-4.364,-4.364,-4.3442,-4.3342,-4.3341,-4.3117,-4.2905,0.0,0.0,0.0,0.0,0.0,0.0,0.0,0.0,0.0,0.0,0.0,0.0,0.0,0.0,0.0,0.0,0.0,0.0,0.0,0.0,0.0,0.0,0.0,0.0,0.0,0.0,0.0,0.0,0.0,0.0,0.0,0.0,0.0,0.0,0.0,0.0,0.0,0.0,0.0,0.0,0.0,-3.8853,-3.9577,-3.856,0.0,0.0,0.0,0.0,-3.9543,-3.8614,0.0,0.0,0.0,0.0,0.0,0.0,0.0,0.0,0.0,0.0,0.0,0.0,0.0,0.0,0.0,0.0,0.0,0.0,0.0,0.0,0.0,0.0,0.0,0.0,0.0,0.0,0.0,0.0,0.0,0.0,0.0,0.0,0.0,0.0,0.0,0.0,0.0,0.0,0.0,0.0,0.0,0.0,0.0,0.0,0.0,0.0,0.0,0.0,0.0,0.0,0.0,0.0,0.0,0.0,0.0,0.0,-4.3597,-4.3049,-4.2746,-4.2709,-4.1947,-4.1846,-4.2511,-4.2227,-4.2231,0.0,0.0,0.0,0.0,0.0,0.0,0.0,0.0,0.0,0.0,0.0,0.0,0.0,0.0,0.0,0.0,0.0,0.0,0.0,0.0,0.0,0.0,0.0,0.0,0.0,0.0,0.0,0.0,0.0,0.0,0.0,0.0,0.0,0.0,0.0,0.0,0.0,0.0,0.0,0.0,0.0,-3.8853,-3.9595,-3.8991,-3.8491,0.0,0.0,-4.0284,-3.9784,-3.9918,0.0,0.0,0.0,0.0,0.0,0.0,0.0,0.0,0.0,0.0,0.0,0.0,0.0,0.0,0.0,0.0,0.0,0.0,0.0,0.0,0.0,0.0,0.0,0.0,0.0,0.0,0.0,0.0,0.0,0.0,0.0,0.0,0.0,0.0,0.0,0.0,0.0,0.0,0.0,0.0,0.0,0.0,0.0,0.0,0.0,0.0,0.0,0.0,0.0,0.0,0.0,0.0,0.0,0.0,0.0,-4.2835,-4.2862,-4.2191,-4.1802,-4.1802,-4.1404,-4.1337,-4.1656,-4.1739,-4.1831,0.0,0.0,0.0,0.0,0.0,0.0,0.0,0.0,0.0,0.0,0.0,0.0,0.0,0.0,0.0,0.0,0.0,0.0,0.0,0.0,0.0,0.0,0.0,0.0,0.0,0.0,0.0,0.0,0.0,0.0,0.0,0.0,0.0,0.0,0.0,0.0,0.0,0.0,0.0,0.0,0.0,0.0,-3.9784,-3.9825,0.0,0.0,0.0,-4.0209,-4.0259,0.0,0.0,0.0,0.0,0.0,0.0,0.0,0.0,0.0,0.0,0.0,0.0,0.0,0.0,0.0,0.0,0.0,0.0,0.0,0.0,0.0,0.0,0.0,0.0,0.0,0.0,0.0,0.0,0.0,0.0,0.0,0.0,0.0,0.0,0.0,0.0,0.0,0.0,0.0,0.0,0.0,0.0,0.0,0.0,0.0,0.0,0.0,0.0,0.0,0.0,0.0,0.0,0.0,0.0,0.0,0.0,0.0,-4.2022,-4.1282,-4.0877,-4.0877,-4.0675,-4.0593,-4.065,-4.0889,0.0,0.0,0.0,0.0,0.0,0.0,0.0,0.0,0.0,0.0,0.0,0.0,0.0,0.0,0.0,0.0,0.0,0.0,0.0,0.0,0.0,0.0,0.0,0.0,0.0,0.0,0.0,-3.7522,0.0,0.0,0.0,0.0,0.0,0.0,0.0,0.0,0.0,0.0,0.0,0.0,0.0,0.0,-4.124,-3.9871,-4.0411,-4.0894,0.0,0.0,-4.0352,-4.0628,-4.0268,-3.9421,0.0,0.0,0.0,0.0,0.0,0.0,0.0,0.0,0.0,0.0,0.0,0.0,0.0,0.0,0.0,0.0,0.0,0.0,0.0,0.0,0.0,0.0,0.0,0.0,0.0,0.0,0.0,0.0,0.0,0.0,0.0,0.0,0.0,0.0,0.0,0.0,0.0,0.0,0.0,0.0,0.0,0.0,0.0,0.0,0.0,0.0,0.0,0.0,0.0,0.0,0.0,0.0,0.0,0.0,-4.1088,-4.1068,-4.038,-4.0008,-3.9971,-3.9255,-3.9042,-3.9402,-3.9283,-3.9651,0.0,0.0,0.0,0.0,0.0,0.0,0.0,0.0,0.0,0.0,0.0,0.0,0.0,0.0,0.0,0.0,0.0,0.0,0.0,0.0,0.0,0.0,0.0,0.0,0.0,0.0,0.0,0.0,0.0,0.0,0.0,0.0,0.0,0.0,0.0,0.0,0.0,0.0,0.0,0.0,0.0,-4.0647,-3.9819,-4.0394,-4.0894,0.0,-4.1326,-4.1435,-4.08,-4.1007,-4.0595,-3.8639,0.0,0.0,0.0,0.0,0.0,0.0,0.0,0.0,0.0,0.0,0.0,0.0,0.0,0.0,0.0,0.0,0.0,0.0,0.0,0.0,0.0,0.0,0.0,0.0,0.0,0.0,0.0,0.0,0.0,0.0,0.0,0.0,0.0,0.0,0.0,0.0,0.0,0.0,0.0,0.0,0.0,0.0,0.0,0.0,0.0,0.0,0.0,0.0,0.0,0.0,0.0,0.0,0.0,-3.9619,-4.0229,-4.0033,-3.953,-3.8844,-3.9393,-3.9223,-3.8223,-3.8916,-3.9272,0.0,0.0,0.0,0.0,0.0,0.0,0.0,0.0,0.0,0.0,0.0,0.0,0.0,0.0,0.0,0.0,0.0,0.0,0.0,0.0,0.0,0.0,0.0,0.0,0.0,0.0,0.0,0.0,-3.8395,-3.8699,-3.947,0.0,0.0,0.0,0.0,0.0,0.0,0.0,0.0,0.0,0.0,-4.0517,-3.9802,-4.0791,0.0,0.0,-4.0961,-4.095,-4.0413,-4.0417,-3.98,-3.7817,-3.7173,0.0,0.0,0.0,0.0,0.0,0.0,0.0,0.0,0.0,0.0,0.0,0.0,0.0,0.0,0.0,0.0,0.0,0.0,0.0,0.0,0.0,0.0,0.0,0.0,0.0,0.0,0.0,0.0,0.0,0.0,0.0,0.0,0.0,0.0,0.0,0.0,0.0,0.0,0.0,0.0,0.0,0.0,0.0,0.0,0.0,0.0,0.0,0.0,0.0,0.0,0.0,0.0,-3.8423,-3.9374,-3.9486,-3.9191,-3.8447,-3.9261,-3.9068,-3.7766,-3.8355,-3.8478,0.0,0.0,0.0,0.0,0.0,0.0,0.0,0.0,0.0,0.0,0.0,0.0,0.0,0.0,0.0,0.0,0.0,0.0,0.0,0.0,0.0,0.0,0.0,0.0,0.0,0.0,0.0,0.0,-3.8572,-3.8842,-3.9506,0.0,0.0,0.0,0.0,0.0,0.0,0.0,0.0,0.0,0.0,-4.0381,-3.972,-4.0676,-4.1263,-4.0668,-4.0478,-4.0245,-3.9733,-3.9471,-3.8728,-3.6995,0.0,0.0,0.0,0.0,0.0,0.0,0.0,0.0,0.0,0.0,0.0,0.0,0.0,0.0,0.0,0.0,0.0,0.0,0.0,0.0,0.0,0.0,0.0,0.0,0.0,0.0,0.0,-3.8881,0.0,0.0,-3.7392,0.0,0.0,0.0,0.0,0.0,0.0,0.0,0.0,0.0,0.0,0.0,0.0,0.0,0.0,0.0,0.0,0.0,0.0,0.0,0.0,0.0,0.0,-3.7556,-3.8435,-3.8669,-3.8885,-3.91,-3.8502,-3.8151,-3.8028,-3.7374,-3.7158,-3.7521,0.0,0.0,0.0,0.0,0.0,0.0,0.0,0.0,0.0,0.0,0.0,0.0,0.0,0.0,0.0,0.0,0.0,0.0,0.0,0.0,0.0,0.0,0.0,0.0,0.0,0.0,-3.8864,-3.9142,-3.9265,0.0,0.0,0.0,0.0,0.0,0.0,0.0,0.0,0.0,0.0,-3.9515,-4.0236,-3.9494,-3.9944,-4.0339,-4.0288,-3.9986,-3.9461,-3.8748,-3.8299,-3.7627,0.0,0.0,0.0,0.0,0.0,0.0,0.0,0.0,0.0,0.0,0.0,0.0,0.0,0.0,0.0,0.0,0.0,0.0,0.0,0.0,0.0,0.0,0.0,0.0,0.0,0.0,0.0,-3.8933,-3.9456,0.0,0.0,0.0,0.0,0.0,0.0,0.0,0.0,0.0,0.0,0.0,-3.7512,-3.7512,0.0,0.0,0.0,0.0,0.0,0.0,0.0,0.0,0.0,0.0,0.0,0.0,-3.6912,-3.8285,-3.8829,-3.877,-3.8098,-3.8607,-3.8254,-3.695,-3.7155,-3.7326,-3.7364,0.0,0.0,0.0,0.0,0.0,0.0,0.0,0.0,0.0,0.0,0.0,0.0,0.0,0.0,0.0,0.0,0.0,0.0,0.0,0.0,0.0,0.0,0.0,0.0,0.0,-3.7677,0.0,0.0,0.0,0.0,0.0,0.0,0.0,0.0,0.0,0.0,0.0,-3.8589,-3.8694,-3.8891,-3.9169,-3.948,-3.9707,-3.9756,0.0,0.0,0.0,0.0,0.0,0.0,0.0,0.0,0.0,0.0,0.0,0.0,0.0,0.0,-3.2869,-3.2924,-3.3144,-3.311,-3.2419,0.0,0.0,0.0,0.0,0.0,0.0,0.0,0.0,0.0,0.0,0.0,0.0,0.0,0.0,-4.016,-4.0654,-3.9504,0.0,0.0,0.0,0.0,0.0,0.0,0.0,0.0,-3.7633,-3.7754,-3.7512,-3.7512,-3.7219,0.0,-3.7271,-3.8035,0.0,0.0,0.0,0.0,0.0,0.0,0.0,0.0,-3.6616,-3.7982,-3.8453,-3.8349,-3.7764,-3.8219,-3.7909,-3.6753,-3.6939,-3.7055,-3.6947,-3.6461,-3.5608,0.0,0.0,0.0,0.0,0.0,0.0,0.0,0.0,0.0,0.0,0.0,0.0,0.0,0.0,0.0,0.0,0.0,0.0,0.0,0.0,0.0,0.0,0.0,-3.7735,0.0,0.0,0.0,0.0,0.0,0.0,0.0,0.0,0.0,-3.6994,-3.757,-3.8041,-3.8357,-3.8371,-3.859,-3.9229,0.0,0.0,0.0,0.0,0.0,0.0,0.0,-3.7185,-3.6038,-3.6019,-3.5915,-3.5229,-3.4539,-3.3879,-3.3317,0.0,0.0,-3.281,-3.2972,-3.2899,-3.224,-3.1836,-3.1453,-3.0847,-3.0658,-3.0624,0.0,0.0,0.0,0.0,0.0,0.0,0.0,0.0,-4.1486,-4.2031,0.0,-4.1407,0.0,0.0,0.0,0.0,-3.652,-3.6364,0.0,0.0,-3.7853,-3.8163,-3.753,-3.7512,-3.7495,-3.7478,-3.7443,-3.7461,-3.7478,-3.753,0.0,0.0,0.0,0.0,0.0,0.0,-3.663,-3.747,-3.7505,-3.7675,-3.7991,-3.7301,-3.7082,-3.7392,-3.6697,-3.6318,-3.6301,-3.6229,-3.553,-3.4158,-3.3155,0.0,0.0,0.0,0.0,0.0,0.0,0.0,0.0,0.0,0.0,0.0,0.0,0.0,0.0,0.0,0.0,0.0,0.0,0.0,0.0,-3.8914,0.0,0.0,0.0,0.0,0.0,0.0,0.0,0.0,0.0,0.0,-3.6265,-3.6831,-3.7208,-3.7224,0.0,0.0,0.0,0.0,-3.827,-3.8258,-3.8042,-3.7572,-3.6699,-3.6379,-3.6178,-3.5952,0.0,0.0,-3.5537,-3.4272,-3.325,-3.2924,-3.2858,-3.2616,-3.2068,-3.188,-3.1617,-3.1357,-3.1126,-3.078,-3.0576,-3.0492,-3.0375,-4.2375,0.0,0.0,0.0,0.0,-4.073,-4.1517,-4.2991,-4.2341,-4.2552,-4.3158,-4.1025,0.0,0.0,0.0,0.0,0.0,0.0,-3.6696,-3.7146,-3.7633,-3.7719,-3.7512,-3.7512,-3.718,-3.6628,-3.6628,-3.6646,-3.6628,-3.665,-3.6651,-3.6568,0.0,0.0,0.0,0.0,-3.6502,-3.723,-3.7151,-3.7122,-3.7233,-3.674,-3.653,-3.6646,-3.6422,-3.6284,-3.6284,-3.598,-3.5272,-3.4158,-3.3419,0.0,0.0,0.0,0.0,0.0,0.0,0.0,0.0,0.0,0.0,0.0,0.0,0.0,0.0,0.0,0.0,0.0,0.0,0.0,-3.9068,-3.8883,-3.8288,0.0,0.0,0.0,0.0,0.0,0.0,0.0,0.0,0.0,-3.6006,-3.6991,-3.7524,0.0,0.0,-3.7738,-3.7783,-3.7695,-3.7594,-3.7389,-3.7373,0.0,-3.6091,-3.6419,-3.6531,-3.5883,-3.6043,-3.6091,-3.5513,-3.5061,-3.4366,-3.3143,-3.2813,-3.2478,-3.1746,-3.2312,-3.2645,-3.2207,-3.1891,-3.1527,-3.1013,-3.0808,-3.0808,-4.3206,-4.1502,-4.1727,-4.1924,-4.2036,-4.1906,-4.2482,-4.3506,-4.3098,-4.3221,-4.3577,-4.1741,-4.057,-3.9888,-3.74,0.0,0.0,0.0,-3.6451,-3.7111,-3.7089,-3.7089,-3.7008,-3.7029,-3.6766,-3.6301,-3.6284,-3.6284,-3.6284,-3.6284,-3.636,-3.6406,0.0,0.0,-3.6105,-3.619,-3.6478,-3.6898,-3.6739,-3.6658,-3.6658,-3.643,-3.6284,-3.6301,-3.6114,-3.6028,-3.6006,-3.5549,-3.4898,-3.4133,-3.3483,-3.2555,0.0,0.0,0.0,0.0,0.0,0.0,0.0,0.0,0.0,0.0,0.0,-3.4025,0.0,0.0,0.0,0.0,-3.8482,-3.9093,-3.9328,-3.8891,0.0,0.0,0.0,0.0,0.0,0.0,0.0,-3.5194,-3.5576,-3.5804,-3.582,-3.6711,-3.724,-3.6923,-3.7013,-3.7164,-3.724,0.0,-3.7074,-3.6892,-3.6938,-3.6782,-3.6121,-3.6445,-3.6538,-3.5722,-3.5827,-3.5679,-3.4783,-3.449,-3.3854,-3.2562,-3.2132,-3.1878,-3.0969,-3.1771,-3.239,-3.1969,-3.1736,-3.1492,-3.1061,-3.1024,-3.1024,-4.3833,-4.3164,-4.3747,-4.3522,-4.2872,-4.3596,-4.3503,-4.2965,-4.3689,-4.391,-4.3753,-4.3032,-4.172,-3.9875,-3.7129,0.0,-3.6774,-3.5941,-3.5928,-3.6523,-3.6523,-3.6461,-3.6339,-3.6339,-3.6322,-3.6301,-3.6339,-3.6322,-3.6284,-3.6284,-3.6284,-3.6284,-3.644,-3.6544,-3.6643,-3.6527,-3.6482,-3.6485,-3.6381,-3.6284,-3.6301,-3.6284,-3.6284,-3.6284,-3.5854,-3.5611,-3.5611,-3.5045,-3.4545,-3.4109,-3.3412,-3.2794,-3.2285,0.0,0.0,0.0,0.0,0.0,0.0,0.0,0.0,0.0,0.0,0.0,0.0,0.0,0.0,0.0,-3.9226,0.0,-3.9901,-3.8872,0.0,0.0,0.0,-3.5375,-3.5096,-3.5013,-3.4958,-3.4958,0.0,0.0,-3.5764,-3.6184,-3.6554,-3.6662,-3.6693,-3.677,-3.6938,-3.68,-3.6677,-3.6693,-3.6693,-3.6616,-3.6446,-3.643,-3.6133,-3.5404,-3.5302,-3.4818,-3.3692,-3.3178,-3.2396,-3.1282,-3.1146,-3.114,-3.0344,-3.0747,-3.1024,-3.1048,-3.1024,-3.1024,-3.1024,-3.1024,-3.1024,-4.4227,-4.4005,-4.4106,-4.362,-4.2816,-4.3002,-4.3336,-4.3745,-4.3931,-4.3974,-4.3857,-4.2574,-4.0721,-3.8581,-3.7853,-3.7256,-3.6791,-3.6596,-3.6554,-3.6643,-3.6661,-3.664,-3.6602,-3.6602,-3.6544,-3.6444,-3.6461,-3.6402,-3.6301,-3.6284,-3.6284,-3.6301,-3.6322,-3.6343,-3.6402,-3.6343,-3.636,-3.6343,-3.6322,-3.6284,-3.6284,-3.6284,-3.6284,-3.6284,-3.5854,-3.5611,-3.5588,-3.4738,-3.4226,-3.4101,-3.356,-3.2958,-3.2307,-3.1419,0.0,0.0,0.0,0.0,0.0,0.0,0.0,0.0,0.0,-3.2939,-3.345,0.0,-3.5439,0.0,-3.872,-3.9756,-3.9662,-3.8352,0.0,0.0,-3.5859,-3.508,-3.4838,-3.5231,-3.5468,-3.5349,-3.5921,-3.6307,-3.6307,-3.6415,-3.6507,-3.6554,-3.6554,-3.6569,-3.6631,-3.6585,-3.6554,-3.6554,-3.6523,-3.6523,-3.6414,-3.6006,-3.54,-3.4681,-3.4447,-3.4037,-3.3141,-3.287,-3.2401,-3.1437,-3.1232,-3.1169,-3.0815,-3.0895,-3.1011,-3.1024,-3.1024,-3.1024,-3.1024,-3.1024,-3.1024,-4.4368,-4.4325,-4.4244,-4.3889,-4.3401,-4.3159,-4.3319,-4.371,-4.3542,-4.3457,-4.3385,-4.2032,-4.0576,-3.915,-3.8427,-3.7825,-3.7361,-3.7046,-3.6829,-3.6728,-3.6745,-3.6705,-3.6602,-3.6623,-3.6561,-3.6423,-3.6423,-3.6364,-3.6301,-3.6284,-3.6284,-3.6284,-3.6284,-3.6284,-3.6284,-3.6284,-3.6284,-3.6284,-3.6284,-3.6284,-3.6284,-3.6284,-3.6259,-3.6152,-3.5616,-3.527,-3.5108,-3.4308,-3.3797,-3.3761,-3.345,-3.3119,-3.2766,-3.2076,-3.134,0.0,0.0,0.0,0.0,0.0,0.0,0.0,0.0,0.0,0.0,0.0,-3.5326,-3.7019,-3.8474,-3.9242,-3.9055,-3.8105,-3.7363,-3.692,-3.6225,-3.5711,-3.5548,-3.5843,-3.6014,-3.5968,-3.6261,-3.6492,-3.6492,-3.6492,-3.6492,-3.6492,-3.6492,-3.6492,-3.6492,-3.6492,-3.6398,-3.607,-3.6022,-3.5879,-3.5593,-3.519,-3.4614,-3.3856,-3.3596,-3.315,-3.2154,-3.2024,-3.1738,-3.0762,-3.0842,-3.1031,-3.0723,-3.0843,-3.0973,-3.1024,-3.1024,-3.1024,-3.1024,-3.1024,-3.1024,-4.4397,-4.4383,-4.4274,-4.4214,-4.4169,-4.3627,-4.3406,-4.337,-4.3032,-4.281,-4.2679,-4.1683,-4.0905,-4.0256,-3.8883,-3.8146,-3.7935,-3.7306,-3.6948,-3.6811,-3.6809,-3.669,-3.6544,-3.6523,-3.6444,-3.6322,-3.6322,-3.6301,-3.6284,-3.6284,-3.6284,-3.6284,-3.6284,-3.6284,-3.6284,-3.6284,-3.6284,-3.6284,-3.628,-3.6297,-3.6276,-3.6255,-3.6131,-3.591,-3.5293,-3.4802,-3.4489,-3.3848,-3.3424,-3.3309,-3.3293,-3.3293,-3.3293,-3.2671,-3.2023,0.0,-3.1246,0.0,0.0,0.0,0.0,0.0,0.0,0.0,0.0,-3.4722,-3.568,-3.7367,-3.8319,-3.8717,-3.8327,-3.7985,-3.7623,-3.7224,-3.6861,-3.6631,-3.6523,-3.6492,-3.6492,-3.6492,-3.6492,-3.6492,-3.6492,-3.6492,-3.6492,-3.6492,-3.6352,-3.6289,-3.6352,-3.632,-3.6038,-3.5367,-3.527,-3.5026,-3.4413,-3.4177,-3.3837,-3.3003,-3.2733,-3.2269,-3.1074,-3.1103,-3.0932,-3.0118,-3.0496,-3.0803,-3.0283,-3.0673,-3.0973,-3.1024,-3.1024,-3.1024,-3.1024,-3.1024,-3.1024,-4.444,-4.4416,-4.4314,-4.4259,-4.4153,-4.361,-4.3406,-4.3406,-4.3319,-4.2922,-4.232,-4.2096,-4.1061,-3.9571,-3.9196,-3.8409,-3.7198,-3.7077,-3.6987,-3.695,-3.6869,-3.6771,-3.6748,-3.6684,-3.6582,-3.6464,-3.6461,-3.6402,-3.6284,-3.6284,-3.6284,-3.6284,-3.6284,-3.6284,-3.6284,0.0,0.0,0.0,-3.6251,-3.6165,-3.6062,-3.5932,-3.5778,-3.5515,-3.5031,0.0,-3.4325,-3.3797,-3.3424,-3.3309,-3.3293,0.0,0.0,0.0,0.0,0.0,0.0,0.0,0.0,0.0,0.0,0.0,-3.3609,-3.3993,-3.4315,-3.5625,-3.6768,-3.7422,-3.785,-3.8185,-3.8266,-3.761,-3.7135,-3.703,-3.6739,-3.6523,-3.6492,-3.6492,-3.6492,-3.6492,-3.6492,-3.6492,-3.6492,-3.6492,-3.6492,-3.6429,-3.5975,-3.564,-3.5576,-3.5608,-3.5335,-3.4662,-3.448,-3.4211,-3.3526,-3.3283,-3.2981,-3.225,-3.1776,-3.1539,-3.1225,-3.1079,-3.1061,-3.0695,-3.088,-3.096,-3.083,-3.0921,-3.1024,-3.1024,-3.1024,-3.1024,-3.1024,-3.1024,-3.1024,-4.4468,-4.4444,-4.4344,-4.427,0.0,-4.3644,-4.3283,-4.3069,-4.2903,-4.248,-4.1899,-4.1917,-4.1153,-3.9866,-3.948,-3.8673,-3.7532,-3.7165,-3.6989,-3.6989,-3.6869,-3.6771,-3.6745,-3.6664,-3.6544,-3.6402,-3.6419,-3.6381,-3.6301,-3.6284,-3.6284,-3.6284,-3.6284,-3.6178,-3.5941,-3.5683,-3.5705,-3.5963,-3.5915,-3.5739,-3.5413,-3.5322,-3.5195,-3.4961,-3.4667,0.0,0.0,0.0,0.0,0.0,0.0,0.0,0.0,-3.2961,0.0,-3.2307,-3.2266,-3.2092,-3.1792,-3.2376,-3.3072,-3.3751,-3.4747,-3.5347,-3.5347,-3.647,-3.7275,-3.7475,-3.7549,-3.7608,-3.7709,-3.7224,-3.6831,-3.6831,-3.6647,-3.6492,-3.6492,-3.6492,-3.6492,-3.6492,-3.6492,-3.6492,-3.6492,-3.6492,-3.632,-3.6006,-3.564,-3.5139,-3.4514,-3.4647,-3.4581,-3.3871,-3.3437,-3.315,-3.2797,-3.2618,-3.2395,-3.1877,-3.1596,-3.1397,-3.1198,-3.1061,-3.1024,-3.1024,-3.1024,-3.1024,-3.1024,-3.1024,-3.1024,-3.1024,-3.1024,-3.1024,-3.1024,-3.1024,-3.0861,-4.4482,-4.4487,-4.434,-4.4318,-4.4255,-4.366,-4.3141,-4.2658,-4.2279,0.0,0.0,-4.1604,-4.1113,-4.0256,-3.9603,-3.8813,-3.7883,-3.7288,-3.6989,-3.6989,-3.6849,-3.6766,-3.6705,-3.6544,-3.6423,-3.6343,-3.6301,-3.6284,-3.6284,-3.6284,-3.6284,-3.6284,-3.6199,-3.5924,-3.5459,-3.5021,-3.4958,-3.5322,-3.5407,-3.5191,-3.4761,-3.4714,-3.461,-3.4399,-3.43,-3.405,-3.3668,-3.3555,-3.345,-3.3309,-3.3293,-3.3293,-3.3293,-3.3293,-3.304,-3.2544,-3.2993,-3.3056,-3.2529,-3.3087,-3.383,-3.4604,-3.5868,-3.6582,-3.6611,-3.7148,-3.751,-3.751,-3.7329,-3.7208,-3.7194,-3.6892,-3.6723,-3.6693,-3.6569,-3.6492,-3.6492,-3.6492,-3.6492,-3.6492,-3.6492,-3.6429,-3.6289,-3.6289,-3.6053,-3.5367,-3.5026,-3.4547,-3.3437,-3.3541,-3.3679,-3.3136,-3.2682,-3.2241,-3.2218,-3.2132,-3.1977,-3.1669,-3.1535,-3.1373,-3.1112,-3.1024,-3.1024,-3.1024,-3.1024,-3.1024,-3.1024,-3.1024,-3.1024,-3.1024,-3.1024,-3.1024,-3.0986,-3.0861,-3.0545,-4.4482,-4.4501,-4.4358,-4.4318,-4.4237,-4.366,-4.2977,-4.2259,-4.1856,-4.1631,-4.1604,-4.1604,-4.0814,-3.948,-3.9336,-3.8515,-3.7183,-3.706,-3.6989,-3.6987,-3.6806,-3.6745,-3.6768,-3.6468,-3.6364,-3.6482,-3.636,-3.6284,-3.6284,-3.6284,-3.6284,-3.6241,-3.5898,-3.5436,-3.4951,-3.4816,-3.4642,-3.4333,-3.4593,-3.4666,-3.4529,-3.4431,-3.4234,-3.4,-3.3975,-3.3822,-3.3555,-3.3503,-3.3424,-3.3293,-3.3293,-3.3293,-3.3293,-3.3293,-3.3261,-3.3166,-3.3261,-3.3261,-3.3166,-3.3783,-3.4731,-3.5982,-3.688,-3.7322,-3.7368,-3.7447,-3.751,-3.748,-3.73,-3.7194,-3.7178,-3.6907,-3.6693,-3.6693,-3.6569,-3.6492,-3.6492,-3.6492,-3.6492,-3.6492,-3.6492,-3.6211,-3.5737,-3.5576,-3.5287,-3.4581,-3.4007,-3.3262,-3.2682,-3.2408,-3.2444,-3.2386,-3.2277,-3.2205,-3.2182,-3.189,-3.172,-3.1622,-3.1336,-3.1136,-3.1024,-3.1024,-3.1024,-3.1024,-3.1024,-3.1024,-3.1024,-3.1024,-3.1024,-3.1024,-3.1024,-3.0986,-3.0898,-3.0343,-2.9793,-4.4482,-4.4468,-4.4401,-4.4344,-4.4222,-4.3423,-4.2619,-4.1895,-4.1675,-4.1604,-4.1552,-4.1165,-4.0375,-3.9305,-3.8845,-3.8058,-3.6989,-3.6989,-3.6989,-3.697,-3.6846,-3.6786,-3.6788,-3.6588,-3.6502,-3.6502,-3.6444,-3.6364,-3.628,-3.6049,-3.592,-3.5876,-3.5161,-3.4658,-3.4415,-3.4127,-3.3866,-3.3668,-3.4109,-3.4184,-3.3873,-3.3813,-3.371,-3.3581,-3.3565,-3.3529,-3.3372,-3.3414,-3.3346,-3.3293,-3.3293,-3.3293,-3.3293,-3.3293,-3.3293,-3.3293,-3.3293,-3.3293,-3.3293,-3.4288,-3.5331,-3.6314,-3.7069,-3.751,-3.751,-3.751,-3.751,-3.748,-3.7255,-3.7089,-3.7105,-3.6785,-3.66,-3.6585,-3.6507,-3.6492,-3.6492,-3.6492,-3.6492,-3.646,-3.6148,-3.5769,-3.5447,-3.5059,-3.4547,-3.3802,-3.3087,-3.2538,-3.2241,-3.2218,-3.2205,-3.2205,-3.2205,-3.2205,-3.2169,-3.1963,-3.1743,-3.1646,-3.136,-3.1136,-3.1061,-3.1024,-3.1024,-3.1024,-3.1024,-3.1024,-3.0986,-3.1024,-3.1024,-3.1024,-3.1024,-3.0861,-3.0394,-2.9277,-2.841,-4.4482,-4.4501,-4.4444,-4.4248,-4.3921,-4.3141,-4.236,-4.1626,-4.1604,-4.1604,-4.1499,-4.0818,-4.0042,-3.9249,-3.848,-3.769,-3.7077,-3.6989,-3.6989,-3.697,-3.6869,-3.6791,-3.6829,-3.6745,-3.6643,-3.6564,-3.6544,-3.6482,-3.6301,-3.5859,-3.5481,-3.5207,-3.4464,-3.4025,-3.3924,-3.3503,-3.3293,-3.3319,-3.3694,-3.372,-3.3319,-3.3293,-3.3309,-3.3293,-3.3309,-3.3293,-3.3293,-3.3293,-3.3293,-3.3293,-3.3293,-3.3293,-3.3293,-3.3293,-3.3293,-3.3293,-3.3293,-3.3451,-3.3814,-3.4762,-3.5758,-3.6595,-3.7164,-3.751,-3.751,-3.751,-3.751,-3.748,-3.7211,-3.6999,-3.6969,-3.6708,-3.6492,-3.6492,-3.6492,-3.6492,-3.6492,-3.6492,-3.6383,-3.6242,-3.5737,-3.5335,-3.4894,-3.4413,-3.3802,-3.3101,-3.2503,-3.2205,-3.2205,-3.2182,-3.2146,-3.2146,-3.2159,-3.2109,-3.2073,-3.1877,-3.1656,-3.1522,-3.136,-3.1161,-3.1024,-3.1024,-3.1024,-3.1024,-3.1024,-3.0861,-3.0735,-3.0659,-3.0545,-3.0343,-3.0228,-3.0024,-2.9199,-2.8211,-2.7185,-4.4482,-4.4482,-4.4444,-4.3868,-4.3068,-4.2867,-4.234,-4.1653,-4.1604,-4.1604,-4.1516,-4.0818,-4.0024,-3.9269,-3.8462,-3.7672,-3.7025,-3.6989,-3.6989,-3.697,-3.6869,-3.6851,-3.6948,-3.6786,-3.6742,-3.6731,-3.6705,-3.6602,-3.6423,-3.5907,-3.5214,-3.4341,-3.4151,-3.3848,-3.3424,-3.3335,-3.3309,-3.3293,-3.3346,-3.3346,-3.3309,-3.3293,-3.3293,-3.3293,-3.3293,-3.3293,-3.3293,-3.3293,-3.3293,-3.3293,-3.3293,-3.3293,-3.3266,-3.3293,-3.3293,-3.3266,-3.3293,-3.383,-3.5015,-3.5331,-3.5963,-3.7225,-3.7431,-3.751,-3.751,-3.751,-3.751,-3.745,-3.7181,-3.6999,-3.6969,-3.6724,-3.6492,-3.6492,-3.6492,-3.6492,-3.6492,-3.6492,-3.6258,-3.5561,-3.5432,-3.4912,-3.3837,-3.3422,-3.3066,-3.2503,-3.2314,-3.2205,-3.2182,-3.2073,-3.1963,-3.1927,-3.1927,-3.1853,-3.1706,-3.1508,-3.1384,-3.136,-3.1174,-3.1061,-3.1024,-3.1024,-3.0986,-3.0785,-3.0898,-3.0621,-3.0063,-2.9781,-2.9537,-2.9147,-2.8861,-2.8466,-2.7689,-2.7209,-2.6801,-4.4482,-4.4501,-4.4473,-4.3899,-4.3087,-4.2867,-4.234,-4.1609,-4.1604,-4.1604,-4.1446,-4.034,-3.9603,-3.9213,-3.8006,-3.7288,-3.7007,-3.6989,-3.6989,-3.6989,-3.693,-3.6948,-3.697,-3.6928,-3.6866,-3.6809,-3.6768,-3.6588,-3.6178,-3.5566,-3.4833,-3.4176,-3.4101,-3.3899,-3.3539,-3.3529,-3.3477,-3.3293,-3.3293,-3.3293,-3.3293,-3.3293,-3.3293,-3.3293,-3.3293,-3.3293,-3.3293,-3.3293,-3.3293,-3.3293,-3.3293,-3.3187,-3.2888,-3.2888,-3.2888,-3.2915,-3.316,-3.3909,-3.5284,-3.5394,-3.5995,-3.7415,-3.751,-3.751,-3.751,-3.751,-3.751,-3.748,-3.7197,-3.6999,-3.6969,-3.6724,-3.6492,-3.6492,-3.6492,-3.6492,-3.6492,-3.6492,-3.6226,-3.5512,-3.5011,-3.4413,-3.3388,-3.2854,-3.2538,-3.2241,-3.2205,-3.2205,-3.2182,-3.2146,-3.2,-3.178,-3.1706,-3.1669,-3.1609,-3.1434,-3.131,-3.1272,-3.1136,-3.1024,-3.1024,-3.1024,-3.0861,-3.0381,-3.0305,-2.9973,-2.9069,-2.8939,-2.8782,-2.8307,-2.7855,-2.7487,-2.6823,-2.6334,-2.578,-4.4482,-4.4501,-4.4473,-4.3918,-4.3087,-4.2885,-4.234,-4.1653,-4.1604,-4.1604,-4.1429,-3.9989,-3.9322,-3.9094,-3.7692,-3.6989,-3.6989,-3.6989,-3.6989,-3.6989,-3.6989,-3.6989,-3.6989,-3.6989,-3.6948,-3.6851,-3.6751,-3.6406,-3.5815,-3.5218,-3.4618,-3.4176,-3.4025,-3.3899,-3.3694,-3.3658,-3.3503,-3.3335,-3.3293,-3.3293,-3.3293,-3.3293,-3.3293,-3.3293,-3.3293,-3.3293,-3.3293,-3.3293,-3.3293,-3.3293,-3.3293,-3.3091,-3.2629,-3.2586,-3.2586,-3.2641,-3.3038,-3.3909,-3.5284,-3.5394,-3.5995,-3.7304,-3.751,-3.751,-3.751,-3.751,-3.751,-3.748,-3.7211,-3.6999,-3.6969,-3.6677,-3.6523,-3.6492,-3.6492,-3.6492,-3.6492,-3.6492,-3.6211,-3.5497,-3.478,-3.3939,-3.3101,-3.2503,-3.2205,-3.2205,-3.2205,-3.2205,-3.2182,-3.2109,-3.1904,-3.1633,-3.1535,-3.141,-3.141,-3.1299,-3.1248,-3.1198,-3.1048,-3.1024,-3.1024,-3.1024,-3.0986,-3.0583,-3.0063,-2.942,-2.8703,-2.8426,-2.7907,-2.7666,-2.7261,-2.6796,-2.6384,-2.5761,-2.5308,-4.4482,-4.4468,-4.434,-4.3857,-4.3069,-4.2903,-4.2322,-4.1604,-4.1604,-4.1604,-4.1411,-4.0003,-3.9322,-3.9217,-3.7745,-3.7007,-3.6989,-3.6989,-3.6989,-3.6989,-3.6989,-3.6989,-3.6989,-3.6989,-3.6987,-3.6888,-3.665,-3.6067,-3.5138,-3.4977,-3.4618,-3.4151,-3.3924,-3.3745,-3.3694,-3.3503,-3.3335,-3.3309,-3.3293,-3.3293,-3.3293,-3.3293,-3.3293,-3.3293,-3.3293,-3.3293,-3.3293,-3.3293,-3.3293,-3.3293,-3.3293,-3.3091,-3.2656,-3.2586,-3.2586,-3.2641,-3.3054,-3.3909,-3.5142,-3.5394,-3.5995,-3.7241,-3.751,-3.751,-3.751,-3.751,-3.751,-3.751,-3.7181,-3.6999,-3.6969,-3.6677,-3.6492,-3.6492,-3.6492,-3.6492,-3.646,-3.6383,-3.6148,-3.5367,-3.4547,-3.3644,-3.2431,-3.2205,-3.2205,-3.2205,-3.2205,-3.2182,-3.2146,-3.189,-3.1669,-3.1559,-3.1336,-3.1024,-3.1024,-3.1061,-3.1061,-3.1024,-3.1048,-3.0986,-3.1024,-3.0986,-3.0936,-3.0621,-2.9935,-2.9225,-2.8505,-2.7758,-2.701,-2.661,-2.6415,-2.6025,-2.5935,-2.592,-2.5406,-4.4482,-4.4487,-4.4358,-4.3823,-4.3105,-4.2885,-4.236,-4.1626,-4.1604,-4.1604,-4.1429,-4.0498,-3.9779,-3.9234,-3.8199,-3.7444,-3.7025,-3.6989,-3.6989,-3.6989,-3.6989,-3.6888,-3.6708,-3.6888,-3.6713,-3.635,-3.6444,-3.6067,-3.5333,-3.5024,-3.4828,-3.4643,-3.4521,-3.43,-3.4,-3.3873,-3.3658,-3.3335,-3.3293,-3.3293,-3.3293,-3.3293,-3.3293,-3.3293,-3.3293,-3.3293,-3.3293,-3.3293,-3.3293,-3.3293,-3.3293,-3.3091,-3.2656,-3.2586,-3.2586,-3.2641,-3.3038,-3.3925,-3.5142,-3.5394,-3.5995,-3.732,-3.751,-3.751,-3.751,-3.751,-3.751,-3.745,-3.7181,-3.6999,-3.6938,-3.6708,-3.6492,-3.6492,-3.6492,-3.632,-3.5911,-3.5769,-3.532,-3.4211,-3.3367,-3.2717,-3.2444,-3.2205,-3.2205,-3.2205,-3.2205,-3.2146,-3.2036,-3.1853,-3.1706,-3.1471,-3.1272,-3.1123,-3.1024,-3.1024,-3.1024,-3.1024,-3.0986,-3.0973,-3.0973,-3.0911,-3.0823,-2.9665,-2.9096,-2.8386,-2.7516,-2.6928,-2.6218,-2.6177,-2.5895,-2.5775,-2.5491,-2.5603,-2.5063,-4.4482,-4.4487,-4.4358,-4.3823,-4.3087,-4.2885,-4.234,-4.1631,-4.1604,-4.1604,-4.1446,-4.0836,-4.0042,-3.9252,-3.8459,-3.7865,-3.7358,-3.713,-3.6989,-3.6989,-3.6989,-3.6888,-3.6728,-3.6771,-3.6591,-3.6139,-3.611,-3.5827,-3.5287,-3.5001,-3.4923,-3.4899,-3.4756,-3.4472,-3.4126,-3.3924,-3.3658,-3.3346,-3.3293,-3.3293,-3.3293,-3.3293,-3.3293,-3.3293,-3.3293,-3.3293,-3.3293,-3.3293,-3.3293,-3.3293,-3.3293,-3.3091,-3.2683,-3.2586,-3.2586,-3.2641,-3.3038,-3.3925,-3.5142,-3.5394,-3.6023,-3.7352,-3.751,-3.751,-3.751,-3.751,-3.751,-3.745,-3.7211,-3.6999,-3.6938,-3.6693,-3.6492,-3.6492,-3.6492,-3.6305,-3.5816,-3.5576,-3.4747,-3.3561,-3.2925,-3.2538,-3.2241,-3.2205,-3.2205,-3.2205,-3.2205,-3.2146,-3.2036,-3.1853,-3.1743,-3.1434,-3.1286,-3.1136,-3.1024,-3.1024,-3.1024,-3.1024,-3.0986,-3.0973,-3.0772,-3.071,-3.019,-2.89,-2.7907,-2.7203,-2.661,-2.6063,-2.5895,-2.5895,-2.5895,-2.5819,-2.5581,-2.5367,-2.4927,-4.4482,-4.4468,-4.4344,-4.3807,-4.3123,-4.2847,-4.232,-4.1675,-4.1604,-4.1604,-4.1516,-4.0849,-4.0182,-3.9357,-3.8725,-3.8199,-3.8023,-3.7534,-3.72,-3.7112,-3.7095,-3.702,-3.6851,-3.6629,-3.6464,-3.6297,-3.5722,-3.5258,-3.497,-3.4923,-3.4899,-3.4828,-3.4448,-3.4201,-3.4101,-3.3684,-3.3361,-3.3293,-3.3293,-3.3293,-3.3293,-3.3293,-3.3293,-3.3293,-3.3293,-3.3293,-3.3293,-3.3293,-3.3293,-3.3293,-3.3293,-3.3065,-3.2738,-3.2641,-3.2614,-3.2711,-3.3065,-3.3972,-3.5138,-3.5363,-3.6008,-3.713,-3.7478,-3.751,-3.751,-3.751,-3.751,-3.745,-3.7241,-3.6999,-3.6938,-3.6708,-3.6523,-3.6492,-3.6492,-3.646,-3.6148,-3.5705,-3.478,-3.3471,-3.2995,-3.2868,-3.2408,-3.2205,-3.2205,-3.2205,-3.2205,-3.2169,-3.2109,-3.1853,-3.1646,-3.1522,-3.1323,-3.1136,-3.1061,-3.1024,-3.1024,-3.0986,-3.0973,-3.0898,-3.0457,-3.0266,-2.9742,-2.8624,-2.7476,-2.6723,-2.6373,-2.5895,-2.5895,-2.5895,-2.5884,-2.5843,-2.565,-2.5436,-2.518,-4.4482,-4.444,-4.4064,-4.3592,-4.3069,-4.2581,-4.2071,-4.1626,-4.1604,-4.1604,-4.1552,-4.1358,-4.0832,-4.0221,-3.9835,-3.9445,-3.8936,-3.8673,-3.8286,-3.7848,-3.7777,-3.7239,-3.6492,-3.6461,-3.6233,-3.5756,-3.5264,-3.5018,-3.4923,-3.4899,-3.4899,-3.4828,-3.4546,-3.43,-3.4101,-3.3745,-3.3503,-3.3335,-3.3293,-3.3293,-3.3293,-3.3293,-3.3293,-3.3293,-3.3293,-3.3293,-3.3293,-3.3293,-3.3293,-3.3293,-3.3293,-3.3214,-3.3107,-3.3091,-3.3091,-3.3091,-3.3214,-3.364,-3.451,-3.5126,-3.5774,-3.6643,-3.7196,-3.7478,-3.751,-3.751,-3.751,-3.748,-3.7285,-3.7089,-3.6999,-3.68,-3.6616,-3.6507,-3.6492,-3.6085,-3.5172,-3.4022,-3.3129,-3.2646,-3.2503,-3.2422,-3.2277,-3.2205,-3.2205,-3.2205,-3.2205,-3.2169,-3.2,-3.189,-3.1669,-3.1434,-3.1248,-3.1136,-3.1061,-3.1024,-3.1024,-3.1024,-3.0986,-3.0772,-3.0305,-2.9704,-2.9147,-2.8227,-2.7121,-2.6456,-2.6063,-2.5895,-2.5895,-2.5895,-2.5895,-2.5812,-2.5686,-2.5493,-2.5248,-4.4482,-4.444,-4.3936,-4.3456,-4.3051,-4.2444,-4.1984,-4.1631,-4.1604,-4.1604,-4.1604,-4.1604,-4.12,-4.0625,-4.0502,-4.0217,-3.9779,-3.9743,-3.948,-3.8971,-3.8638,-3.8004,-3.712,-3.6797,-3.6241,-3.5481,-3.5048,-3.4899,-3.4899,-3.4899,-3.4899,-3.4851,-3.4521,-3.4275,-3.4075,-3.372,-3.3466,-3.3319,-3.3293,-3.3293,-3.3293,-3.3293,-3.3293,-3.3293,-3.3293,-3.3293,-3.3293,-3.3293,-3.3293,-3.3293,-3.3293,-3.3293,-3.3293,-3.3293,-3.3293,-3.3293,-3.334,-3.3593,-3.4257,-3.4999,-3.5695,-3.6374,-3.7085,-3.7494,-3.751,-3.751,-3.751,-3.748,-3.7329,-3.715,-3.6999,-3.68,-3.6662,-3.6523,-3.6492,-3.5832,-3.4495,-3.3311,-3.2538,-3.2336,-3.2205,-3.2205,-3.2205,-3.2205,-3.2205,-3.2205,-3.2205,-3.2169,-3.2,-3.1853,-3.1633,-3.1434,-3.1235,-3.1136,-3.1024,-3.1024,-3.1024,-3.1024,-3.0986,-3.0659,-3.0216,-2.9433,-2.8715,-2.7516,-2.6373,-2.626,-2.5895,-2.5895,-2.5895,-2.5895,-2.5895,-2.5812,-2.5686,-2.5559,-2.5304,-4.4482,-4.4426,-4.3886,-4.3439,-4.3032,-4.2402,-4.192,-4.1631,-4.1604,-4.1604,-4.1604,-4.1604,-4.1253,-4.0695,-4.0678,-4.0604,-4.0555,-4.0533,-4.0537,-4.027,-3.9849,-3.9291,-3.8758,-3.7546,-3.648,-3.566,-3.5138,-3.4923,-3.4899,-3.4899,-3.4899,-3.4851,-3.4415,-3.4101,-3.4,-3.3581,-3.3319,-3.3293,-3.3293,-3.3293,-3.3293,-3.3293,-3.3293,-3.3293,-3.3293,-3.3293,-3.3293,-3.3293,-3.3293,-3.3293,-3.3293,-3.3293,-3.3293,-3.3293,-3.3293,-3.3293,-3.3293,-3.3593,-3.4209,-3.481,-3.5537,-3.6172,-3.688,-3.7478,-3.7478,-3.751,-3.751,-3.748,-3.7329,-3.7164,-3.703,-3.6862,-3.6693,-3.6523,-3.6398,-3.5705,-3.4499,-3.363,-3.2903,-3.2336,-3.2205,-3.2205,-3.2205,-3.2205,-3.2205,-3.2205,-3.2205,-3.2169,-3.2073,-3.189,-3.1683,-3.1447,-3.1235,-3.1136,-3.1024,-3.1024,-3.1024,-3.1024,-3.0986,-3.0748,-3.0177,-2.9303,-2.8359,-2.708,-2.6093,-2.5979,-2.5895,-2.5895,-2.5895,-2.5895,-2.5853,-2.577,-2.5686,-2.5559,-2.5327,-4.4482,-4.4411,-4.3607,-4.3194,-4.2978,-4.2136,-4.1701,-4.1604,-4.1604,-4.1604,-4.1604,-4.1604,-4.1499,-4.1306,-4.1288,-4.1306,-4.1271,-4.1271,-4.1306,-4.1288,-4.113,-4.0136,-3.8873,-3.7484,-3.6614,-3.6165,-3.5395,-3.4923,-3.4899,-3.4899,-3.4899,-3.4875,-3.4374,-3.4101,-3.4025,-3.3581,-3.3319,-3.3293,-3.3293,-3.3293,-3.3293,-3.3293,-3.3293,-3.3293,-3.3293,-3.3293,-3.3293,-3.3293,-3.3293,-3.3293,-3.3293,-3.3293,-3.3293,-3.3293,-3.3293,-3.3293,-3.3309,-3.3356,-3.364,-3.4225,-3.492,-3.5616,-3.6374,-3.6911,-3.7478,-3.751,-3.751,-3.748,-3.7435,-3.7329,-3.718,-3.6984,-3.68,-3.6476,-3.6148,-3.5432,-3.448,-3.3665,-3.2925,-3.2336,-3.2241,-3.2205,-3.2205,-3.2205,-3.2205,-3.2205,-3.2169,-3.2132,-3.2,-3.189,-3.1683,-3.1471,-3.1272,-3.1123,-3.1061,-3.1024,-3.1024,-3.1024,-3.0986,-3.0949,-3.0266,-2.942,-2.8359,-2.7174,-2.626,-2.5937,-2.5895,-2.5895,-2.5895,-2.5895,-2.5895,-2.5812,-2.5686,-2.5559,-2.5295,-4.4008,-4.3957,-4.3341,-4.3105,-4.2978,-4.2047,-4.1604,-4.1604,-4.1604,-4.1604,-4.1604,-4.1604,-4.1604,-4.1604,-4.1587,-4.1604,-4.1604,-4.1604,-4.1587,-4.156,-4.1373,-4.0535,-3.9249,-3.8016,-3.7222,-3.6501,-3.5761,-3.5238,-3.4949,-3.4899,-3.4899,-3.4787,-3.4374,-3.4101,-3.4075,-3.3581,-3.3293,-3.3293,-3.3293,-3.3293,-3.3293,-3.3293,-3.3293,-3.3293,-3.3293,-3.3293,-3.3293,-3.3293,-3.3293,-3.3293,-3.3293,-3.3293,-3.3293,-3.3293,-3.3293,-3.3293,-3.3293,-3.3309,-3.3419,-3.3909,-3.4446,-3.5031,-3.5805,-3.6532,-3.699,-3.7275,-3.751,-3.751,-3.751,-3.7405,-3.7194,-3.7014,-3.68,-3.6569,-3.6148,-3.5529,-3.4813,-3.3837,-3.3136,-3.2717,-3.2372,-3.2205,-3.2205,-3.2205,-3.2205,-3.2205,-3.2205,-3.2073,-3.1963,-3.1853,-3.1706,-3.1421,-3.1235,-3.1099,-3.1061,-3.1024,-3.1024,-3.1024,-3.0823,-3.0823,-3.019,-2.9381,-2.8398,-2.7325,-2.6498,-2.5895,-2.5895,-2.5895,-2.5895,-2.5895,-2.5895,-2.577,-2.5601,-2.5464,-2.5253,-4.3308,-4.3315,-4.3192,-4.3123,-4.2959,-4.2053,-4.1626,-4.1604,-4.1604,-4.1604,-4.1604,-4.1604,-4.1604,-4.1604,-4.1604,-4.1604,-4.1604,-4.1604,-4.156,-4.1408,-4.1088,-4.0469,-3.9765,-3.8924,-3.7997,-3.6975,-3.6354,-3.5652,-3.5214,-3.5015,-3.4899,-3.4763,-3.4374,-3.4126,-3.4,-3.3581,-3.3319,-3.3293,-3.3293,-3.3293,-3.3293,-3.3293,-3.3293,-3.3293,-3.3293,-3.3293,-3.3293,-3.3293,-3.3293,-3.3293,-3.3293,-3.3293,-3.3293,-3.3293,-3.3293,-3.3293,-3.3293,-3.3293,-3.3372,-3.3814,-3.4209,-3.4541,-3.5584,-3.6329,-3.655,-3.7069,-3.751,-3.751,-3.751,-3.7405,-3.7224,-3.6938,-3.6785,-3.6677,-3.6538,-3.6164,-3.5432,-3.4197,-3.3283,-3.3157,-3.2596,-3.2277,-3.2205,-3.2205,-3.2205,-3.2205,-3.2169,-3.2109,-3.1927,-3.1793,-3.1596,-3.1384,-3.1198,-3.1024,-3.1024,-3.1024,-3.1024,-3.0986,-3.0659,-3.0419,-2.9909,-2.9147,-2.8319,-2.7447,-2.6652,-2.6135,-2.5895,-2.5895,-2.5895,-2.5895,-2.5853,-2.5644,-2.538,-2.5327,-2.5158,-4.3308,-4.3296,-4.3326,-4.3248,-4.2978,-4.2216,-4.174,-4.1604,-4.1604,-4.1604,-4.1604,-4.1604,-4.1604,-4.1604,-4.1604,-4.1604,-4.1604,-4.1582,-4.1431,-4.1071,-4.0707,-4.0351,-3.9806,-3.9185,-3.863,-3.7884,-3.667,-3.5967,-3.5678,-3.5214,-3.4899,-3.4828,-3.4399,-3.4101,-3.4025,-3.3581,-3.3293,-3.3293,-3.3293,-3.3293,-3.3293,-3.3293,-3.3293,-3.3293,-3.3293,-3.3293,-3.3293,-3.3293,-3.3293,-3.3293,-3.3293,-3.3293,-3.3293,-3.3293,-3.3293,-3.3293,-3.3293,-3.3293,-3.334,-3.3482,-3.3751,-3.4273,-3.5031,-3.5837,-3.6408,-3.7022,-3.7431,-3.751,-3.751,-3.7405,-3.7254,-3.7134,-3.6952,-3.6816,-3.6662,-3.6538,-3.6101,-3.496,-3.3925,-3.3283,-3.2654,-3.2205,-3.2205,-3.2205,-3.2205,-3.2205,-3.2132,-3.2109,-3.1927,-3.1757,-3.1596,-3.1397,-3.1198,-3.1099,-3.1061,-3.0986,-3.0861,-3.0735,-3.0419,-2.9973,-2.9459,-2.8873,-2.8039,-2.7406,-2.6805,-2.6373,-2.5937,-2.5895,-2.5895,-2.5853,-2.5812,-2.5644,-2.5475,-2.5338,-2.5158,-4.2058,-4.2016,-4.259,-4.2647,-4.2339,-4.2052,-4.1784,-4.1609,-4.1604,-4.1604,-4.1604,-4.1604,-4.1604,-4.1604,-4.1604,-4.1604,-4.1604,-4.1587,-4.1386,-4.1047,-4.0748,-4.0385,-3.9927,-3.9455,-3.911,-3.8463,-3.7585,-3.6771,-3.6075,-3.5611,-3.5263,-3.4892,-3.4374,-3.4126,-3.4025,-3.3581,-3.3319,-3.3293,-3.3293,-3.3293,-3.3293,-3.3293,-3.3293,-3.3293,-3.3293,-3.3293,-3.3293,-3.3293,-3.3293,-3.3293,-3.3293,-3.3293,-3.3293,-3.3293,-3.3293,-3.3293,-3.3293,-3.3293,-3.3293,-3.3324,-3.3467,-3.3814,-3.4478,-3.5173,-3.5884,-3.6579,-3.7133,-3.7415,-3.751,-3.7435,-3.7359,-3.7224,-3.7104,-3.6983,-3.6769,-3.6662,-3.6399,-3.5514,-3.4547,-3.3802,-3.3157,-3.261,-3.2372,-3.2241,-3.2205,-3.2205,-3.2205,-3.2132,-3.1963,-3.1793,-3.1683,-3.1522,-3.1286,-3.1161,-3.1136,-3.0973,-3.0697,-3.0419,-3.0012,-2.9537,-2.8991,-2.8398,-2.7758,-2.7244,-2.6734,-2.629,-2.5895,-2.5895,-2.5895,-2.5895,-2.5822,-2.5738,-2.5612,-2.5475,-2.52,-4.0675,-4.0547,-4.1615,-4.1808,-4.1449,-4.1658,-4.1598,-4.1451,-4.1569,-4.1604,-4.1604,-4.1604,-4.1604,-4.1604,-4.1604,-4.1604,-4.1604,-4.1565,-4.1386,-4.1024,-4.096,-4.0524,-4.002,-3.9741,-3.9343,-3.8463,-3.8112,-3.7358,-3.6506,-3.6009,-3.5512,-3.4943,-3.4358,-3.4109,-3.3975,-3.3658,-3.3361,-3.3309,-3.3372,-3.3346,-3.3293,-3.3293,-3.3293,-3.3293,-3.3293,-3.3293,-3.3293,-3.3293,-3.3293,-3.3293,-3.3293,-3.3293,-3.3293,-3.3293,-3.3293,-3.3293,-3.3293,-3.3293,-3.3293,-3.3293,-3.3324,-3.3324,-3.3941,-3.4541,-3.5205,-3.5995,-3.6674,-3.7117,-3.7338,-3.751,-3.748,-3.7359,-3.7254,-3.7134,-3.6892,-3.6754,-3.6554,-3.5928,-3.5059,-3.4279,-3.3297,-3.2538,-3.235,-3.2205,-3.2205,-3.2205,-3.2205,-3.2169,-3.2,-3.189,-3.178,-3.1669,-3.1471,-3.1272,-3.1235,-3.1011,-3.0748,-3.0024,-2.9614,-2.8978,-2.8398,-2.7609,-2.7051,-2.7051,-2.6663,-2.6177,-2.5895,-2.5895,-2.5895,-2.5895,-2.5812,-2.5696,-2.5612,-2.5559,-2.5295,-4.0772,-4.0795,-4.126,-4.122,-4.0905,-4.1127,-4.102,-4.0822,-4.1253,-4.1604,-4.1569,-4.1587,-4.1534,-4.1604,-4.1604,-4.1604,-4.1604,-4.1565,-4.1386,-4.1071,-4.1001,-4.0662,-4.007,-3.9944,-3.9603,-3.908,-3.8576,-3.7798,-3.6986,-3.6307,-3.576,-3.4978,-3.4374,-3.4101,-3.405,-3.3771,-3.3503,-3.3424,-3.3477,-3.3477,-3.3372,-3.3293,-3.3293,-3.3293,-3.3293,-3.3293,-3.3293,-3.3293,-3.3293,-3.3293,-3.3293,-3.3319,-3.3372,-3.3372,-3.3372,-3.3293,-3.3293,-3.3293,-3.3293,-3.3319,-3.3293,-3.3451,-3.3899,-3.4252,-3.4774,-3.5584,-3.6235,-3.6706,-3.7133,-3.7478,-3.751,-3.7435,-3.7359,-3.721,-3.7029,-3.6862,-3.6585,-3.5849,-3.5091,-3.4346,-3.3311,-3.2408,-3.2277,-3.2205,-3.2205,-3.2205,-3.2205,-3.2205,-3.2146,-3.2,-3.189,-3.178,-3.1669,-3.1471,-3.131,-3.1048,-3.071,-2.9742,-2.9096,-2.8267,-2.7609,-2.6704,-2.6302,-2.6509,-2.6467,-2.6063,-2.5895,-2.5895,-2.5895,-2.5895,-2.577,-2.5644,-2.5601,-2.5559,-2.5253,-4.0095,-4.0021,-4.0485,-4.043,-4.0124,-4.0359,-4.0324,-4.0091,-4.0295,-4.0656,-4.092,-4.1025,-4.1253,-4.1499,-4.1604,-4.1604,-4.1604,-4.1604,-4.1363,-4.1094,-4.1157,-4.0907,-4.0212,-4.0154,-3.9944,-3.9568,-3.9032,-3.8361,-3.7665,-3.6953,-3.6158,-3.5407,-3.4603,-3.4159,-3.4109,-3.3745,-3.3658,-3.3591,-3.3581,-3.3529,-3.3477,-3.3398,-3.3293,-3.3309,-3.3319,-3.3293,-3.3293,-3.3293,-3.3293,-3.3346,-3.3565,-3.3668,-3.3771,-3.3882,-3.3815,-3.345,-3.3319,-3.3293,-3.3372,-3.3503,-3.3633,-3.3393,-3.3879,-3.4208,-3.4413,-3.4936,-3.5635,-3.6298,-3.6582,-3.7101,-3.7417,-3.7494,-3.7405,-3.724,-3.7075,-3.6923,-3.6492,-3.5561,-3.4879,-3.4298,-3.3506,-3.2739,-3.2241,-3.2205,-3.2205,-3.2205,-3.2205,-3.2205,-3.2205,-3.2146,-3.2036,-3.1927,-3.1817,-3.1522,-3.136,-3.1123,-3.0621,-2.9614,-2.8782,-2.7959,-2.7092,-2.6343,-2.6146,-2.626,-2.6063,-2.5895,-2.5895,-2.5895,-2.5895,-2.5895,-2.5853,-2.577,-2.5686,-2.5506,-2.5242,-3.9489,-3.9325,-3.9696,-3.9622,-3.9323,-3.9532,-3.9546,-3.9365,-3.937,-3.9708,-4.0204,-4.0291,-4.0569,-4.1042,-4.1288,-4.1429,-4.1569,-4.1604,-4.1408,-4.1277,-4.1386,-4.1163,-4.0587,-4.0351,-4.012,-3.9625,-3.9391,-3.8907,-3.8112,-3.7384,-3.6704,-3.5811,-3.4725,-3.4209,-3.4209,-3.3848,-3.3797,-3.3668,-3.3658,-3.3503,-3.3529,-3.3529,-3.345,-3.3503,-3.3539,-3.3652,-3.3729,-3.3729,-3.3642,-3.3694,-3.3908,-3.4184,-3.4184,-3.4545,-3.4423,-3.3771,-3.3539,-3.3461,-3.3565,-3.3771,-3.3873,-3.3623,-3.3873,-3.4092,-3.4218,-3.4487,-3.4873,-3.5887,-3.6408,-3.6643,-3.7101,-3.7399,-3.7419,-3.73,-3.7135,-3.6877,-3.6461,-3.5721,-3.4813,-3.4197,-3.3596,-3.2995,-3.2372,-3.2205,-3.2205,-3.2205,-3.2205,-3.2205,-3.2205,-3.2205,-3.2109,-3.2073,-3.189,-3.1609,-3.1373,-3.1235,-3.0533,-2.9498,-2.8743,-2.7999,-2.7092,-2.6146,-2.6104,-2.6063,-2.6021,-2.5895,-2.5895,-2.5895,-2.5895,-2.5895,-2.5895,-2.5853,-2.577,-2.5644,-2.538,-3.9577,-3.9514,-3.9175,-3.8917,-3.8747,-3.8834,-3.8728,-3.8605,-3.9004,-3.934,-3.9445,-3.9445,-3.9533,-3.9866,-4.0467,-4.099,-4.1394,-4.1604,-4.156,-4.1475,-4.152,-4.1209,-4.0538,-4.04,-4.0037,-3.9599,-3.9379,-3.8884,-3.8311,-3.7582,-3.6854,-3.6084,-3.5186,-3.4407,-3.4372,-3.3982,-3.3797,-3.3513,-3.3581,-3.3607,-3.3539,-3.3822,-3.3975,-3.4084,-3.4292,-3.4496,-3.4431,-3.4423,-3.4341,-3.4084,-3.4464,-3.4513,-3.4284,-3.4561,-3.4721,-3.4521,-3.4292,-3.3984,-3.4009,-3.4184,-3.4184,-3.4075,-3.4159,-3.4124,-3.4163,-3.425,-3.4607,-3.5379,-3.5947,-3.6377,-3.669,-3.7117,-3.7354,-3.7345,-3.7165,-3.703,-3.6708,-3.5913,-3.5011,-3.4197,-3.363,-3.2974,-3.2314,-3.2241,-3.2205,-3.2205,-3.2205,-3.2205,-3.2205,-3.2205,-3.2146,-3.2073,-3.1927,-3.1609,-3.1373,-3.1211,-3.057,-2.9498,-2.8743,-2.8079,-2.7174,-2.6343,-2.5979,-2.5937,-2.5895,-2.5895,-2.5895,-2.5895,-2.5895,-2.5895,-2.5895,-2.5895,-2.5895,-2.5728,-2.5475,-3.9608,-3.9552,-3.9092,-3.8844,-3.8698,-3.831,-3.8039,-3.7979,-3.7972,-3.8234,-3.8564,-3.8638,-3.8845,-3.9357,-4.013,-4.0643,-4.1007,-4.1376,-4.1604,-4.1604,-4.1542,-4.1277,-4.0802,-4.049,-4.0087,-3.9687,-3.9415,-3.9216,-3.8609,-3.8112,-3.7516,-3.7068,-3.5876,-3.5127,-3.4812,-3.4219,-3.3921,-3.3848,-3.3984,-3.4159,-3.4218,-3.435,-3.4513,-3.4513,-3.4714,-3.4816,-3.484,-3.4793,-3.4738,-3.461,-3.4958,-3.5184,-3.5115,-3.5368,-3.5661,-3.5616,-3.523,-3.4833,-3.461,-3.4802,-3.473,-3.4658,-3.4666,-3.473,-3.4324,-3.4172,-3.4314,-3.4742,-3.5015,-3.5537,-3.6187,-3.6674,-3.6995,-3.7126,-3.7133,-3.7044,-3.6754,-3.6023,-3.5207,-3.4432,-3.3665,-3.308,-3.2516,-3.2241,-3.2205,-3.2205,-3.2205,-3.2205,-3.2205,-3.2205,-3.2109,-3.2013,-3.183,-3.1596,-3.136,-3.1161,-3.0646,-2.9742,-2.8821,-2.8119,-2.7296,-2.6663,-2.6146,-2.5895,-2.5895,-2.5895,-2.5895,-2.5895,-2.5895,-2.5895,-2.5895,-2.5906,-2.5822,-2.5549,-2.5253,-3.9608,-3.9552,-3.9147,-3.895,-3.8818,-3.8017,-3.7649,-3.7558,-3.7217,-3.7321,-3.769,-3.7865,-3.8269,-3.8954,-3.9568,-4.001,-4.0555,-4.1078,-4.1429,-4.1534,-4.1542,-4.1346,-4.0937,-4.0604,-4.0237,-3.9884,-3.9458,-3.9276,-3.9116,-3.8742,-3.8377,-3.8153,-3.6702,-3.6014,-3.5558,-3.4813,-3.4153,-3.3771,-3.4126,-3.4358,-3.4521,-3.484,-3.4975,-3.5045,-3.5098,-3.5168,-3.5168,-3.5214,-3.5214,-3.5115,-3.5464,-3.5683,-3.5594,-3.5876,-3.6135,-3.6114,-3.5832,-3.5594,-3.5391,-3.5368,-3.5345,-3.5276,-3.5184,-3.5068,-3.4259,-3.4092,-3.4002,-3.4089,-3.4352,-3.4952,-3.5647,-3.6077,-3.6616,-3.6904,-3.7083,-3.6981,-3.6831,-3.6259,-3.5659,-3.4963,-3.4197,-3.3367,-3.2846,-3.2372,-3.2205,-3.2205,-3.2205,-3.2205,-3.2205,-3.2205,-3.2146,-3.2036,-3.189,-3.1706,-3.1485,-3.1123,-3.0608,-2.9986,-2.9069,-2.8359,-2.7649,-2.6787,-2.6021,-2.5895,-2.5895,-2.5895,-2.5895,-2.5895,-2.5895,-2.5895,-2.5906,-2.5822,-2.5686,-2.5422,-2.5115,-3.9608,-3.9577,-3.9296,-3.9059,-3.8848,-3.8163,-3.7756,-3.7558,-3.7164,-3.7042,-3.7165,-3.7165,-3.7567,-3.8111,-3.8532,-3.9252,-4.0467,-4.0555,-4.1025,-4.1429,-4.156,-4.1363,-4.1001,-4.0604,-4.0237,-3.9884,-3.9511,-3.9325,-3.9299,-3.9199,-3.8725,-3.8136,-3.7399,-3.6931,-3.6306,-3.5432,-3.451,-3.4089,-3.4149,-3.4358,-3.4658,-3.5068,-3.5526,-3.5638,-3.5902,-3.6178,-3.6156,-3.6049,-3.5881,-3.5571,-3.5902,-3.6006,-3.5876,-3.6092,-3.6262,-3.6241,-3.622,-3.6049,-3.5968,-3.5771,-3.5616,-3.5571,-3.5526,-3.5276,-3.4341,-3.4134,-3.3928,-3.3631,-3.3904,-3.4241,-3.4889,-3.5489,-3.6219,-3.6679,-3.6953,-3.7147,-3.7043,-3.6831,-3.6228,-3.5531,-3.4699,-3.3748,-3.2903,-3.2408,-3.2205,-3.2205,-3.2205,-3.2205,-3.2205,-3.2205,-3.2205,-3.2109,-3.1963,-3.1817,-3.1609,-3.1248,-3.0923,-3.0254,-2.9381,-2.8794,-2.8239,-2.7244,-2.5937,-2.5895,-2.5895,-2.5895,-2.5895,-2.5895,-2.5895,-2.5895,-2.5906,-2.5822,-2.5686,-2.5422,-2.5168,-3.9608,-3.9608,-3.9483,-3.9229,-3.8848,-3.8198,-3.7791,-3.7558,-3.7164,-3.6989,-3.6989,-3.7007,-3.7148,-3.7479,-3.8006,-3.8673,-3.9743,-4.0344,-4.0902,-4.1376,-4.156,-4.1363,-4.1001,-4.0604,-4.0212,-3.9884,-3.9511,-3.9315,-3.9315,-3.9315,-3.9385,-3.8928,-3.8225,-3.7734,-3.7036,-3.6029,-3.5101,-3.4935,-3.471,-3.4754,-3.5487,-3.5727,-3.6028,-3.6071,-3.6135,-3.6284,-3.6262,-3.6284,-3.6178,-3.6114,-3.6216,-3.6114,-3.6028,-3.6199,-3.6262,-3.6284,-3.6284,-3.6284,-3.6284,-3.6114,-3.6028,-3.6028,-3.5963,-3.5594,-3.4642,-3.4537,-3.4043,-3.3754,-3.353,-3.383,-3.4415,-3.5189,-3.5916,-3.6408,-3.6853,-3.7188,-3.7164,-3.6983,-3.6445,-3.561,-3.4813,-3.3919,-3.3115,-3.235,-3.2241,-3.2205,-3.2205,-3.2205,-3.2205,-3.2205,-3.2205,-3.2132,-3.2,-3.1927,-3.1743,-3.1508,-3.1259,-3.052,-2.9653,-2.903,-2.8386,-2.6969,-2.5937,-2.5937,-2.5895,-2.5895,-2.5895,-2.5895,-2.5895,-2.5895,-2.5853,-2.5812,-2.5644,-2.5475,-2.5211,-3.9608,-3.9608,-3.9608,-3.9367,-3.8917,-3.8293,-3.7912,-3.7632,-3.7203,-3.6989,-3.6989,-3.6989,-3.6989,-3.72,-3.776,-3.855,-3.941,-4.0151,-4.0884,-4.1341,-4.156,-4.1363,-4.1001,-4.0604,-4.0212,-3.9884,-3.9511,-3.9315,-3.9315,-3.9315,-3.9461,-3.9425,-3.9044,-3.856,-3.8107,-3.6657,-3.5782,-3.5884,-3.5619,-3.5519,-3.6283,-3.6281,-3.628,-3.6262,-3.6284,-3.6284,-3.6284,-3.6284,-3.6284,-3.6241,-3.6284,-3.6284,-3.6284,-3.6284,-3.6284,-3.6284,-3.6284,-3.6284,-3.6284,-3.6284,-3.6301,-3.6237,-3.6241,-3.5815,-3.5299,-3.4904,-3.435,-3.372,-3.3482,-3.3514,-3.4099,-3.4841,-3.5505,-3.6042,-3.7006,-3.7405,-3.721,-3.7013,-3.6352,-3.5657,-3.4795,-3.3885,-3.336,-3.2624,-3.2241,-3.2205,-3.2205,-3.2205,-3.2205,-3.2205,-3.2205,-3.2132,-3.2036,-3.1963,-3.1853,-3.1619,-3.1384,-3.0998,-3.0126,-2.9135,-2.8227,-2.6887,-2.6021,-2.5895,-2.5895,-2.5895,-2.5895,-2.5895,-2.5895,-2.5895,-2.5853,-2.5853,-2.5686,-2.5475,-2.5253,-3.9608,-3.9608,-3.9608,-3.9445,-3.9124,-3.8527,-3.8112,-3.779,-3.7243,-3.6989,-3.6989,-3.6989,-3.6989,-3.7145,-3.7777,-3.855,-3.934,-4.0133,-4.0906,-4.1446,-4.1498,-4.1318,-4.096,-4.058,-4.0154,-3.9858,-3.9537,-3.9315,-3.9315,-3.9352,-3.9573,-3.9729,-3.9475,-3.9215,-3.9569,-3.8083,-3.7069,-3.6704,-3.6199,-3.6353,-3.6559,-3.6547,-3.6487,-3.6284,-3.6284,-3.6284,-3.6284,-3.6284,-3.6284,-3.6284,-3.6284,-3.6284,-3.6284,-3.6284,-3.6284,-3.6284,-3.6284,-3.6284,-3.6284,-3.6284,-3.6284,-3.6284,-3.6284,-3.6006,-3.5571,-3.5121,-3.4617,-3.3984,-3.3658,-3.3388,-3.3857,-3.4525,-3.5173,-3.5837,-3.683,-3.748,-3.7285,-3.715,-3.6569,-3.5721,-3.4662,-3.3748,-3.3395,-3.2931,-3.2386,-3.2205,-3.2205,-3.2205,-3.2205,-3.2205,-3.2205,-3.2169,-3.2073,-3.2036,-3.1963,-3.1743,-3.1471,-3.1161,-3.0406,-2.9291,-2.8347,-2.7244,-2.6539,-2.6104,-2.5895,-2.5895,-2.5895,-2.5895,-2.5895,-2.5895,-2.5895,-2.5853,-2.5686,-2.5559,-2.5338,-3.9608,-3.9608,-3.9608,-3.9552,-3.9362,-3.8636,-3.8145,-3.7807,-3.7282,-3.6989,-3.6989,-3.6989,-3.6989,-3.7235,-3.7812,-3.8564,-3.9319,-4.0151,-4.0906,-4.1494,-4.1368,-4.1163,-4.086,-4.041,-4.0045,-3.9807,-3.9511,-3.9315,-3.9315,-3.9388,-3.9755,-3.9977,-3.9773,-3.9444,-3.898,-3.81,-3.76,-3.7751,-3.7442,-3.7218,-3.7227,-3.7133,-3.6835,-3.6387,-3.6353,-3.6335,-3.6301,-3.6284,-3.6284,-3.6284,-3.6284,-3.6284,-3.6284,-3.6284,-3.6284,-3.6284,-3.6284,-3.6284,-3.6284,-3.6284,-3.6284,-3.6284,-3.6262,-3.6092,-3.5638,-3.5481,-3.4927,-3.4341,-3.4025,-3.371,-3.3652,-3.4663,-3.5375,-3.5695,-3.6498,-3.7257,-3.7405,-3.7315,-3.6922,-3.5849,-3.4747,-3.361,-3.2988,-3.2789,-3.235,-3.2205,-3.2205,-3.2205,-3.2205,-3.2205,-3.2205,-3.2205,-3.2146,-3.2146,-3.205,-3.189,-3.1757,-3.1522,-3.0393,-2.9045,-2.8136,-2.7476,-2.6693,-2.6021,-2.5937,-2.5895,-2.5895,-2.5895,-2.5895,-2.5895,-2.5895,-2.5895,-2.5812,-2.5686,-2.5591,-3.9608,-3.9608,-3.9608,-3.9608,-3.9458,-3.8666,-3.8046,-3.7578,-3.7148,-3.6989,-3.6989,-3.6989,-3.6989,-3.7268,-3.8041,-3.867,-3.9406,-4.0446,-4.0994,-4.1565,-4.1363,-4.1071,-4.07,-4.0286,-3.9952,-3.9729,-3.9511,-3.9352,-3.9537,-3.9547,-3.9729,-3.9918,-3.9969,-3.9756,-3.9215,-3.8705,-3.8368,-3.8537,-3.8394,-3.8221,-3.8208,-3.8013,-3.7512,-3.6991,-3.6732,-3.6628,-3.6387,-3.6284,-3.6284,-3.6301,-3.6284,-3.6284,-3.6284,-3.6284,-3.6284,-3.6284,-3.6284,-3.6284,-3.6284,-3.6284,-3.6284,-3.6284,-3.6284,-3.6156,-3.5837,-3.5683,-3.5322,-3.4833,-3.4464,-3.4212,-3.4148,-3.5174,-3.5582,-3.5915,-3.6545,-3.7336,-3.745,-3.7345,-3.7059,-3.5944,-3.4813,-3.3679,-3.2646,-3.2444,-3.2205,-3.2205,-3.2205,-3.2205,-3.2205,-3.2205,-3.2205,-3.2205,-3.2205,-3.2182,-3.2146,-3.2086,-3.194,-3.183,-3.0709,-2.9395,-2.8454,-2.7867,-2.6887,-2.6063,-2.5979,-2.5895,-2.5895,-2.5895,-2.5895,-2.5895,-2.5895,-2.5895,-2.5895,-2.5853,-2.5717,-3.9608,-3.9608,-3.9608,-3.9589,-3.9426,-3.8651,-3.7825,-3.705,-3.7027,-3.6989,-3.6989,-3.6989,-3.6989,-3.7323,-3.8567,-3.9213,-3.9582,-4.0849,-4.1376,-4.1503,-4.1363,-4.096,-4.0587,-4.0269,-3.9825,-3.9494,-3.9325,-3.9484,-3.9798,-3.9824,-3.9781,-3.9764,-3.9919,-3.9791,-3.9473,-3.9176,-3.905,-3.9285,-3.9383,-3.9211,-3.9147,-3.887,-3.8272,-3.7771,-3.7495,-3.7111,-3.6784,-3.6508,-3.6404,-3.6335,-3.6284,-3.6284,-3.6284,-3.6284,-3.6284,-3.6284,-3.6284,-3.6284,-3.6284,-3.6284,-3.6284,-3.6284,-3.6284,-3.628,-3.6174,-3.592,-3.5594,-3.526,-3.492,-3.4947,-3.5049,-3.5514,-3.5991,-3.6444,-3.6972,-3.7322,-3.7389,-3.7225,-3.6938,-3.6071,-3.4898,-3.3802,-3.2704,-3.2314,-3.2314,-3.2205,-3.2205,-3.2205,-3.2205,-3.2205,-3.2205,-3.2205,-3.2205,-3.2205,-3.2182,-3.2146,-3.2073,-3.1927,-3.1421,-3.0266,-2.933,-2.8227,-2.7284,-2.6528,-2.6104,-2.5895,-2.5895,-2.5895,-2.5895,-2.5895,-2.5895,-2.5895,-2.5895,-2.5895,-2.5801,-3.9608,-3.9608,-3.9608,-3.9583,-3.9412,-3.8609,-3.7894,-3.7376,-3.7108,-3.6989,-3.6989,-3.6989,-3.7025,-3.7148,-3.862,-3.9182,-3.9898,-4.067,-4.1376,-4.1475,-4.1209,-4.0731,-4.0319,-3.9986,-3.9556,-3.9405,-3.9379,-3.9563,-3.9952,-4.0028,-4.0045,-3.9969,-3.9842,-3.9705,-3.9549,-3.9249,-3.9679,-4.0011,-4.0119,-4.0027,-3.9841,-3.9526,-3.8945,-3.8513,-3.8306,-3.7836,-3.7335,-3.7098,-3.687,-3.6439,-3.6318,-3.6284,-3.6284,-3.6284,-3.6284,-3.6284,-3.6284,-3.6284,-3.6284,-3.6284,-3.6284,-3.6284,-3.6284,-3.6284,-3.6241,-3.6135,-3.592,-3.5616,-3.545,-3.5437,-3.5517,-3.5867,-3.6281,-3.6705,-3.7162,-3.737,-3.745,-3.7345,-3.7029,-3.629,-3.5127,-3.4109,-3.3009,-3.2503,-3.2467,-3.2314,-3.2205,-3.2205,-3.2205,-3.2205,-3.2205,-3.2205,-3.2205,-3.2205,-3.2205,-3.2182,-3.2146,-3.1986,-3.1458,-3.0835,-2.9794,-2.8691,-2.7718,-2.6887,-2.6218,-2.5979,-2.5895,-2.5895,-2.5895,-2.5895,-2.5895,-2.5895,-2.5895,-2.5895,-2.5853,-3.9608,-3.9608,-3.9608,-3.9558,-3.9315,-3.8612,-3.803,-3.7685,-3.7206,-3.6989,-3.6989,-3.6989,-3.7165,-3.7637,-3.8743,-3.9477,-3.9937,-4.0955,-4.1604,-4.1453,-4.1053,-4.0754,-4.0302,-3.9961,-3.9747,-3.9599,-3.959,-3.9781,-4.0213,-4.0551,-4.0631,-4.0229,-3.9885,-3.9885,-3.9935,-4.0037,-4.0204,-4.0517,-4.0672,-4.056,-4.0336,-4.0112,-3.9681,-3.9198,-3.9043,-3.8612,-3.8013,-3.7789,-3.7254,-3.6732,-3.6594,-3.6284,-3.6284,-3.6284,-3.6284,-3.6284,-3.6284,-3.6284,-3.6284,-3.6284,-3.6284,-3.6284,-3.6284,-3.6284,-3.6284,-3.622,-3.6092,-3.5937,-3.5949,-3.5978,-3.6066,-3.6189,-3.6538,-3.6859,-3.7191,-3.7478,-3.751,-3.751,-3.7043,-3.6415,-3.5484,-3.4514,-3.3679,-3.3136,-3.2668,-3.2467,-3.2314,-3.2205,-3.2205,-3.2205,-3.2205,-3.2205,-3.2205,-3.2205,-3.2205,-3.2169,-3.2109,-3.1877,-3.1384,-3.0709,-2.9961,-2.8861,-2.7637,-2.6857,-2.6218,-2.6021,-2.5895,-2.5895,-2.5895,-2.5895,-2.5895,-2.5895,-2.5895,-2.5895,-2.5853,-3.9608,-3.9608,-3.9577,-3.9502,-3.9307,-3.8609,-3.8198,-3.8017,-3.7299,-3.6989,-3.6989,-3.6989,-3.7374,-3.8006,-3.8918,-3.9726,-4.0323,-4.1183,-4.1604,-4.1582,-4.1363,-4.1007,-4.0635,-4.0392,-4.0087,-3.9944,-3.9935,-4.0079,-4.0621,-4.0894,-4.0817,-4.0534,-4.0541,-4.0451,-4.036,-4.0385,-4.05,-4.0752,-4.0847,-4.0791,-4.0825,-4.0756,-4.0584,-3.9939,-3.9715,-3.9457,-3.8732,-3.8168,-3.7633,-3.7374,-3.6939,-3.6508,-3.6301,-3.6284,-3.6284,-3.6284,-3.6284,-3.6284,-3.6284,-3.6284,-3.6284,-3.6284,-3.6284,-3.6284,-3.6284,-3.6284,-3.6199,-3.6187,-3.6146,-3.6336,-3.6462,-3.6556,-3.6802,-3.7089,-3.7352,-3.751,-3.751,-3.745,-3.715,-3.6554,-3.5866,-3.4879,-3.4075,-3.3471,-3.2846,-3.2668,-3.2408,-3.2241,-3.2205,-3.2205,-3.2205,-3.2205,-3.2205,-3.2205,-3.2205,-3.2132,-3.2036,-3.173,-3.1259,-3.0684,-2.9935,-2.8755,-2.7406,-2.6775,-2.6177,-2.6021,-2.5895,-2.5895,-2.5895,-2.5895,-2.5895,-2.5895,-2.5895,-2.5895,-2.5895,-3.9608,-3.9608,-3.9546,-3.9482,-3.9307,-3.8563,-3.82,-3.8034,-3.7318,-3.6989,-3.6989,-3.706,-3.7464,-3.8251,-3.8971,-3.9761,-4.0608,-4.1253,-4.1534,-4.1498,-4.1363,-4.1163,-4.0819,-4.0563,-4.0392,-4.0319,-4.0311,-4.0427,-4.071,-4.0888,-4.0776,-4.0237,-4.0319,-4.0392,-4.041,-4.0385,-4.0549,-4.0871,-4.0894,-4.0894,-4.0894,-4.0894,-4.0739,-4.0584,-4.0498,-4.0152,-3.96,-3.925,-3.8767,-3.8353,-3.7611,-3.6973,-3.637,-3.6318,-3.6284,-3.6284,-3.6284,-3.6284,-3.6284,-3.6284,-3.6284,-3.6284,-3.6284,-3.6284,-3.6284,-3.6284,-3.6285,-3.6306,-3.6458,-3.6688,-3.6818,-3.6907,-3.7057,-3.7319,-3.751,-3.751,-3.751,-3.7345,-3.718,-3.6693,-3.6134,-3.537,-3.4547,-3.3782,-3.3185,-3.2717,-3.2372,-3.2205,-3.2205,-3.2205,-3.2205,-3.2205,-3.2205,-3.2205,-3.2205,-3.2132,-3.1986,-3.1629,-3.1172,-3.0558,-2.9909,-2.8688,-2.747,-2.6734,-2.6207,-2.6052,-2.5937,-2.5895,-2.5895,-2.5895,-2.5895,-2.5895,-2.5895,-2.5895,-2.5895,-3.9608,-3.9577,-3.9533,-3.9457,-3.9261,-3.8551,-3.8165,-3.7983,-3.7318,-3.6989,-3.6989,-3.7077,-3.7587,-3.848,-3.9129,-4.0007,-4.0832,-4.1376,-4.1569,-4.1498,-4.1386,-4.1186,-4.096,-4.0778,-4.0731,-4.0659,-4.0748,-4.0813,-4.084,-4.0864,-4.071,-4.041,-4.0368,-4.0343,-4.0385,-4.041,-4.0524,-4.0888,-4.0894,-4.0894,-4.0894,-4.0894,-4.0894,-4.0894,-4.0808,-4.0549,-4.0342,-3.9974,-3.9474,-3.8991,-3.837,-3.765,-3.7116,-3.6904,-3.6646,-3.6404,-3.6284,-3.6284,-3.6284,-3.6284,-3.6284,-3.6284,-3.6284,-3.6284,-3.6284,-3.6262,-3.6075,-3.6159,-3.6978,-3.7282,-3.6927,-3.6911,-3.7249,-3.756,-3.7553,-3.751,-3.751,-3.745,-3.7345,-3.718,-3.6538,-3.577,-3.4879,-3.3919,-3.3325,-3.2988,-3.261,-3.2205,-3.2205,-3.2205,-3.2205,-3.2205,-3.2205,-3.2205,-3.2205,-3.2096,-3.1936,-3.1505,-3.1071,-3.0063,-2.9223,-2.8435,-2.7603,-2.6857,-2.6321,-2.6135,-2.6052,-2.5937,-2.5895,-2.5895,-2.5895,-2.5895,-2.5895,-2.5895,-2.5895,-3.9608,-3.9596,-3.9539,-3.9457,-3.9275,-3.8514,-3.8165,-3.7983,-3.7318,-3.6989,-3.7042,-3.713,-3.8041,-3.8901,-3.9392,-4.0446,-4.12,-4.1499,-4.1587,-4.1604,-4.1582,-4.1386,-4.1249,-4.1094,-4.1071,-4.1047,-4.1065,-4.1012,-4.0935,-4.0935,-4.0912,-4.0894,-4.0894,-4.0871,-4.0894,-4.0871,-4.0894,-4.0912,-4.0894,-4.0894,-4.0894,-4.0894,-4.0894,-4.0894,-4.0894,-4.0894,-4.0653,-4.0377,-3.9888,-3.956,-3.9152,-3.841,-3.7771,-3.7443,-3.7025,-3.6732,-3.6353,-3.6318,-3.6284,-3.6284,-3.6284,-3.6284,-3.6284,-3.6301,-3.6318,-3.6354,-3.6182,-3.6339,-3.7168,-3.7428,-3.7098,-3.7069,-3.7432,-3.7626,-3.7553,-3.751,-3.751,-3.751,-3.748,-3.745,-3.6831,-3.6071,-3.5255,-3.4259,-3.3624,-3.3255,-3.2846,-3.248,-3.2205,-3.2205,-3.2205,-3.2205,-3.2205,-3.2205,-3.2205,-3.2096,-3.1973,-3.1468,-3.0884,-2.9678,-2.8618,-2.8047,-2.751,-2.694,-2.6487,-2.6218,-2.6063,-2.5937,-2.5895,-2.5895,-2.5895,-2.5895,-2.5895,-2.5895,-2.5895,-3.9608,-3.9589,-3.9502,-3.9457,-3.9293,-3.8548,-3.8165,-3.7965,-3.7319,-3.6989,-3.72,-3.7707,-3.8462,-3.9322,-3.9322,-4.0165,-4.1411,-4.1604,-4.1604,-4.1604,-4.1604,-4.1538,-4.1471,-4.1363,-4.1403,-4.1312,-4.1175,-4.1093,-4.0982,-4.0935,-4.0894,-4.0894,-4.0894,-4.0894,-4.0894,-4.0894,-4.0894,-4.0894,-4.0894,-4.0894,-4.0894,-4.0894,-4.0894,-4.0894,-4.0894,-4.0894,-4.0825,-4.0774,-4.0687,-4.0422,-3.9928,-3.9186,-3.8565,-3.803,-3.7616,-3.7288,-3.687,-3.6663,-3.6663,-3.6542,-3.6542,-3.6473,-3.649,-3.6473,-3.6646,-3.706,-3.679,-3.6322,-3.6871,-3.7188,-3.7059,-3.7265,-3.7553,-3.7553,-3.751,-3.751,-3.751,-3.751,-3.751,-3.7315,-3.6968,-3.6337,-3.5753,-3.4828,-3.3968,-3.3555,-3.3023,-3.2646,-3.2314,-3.2241,-3.2241,-3.2205,-3.2205,-3.2205,-3.2205,-3.2169,-3.1973,-3.1468,-3.0809,-2.9755,-2.8791,-2.7914,-2.7336,-2.7103,-2.6539,-2.6135,-2.5979,-2.5979,-2.5895,-2.5895,-2.5895,-2.5895,-2.5895,-2.5895,-2.5895]},{"header":{"parameterUnit":"m.s-1","parameterCategory":1,"la1":31.0,"la2":29.5877,"lo1":-88.7671,"lo2":-86.6584,"dy":0.0162,"dx":0.0185,"nx":115,"ny":88,"refTime":"2023-02-22T06:00:00:Z","depth":0,"parameterNumber":3,"parameterNumberName":"V-component_of_WINDS"},"data":[0.0,0.0,0.0,0.0,0.0,0.0,0.0,0.0,0.0,0.0,0.0,0.0,0.0,0.0,0.0,0.0,0.0,0.0,0.0,0.0,0.0,0.0,0.0,0.0,0.0,0.0,0.0,0.0,0.0,0.0,0.0,0.0,0.0,0.0,0.0,0.0,0.0,0.0,0.0,0.0,0.0,0.0,0.0,0.0,0.0,0.0,0.0,0.0,0.0,0.0,0.0,0.0,0.0,0.0,0.0,0.0,0.0,0.0,0.0,0.0,0.0,0.0,0.0,0.0,0.0,0.0,0.0,0.0,0.0,0.0,0.0,0.0,0.0,0.0,0.0,0.0,0.0,0.0,0.0,0.0,0.0,0.0,0.0,0.0,0.0,0.0,0.0,0.0,0.0,0.0,0.0,0.0,0.0,0.0,0.0,0.0,0.0,0.0,0.0,0.0,0.0,0.0,0.0,0.0,0.0,0.0,0.0,0.0,0.0,0.0,0.0,0.0,0.0,0.0,0.0,0.0,0.0,0.0,0.0,0.0,0.0,0.0,0.0,0.0,0.0,0.0,0.0,0.0,0.0,0.0,0.0,0.0,0.0,0.0,0.0,0.0,0.0,0.0,0.0,0.0,0.0,0.0,0.0,0.0,0.0,0.0,0.0,0.0,0.0,0.0,0.0,0.0,0.0,0.0,0.0,0.0,0.0,0.0,0.0,0.0,0.0,0.0,0.0,0.0,0.0,0.0,0.0,0.0,0.0,0.0,0.0,0.0,0.0,0.0,0.0,0.0,0.0,0.0,0.0,0.0,0.0,0.0,0.0,0.0,0.0,0.0,0.0,0.0,0.0,0.0,0.0,0.0,0.0,0.0,0.0,0.0,0.0,0.0,0.0,0.0,0.0,0.0,0.0,0.0,0.0,0.0,0.0,0.0,0.0,0.0,0.0,0.0,0.0,0.0,0.0,0.0,0.0,0.0,0.0,0.0,0.0,0.0,0.0,0.0,0.0,0.0,0.0,0.0,0.0,0.0,0.0,0.0,0.0,0.0,0.0,0.0,0.0,0.0,0.0,0.0,0.0,0.0,0.0,0.0,0.0,0.0,0.0,0.0,0.0,0.0,0.0,0.0,0.0,0.0,0.0,0.0,0.0,0.0,0.0,0.0,0.0,0.0,0.0,0.0,0.0,0.0,0.0,0.0,0.0,0.0,0.0,0.0,0.0,0.0,0.0,0.0,0.0,0.0,0.0,0.0,0.0,0.0,0.0,0.0,0.0,0.0,0.0,0.0,0.0,0.0,0.0,0.0,0.0,0.0,0.0,0.0,0.0,0.0,0.0,0.0,0.0,0.0,0.0,0.0,0.0,0.0,0.0,0.0,0.0,0.0,0.0,0.0,0.0,0.0,0.0,0.0,0.0,0.0,0.0,0.0,0.0,0.0,0.0,0.0,0.0,0.0,0.0,0.0,0.0,0.0,0.0,0.0,0.0,0.0,0.0,0.0,0.0,0.0,0.0,0.0,0.0,0.0,0.0,0.0,0.0,0.0,0.0,0.0,0.0,0.0,0.0,0.0,0.0,0.0,0.0,0.0,0.0,0.0,0.0,0.0,0.0,0.0,0.0,0.0,0.0,0.0,0.0,0.0,0.0,0.0,0.0,0.0,0.0,0.0,0.0,0.0,0.0,0.0,0.0,0.0,0.0,0.0,0.0,0.0,0.0,0.0,0.0,0.0,0.0,0.0,0.0,0.0,0.0,0.0,0.0,0.0,0.0,0.0,0.0,0.0,0.0,0.0,0.0,0.0,0.0,0.0,0.0,0.0,0.0,0.0,0.0,0.0,0.0,0.0,0.0,0.0,0.0,0.0,0.0,0.0,0.0,0.0,0.0,0.0,0.0,0.0,0.0,0.0,0.0,0.0,0.0,0.0,0.0,0.0,0.0,0.0,0.0,0.0,0.0,0.0,0.0,0.0,0.0,0.0,0.0,0.0,0.0,0.0,0.0,0.0,0.0,0.0,0.0,0.0,0.0,0.0,0.0,0.0,0.0,0.0,0.0,0.0,0.0,0.0,0.0,0.0,0.0,0.0,0.0,0.0,0.0,0.0,0.0,0.0,0.0,0.0,0.0,0.0,0.0,0.0,0.0,0.0,0.0,0.0,0.0,0.0,0.0,0.0,0.0,0.0,0.0,0.0,0.0,0.0,0.0,0.0,0.0,0.0,0.0,0.0,0.0,0.0,0.0,0.0,0.0,0.0,0.0,0.0,0.0,0.0,0.0,0.0,0.0,0.0,0.0,0.0,0.0,0.0,0.0,0.0,0.0,0.0,0.0,0.0,0.0,0.0,0.0,0.0,0.0,0.0,0.0,0.0,0.0,0.0,0.0,0.0,0.0,0.0,0.0,0.0,0.0,0.0,0.0,0.0,0.0,0.0,0.0,0.0,0.0,0.0,0.0,0.0,0.0,0.0,0.0,0.0,0.0,0.0,0.0,0.0,0.0,0.0,0.0,0.0,0.0,0.0,0.0,0.0,0.0,0.0,0.0,0.0,0.0,0.0,0.0,0.0,0.0,0.0,0.0,0.0,0.0,0.0,0.0,0.0,0.0,0.0,0.0,0.0,0.0,0.0,0.0,0.0,0.0,0.0,0.0,0.0,0.0,0.0,0.0,0.0,0.0,0.0,0.0,0.0,0.0,0.0,0.0,0.0,0.0,0.0,0.0,0.0,0.0,0.0,0.0,0.0,0.0,0.0,0.0,0.0,0.0,0.0,0.0,0.0,0.0,0.0,0.0,0.0,0.0,0.0,0.0,0.0,0.0,0.0,0.0,0.0,0.0,0.0,0.0,0.0,0.0,0.0,0.0,0.0,0.0,0.0,0.0,0.0,0.0,0.0,0.0,0.0,0.0,0.0,0.0,0.0,0.0,0.0,0.0,0.0,0.0,0.0,0.0,0.0,0.0,0.0,0.0,0.0,0.0,0.0,0.0,0.0,0.0,0.0,0.0,0.0,0.0,0.0,0.0,0.0,0.0,0.0,0.0,0.0,0.0,0.0,0.0,0.0,0.0,0.0,0.0,0.0,0.0,0.0,0.0,0.0,0.0,0.0,0.0,0.0,0.0,0.0,0.0,0.0,0.0,0.0,0.0,0.0,0.0,0.0,0.0,0.0,0.0,0.0,0.0,0.0,0.0,0.0,0.0,0.0,0.0,0.0,0.0,0.0,0.0,0.0,0.0,0.0,0.0,0.0,0.0,0.0,0.0,0.0,0.0,0.0,0.0,0.0,0.0,0.0,0.0,0.0,0.0,0.0,0.0,0.0,0.0,0.0,0.0,0.0,0.0,0.0,0.0,0.0,0.0,0.0,0.0,0.0,0.0,0.0,0.0,0.0,0.0,0.0,0.0,0.0,0.0,0.0,0.0,0.0,0.0,0.0,0.0,0.0,0.0,0.0,0.0,0.0,0.0,0.0,0.0,0.0,0.0,0.0,0.0,0.0,0.0,0.0,0.0,0.0,0.0,0.0,0.0,0.0,0.0,0.0,0.0,0.0,0.0,0.0,0.0,0.0,0.0,0.0,0.0,0.0,0.0,0.0,0.0,0.0,0.0,0.0,0.0,0.0,0.0,0.0,0.0,0.0,0.0,0.0,0.0,0.0,0.0,0.0,0.0,0.0,0.0,0.0,0.0,0.0,0.0,0.0,0.0,0.0,0.0,0.0,0.0,0.0,0.0,0.0,0.0,0.0,0.0,0.0,0.0,0.0,0.0,0.0,0.0,0.0,0.0,0.0,0.0,0.0,0.0,0.0,0.0,0.0,0.0,0.0,0.0,0.0,0.0,0.0,0.0,0.0,0.0,0.0,0.0,0.0,0.0,0.0,0.0,0.0,0.0,0.0,0.0,0.0,0.0,0.0,0.0,0.0,0.0,0.0,0.0,0.0,0.0,0.0,0.0,0.0,0.0,0.0,0.0,0.0,0.0,0.0,0.0,0.0,0.0,0.0,0.0,0.0,0.0,0.0,0.0,0.0,0.0,0.0,0.0,0.0,0.0,0.0,0.0,0.0,0.0,0.0,0.0,0.0,0.0,0.0,0.0,0.0,0.0,0.0,0.0,0.0,0.0,0.0,0.0,0.0,0.0,0.0,0.0,0.0,0.0,0.0,0.0,0.0,0.0,0.0,0.0,0.0,0.0,0.0,0.0,0.0,0.0,0.0,0.0,0.0,0.0,0.0,0.0,0.0,0.0,0.0,0.0,0.0,0.0,0.0,0.0,0.0,0.0,0.0,0.0,0.0,-1.6617,0.0,0.0,0.0,0.0,0.0,0.0,0.0,0.0,0.0,0.0,0.0,0.0,0.0,0.0,0.0,0.0,0.0,0.0,0.0,0.0,0.0,0.0,0.0,0.0,0.0,0.0,0.0,0.0,0.0,0.0,0.0,0.0,0.0,0.0,0.0,0.0,0.0,0.0,0.0,0.0,0.0,0.0,0.0,0.0,0.0,0.0,0.0,0.0,0.0,0.0,0.0,0.0,0.0,0.0,0.0,0.0,0.0,0.0,0.0,0.0,0.0,0.0,0.0,0.0,0.0,0.0,0.0,0.0,0.0,0.0,0.0,0.0,0.0,0.0,0.0,0.0,0.0,0.0,0.0,0.0,0.0,0.0,0.0,0.0,0.0,0.0,0.0,0.0,0.0,0.0,0.0,0.0,0.0,0.0,0.0,0.0,0.0,0.0,0.0,0.0,0.0,0.0,0.0,0.0,0.0,0.0,0.0,0.0,0.0,0.0,-1.3525,-1.387,-1.4104,-1.4887,-1.6329,0.0,0.0,0.0,0.0,0.0,0.0,0.0,0.0,0.0,0.0,0.0,0.0,0.0,0.0,0.0,0.0,0.0,0.0,0.0,0.0,0.0,0.0,0.0,0.0,0.0,0.0,0.0,0.0,0.0,0.0,0.0,0.0,0.0,0.0,0.0,0.0,0.0,0.0,0.0,0.0,0.0,0.0,0.0,0.0,0.0,0.0,0.0,0.0,0.0,0.0,0.0,0.0,0.0,0.0,0.0,0.0,0.0,0.0,0.0,0.0,0.0,0.0,0.0,0.0,0.0,0.0,0.0,0.0,0.0,0.0,0.0,0.0,0.0,0.0,0.0,0.0,0.0,0.0,0.0,0.0,0.0,0.0,0.0,0.0,0.0,0.0,0.0,0.0,0.0,0.0,0.0,0.0,0.0,0.0,0.0,0.0,0.0,0.0,0.0,0.0,0.0,0.0,0.0,0.0,0.0,0.0,0.0,0.0,0.0,0.0,0.0,0.0,-1.3851,-1.4727,-1.6165,0.0,0.0,0.0,0.0,0.0,0.0,0.0,0.0,0.0,0.0,0.0,0.0,0.0,0.0,0.0,0.0,0.0,0.0,0.0,0.0,0.0,0.0,0.0,0.0,0.0,0.0,0.0,0.0,0.0,0.0,0.0,0.0,0.0,0.0,0.0,0.0,0.0,0.0,0.0,0.0,0.0,0.0,0.0,0.0,0.0,0.0,0.0,0.0,0.0,0.0,0.0,0.0,0.0,0.0,0.0,0.0,0.0,0.0,0.0,0.0,0.0,0.0,0.0,0.0,0.0,0.0,0.0,0.0,0.0,0.0,0.0,0.0,0.0,0.0,0.0,0.0,0.0,0.0,0.0,0.0,0.0,0.0,0.0,0.0,0.0,0.0,0.0,0.0,0.0,0.0,0.0,0.0,0.0,0.0,0.0,0.0,0.0,0.0,0.0,0.0,0.0,0.0,0.0,0.0,0.0,0.0,0.0,0.0,0.0,0.0,-1.3143,-1.3143,-1.3519,0.0,-1.6535,0.0,0.0,0.0,0.0,0.0,0.0,0.0,0.0,0.0,0.0,0.0,0.0,0.0,0.0,0.0,0.0,0.0,0.0,0.0,0.0,0.0,0.0,0.0,0.0,0.0,0.0,0.0,0.0,0.0,0.0,0.0,0.0,0.0,0.0,0.0,0.0,0.0,0.0,0.0,0.0,0.0,0.0,0.0,0.0,0.0,0.0,0.0,0.0,0.0,0.0,0.0,0.0,0.0,0.0,0.0,0.0,0.0,0.0,0.0,0.0,0.0,0.0,0.0,0.0,0.0,0.0,0.0,0.0,0.0,0.0,0.0,0.0,0.0,0.0,0.0,0.0,0.0,0.0,0.0,0.0,0.0,0.0,0.0,0.0,0.0,0.0,0.0,0.0,0.0,0.0,0.0,0.0,0.0,0.0,0.0,0.0,0.0,0.0,0.0,0.0,0.0,0.0,0.0,0.0,0.0,0.0,0.0,0.0,0.0,0.0,-1.2966,-1.3094,-1.3893,-1.4977,0.0,0.0,0.0,0.0,0.0,0.0,0.0,0.0,0.0,0.0,0.0,0.0,0.0,0.0,0.0,0.0,0.0,0.0,0.0,0.0,0.0,0.0,0.0,0.0,0.0,0.0,0.0,0.0,0.0,0.0,0.0,0.0,0.0,0.0,0.0,0.0,0.0,0.0,0.0,0.0,0.0,0.0,0.0,0.0,0.0,0.0,0.0,0.0,0.0,0.0,0.0,0.0,0.0,0.0,0.0,0.0,0.0,0.0,0.0,0.0,0.0,0.0,0.0,0.0,0.0,0.0,0.0,0.0,0.0,0.0,0.0,0.0,0.0,0.0,0.0,0.0,0.0,0.0,0.0,0.0,0.0,0.0,0.0,0.0,0.0,0.0,0.0,0.0,0.0,0.0,0.0,0.0,0.0,0.0,0.0,0.0,0.0,0.0,0.0,0.0,0.0,0.0,0.0,0.0,0.0,0.0,0.0,0.0,0.0,0.0,-1.2833,-1.2833,-1.3222,-1.4062,-1.5061,-1.6188,0.0,0.0,0.0,0.0,0.0,0.0,0.0,0.0,0.0,0.0,0.0,0.0,0.0,0.0,0.0,0.0,0.0,0.0,0.0,0.0,0.0,0.0,0.0,0.0,0.0,0.0,0.0,0.0,0.0,0.0,0.0,0.0,0.0,0.0,0.0,0.0,0.0,0.0,0.0,0.0,0.0,0.0,0.0,0.0,0.0,0.0,0.0,0.0,0.0,0.0,0.0,0.0,0.0,0.0,0.0,0.0,0.0,0.0,0.0,0.0,0.0,0.0,0.0,0.0,0.0,0.0,0.0,0.0,0.0,0.0,0.0,0.0,0.0,0.0,0.0,0.0,0.0,0.0,0.0,0.0,0.0,0.0,0.0,0.0,0.0,0.0,0.0,0.0,0.0,0.0,0.0,0.0,0.0,0.0,0.0,0.0,0.0,0.0,0.0,0.0,0.0,0.0,0.0,0.0,0.0,0.0,0.0,0.0,-1.3094,-1.2833,-1.2918,-1.3398,-1.3893,-1.4643,0.0,0.0,0.0,0.0,0.0,0.0,0.0,0.0,0.0,0.0,0.0,0.0,0.0,0.0,0.0,0.0,0.0,0.0,0.0,0.0,0.0,0.0,0.0,0.0,0.0,0.0,0.0,0.0,0.0,0.0,0.0,0.0,0.0,0.0,0.0,0.0,0.0,0.0,0.0,0.0,0.0,0.0,0.0,0.0,0.0,0.0,0.0,0.0,0.0,0.0,0.0,0.0,0.0,0.0,0.0,0.0,0.0,0.0,0.0,0.0,0.0,0.0,0.0,0.0,0.0,0.0,0.0,0.0,0.0,0.0,0.0,0.0,0.0,0.0,0.0,0.0,0.0,0.0,0.0,0.0,0.0,0.0,0.0,0.0,0.0,0.0,0.0,0.0,0.0,0.0,0.0,0.0,0.0,0.0,0.0,0.0,0.0,0.0,0.0,0.0,0.0,0.0,0.0,0.0,0.0,0.0,0.0,0.0,0.0,-1.2881,-1.2747,-1.2924,-1.3392,-1.3864,-1.4531,0.0,0.0,0.0,0.0,0.0,0.0,0.0,0.0,0.0,0.0,0.0,0.0,0.0,0.0,0.0,0.0,0.0,0.0,0.0,0.0,0.0,0.0,0.0,0.0,0.0,0.0,0.0,0.0,0.0,0.0,0.0,0.0,0.0,0.0,0.0,0.0,0.0,0.0,0.0,0.0,0.0,0.0,0.0,0.0,0.0,0.0,0.0,0.0,0.0,0.0,0.0,0.0,0.0,0.0,0.0,0.0,0.0,0.0,0.0,0.0,0.0,0.0,0.0,0.0,0.0,0.0,0.0,0.0,0.0,0.0,0.0,0.0,0.0,0.0,0.0,0.0,0.0,0.0,0.0,0.0,0.0,0.0,0.0,0.0,0.0,0.0,0.0,0.0,0.0,0.0,0.0,0.0,0.0,0.0,0.0,0.0,0.0,0.0,0.0,0.0,0.0,0.0,0.0,0.0,0.0,0.0,0.0,0.0,0.0,-1.2705,0.0,-1.2918,-1.3392,-1.3779,-1.4405,0.0,0.0,0.0,0.0,0.0,0.0,0.0,0.0,0.0,0.0,0.0,0.0,0.0,0.0,0.0,0.0,0.0,0.0,0.0,0.0,0.0,0.0,0.0,0.0,0.0,0.0,0.0,0.0,0.0,0.0,0.0,0.0,0.0,0.0,0.0,0.0,0.0,0.0,0.0,0.0,0.0,0.0,0.0,0.0,0.0,0.0,0.0,0.0,0.0,0.0,0.0,0.0,0.0,0.0,0.0,0.0,0.0,0.0,0.0,0.0,0.0,0.0,0.0,0.0,0.0,0.0,0.0,0.0,0.0,0.0,0.0,0.0,0.0,0.0,0.0,0.0,0.0,0.0,0.0,0.0,0.0,0.0,0.0,0.0,0.0,0.0,0.0,0.0,0.0,0.0,0.0,0.0,0.0,0.0,0.0,0.0,0.0,0.0,0.0,0.0,0.0,0.0,0.0,0.0,0.0,0.0,0.0,0.0,-1.3137,-1.2705,-1.2705,-1.2918,-1.3355,-1.361,-1.4237,0.0,0.0,0.0,0.0,0.0,0.0,0.0,0.0,0.0,0.0,0.0,0.0,0.0,0.0,0.0,0.0,0.0,0.0,0.0,0.0,0.0,0.0,0.0,0.0,0.0,0.0,0.0,0.0,0.0,0.0,0.0,0.0,0.0,0.0,0.0,0.0,0.0,0.0,0.0,0.0,0.0,0.0,0.0,0.0,0.0,0.0,0.0,0.0,0.0,0.0,0.0,0.0,0.0,0.0,0.0,0.0,0.0,0.0,0.0,0.0,0.0,0.0,0.0,0.0,0.0,0.0,0.0,0.0,0.0,0.0,0.0,0.0,0.0,0.0,0.0,0.0,0.0,0.0,0.0,0.0,0.0,0.0,0.0,0.0,0.0,0.0,0.0,0.0,0.0,0.0,0.0,0.0,0.0,0.0,0.0,0.0,0.0,0.0,0.0,0.0,0.0,0.0,0.0,0.0,0.0,0.0,0.0,0.0,0.0,-1.2705,-1.2705,-1.2833,-1.3185,-1.3519,-1.4153,0.0,0.0,0.0,0.0,0.0,0.0,0.0,0.0,0.0,0.0,0.0,0.0,0.0,0.0,0.0,0.0,0.0,0.0,0.0,0.0,0.0,0.0,0.0,0.0,0.0,0.0,0.0,0.0,0.0,0.0,0.0,0.0,0.0,0.0,0.0,0.0,0.0,0.0,0.0,0.0,0.0,0.0,0.0,0.0,0.0,0.0,0.0,0.0,0.0,0.0,0.0,0.0,0.0,0.0,0.0,0.0,0.0,0.0,0.0,0.0,0.0,0.0,0.0,0.0,0.0,0.0,0.0,0.0,0.0,0.0,0.0,0.0,0.0,0.0,0.0,0.0,0.0,0.0,0.0,0.0,0.0,0.0,0.0,0.0,0.0,0.0,0.0,0.0,0.0,0.0,0.0,0.0,0.0,0.0,0.0,0.0,0.0,0.0,0.0,0.0,0.0,0.0,0.0,0.0,0.0,0.0,0.0,0.0,0.0,-1.2287,-1.2553,-1.2905,-1.325,-1.3593,-1.4139,-1.4915,0.0,0.0,0.0,0.0,0.0,0.0,0.0,0.0,0.0,0.0,0.0,0.0,0.0,0.0,0.0,0.0,0.0,0.0,0.0,0.0,0.0,0.0,0.0,0.0,0.0,0.0,0.0,0.0,0.0,0.0,0.0,0.0,0.0,0.0,0.0,0.0,0.0,0.0,0.0,0.0,0.0,0.0,0.0,0.0,0.0,0.0,0.0,0.0,0.0,0.0,0.0,0.0,0.0,0.0,0.0,0.0,0.0,0.0,0.0,0.0,0.0,0.0,0.0,0.0,0.0,0.0,0.0,0.0,0.0,0.0,0.0,0.0,0.0,0.0,0.0,0.0,0.0,0.0,0.0,0.0,0.0,0.0,0.0,0.0,0.0,0.0,0.0,0.0,0.0,0.0,0.0,0.0,0.0,0.0,0.0,0.0,0.0,0.0,0.0,0.0,0.0,0.0,0.0,0.0,0.0,0.0,0.0,0.0,-1.1615,-1.2398,-1.3019,-1.3391,-1.3636,-1.4067,0.0,0.0,0.0,0.0,0.0,0.0,0.0,0.0,0.0,0.0,0.0,0.0,0.0,0.0,0.0,0.0,0.0,0.0,0.0,0.0,0.0,0.0,0.0,0.0,0.0,0.0,0.0,0.0,0.0,0.0,0.0,0.0,0.0,0.0,0.0,0.0,0.0,0.0,0.0,0.0,0.0,0.0,0.0,0.0,0.0,0.0,0.0,0.0,0.0,0.0,0.0,0.0,0.0,0.0,0.0,0.0,0.0,0.0,0.0,0.0,0.0,0.0,0.0,0.0,0.0,0.0,0.0,0.0,0.0,0.0,0.0,0.0,0.0,0.0,0.0,0.0,0.0,0.0,0.0,0.0,0.0,0.0,0.0,0.0,0.0,0.0,0.0,0.0,0.0,0.0,0.0,0.0,0.0,0.0,0.0,0.0,0.0,0.0,0.0,0.0,0.0,0.0,0.0,0.0,0.0,0.0,0.0,0.0,0.0,-1.2993,-1.3232,-1.3049,-1.24,-1.3294,-1.4122,0.0,0.0,0.0,0.0,0.0,0.0,0.0,0.0,0.0,0.0,0.0,0.0,0.0,0.0,0.0,0.0,0.0,0.0,0.0,0.0,0.0,0.0,0.0,0.0,0.0,0.0,0.0,0.0,0.0,0.0,0.0,0.0,0.0,0.0,0.0,0.0,0.0,0.0,0.0,0.0,0.0,0.0,0.0,0.0,0.0,0.0,0.0,0.0,0.0,0.0,0.0,0.0,0.0,0.0,0.0,0.0,0.0,0.0,0.0,0.0,0.0,0.0,0.0,0.0,0.0,0.0,0.0,0.0,0.0,0.0,0.0,0.0,0.0,0.0,0.0,0.0,0.0,0.0,0.0,0.0,0.0,0.0,0.0,0.0,0.0,0.0,0.0,0.0,0.0,0.0,0.0,0.0,0.0,0.0,0.0,0.0,0.0,0.0,0.0,0.0,0.0,0.0,0.0,0.0,0.0,0.0,0.0,0.0,-1.2997,-1.282,-1.3502,-1.3425,-1.2427,-1.342,-1.4255,0.0,0.0,0.0,0.0,0.0,0.0,0.0,0.0,0.0,0.0,0.0,0.0,0.0,0.0,0.0,0.0,0.0,0.0,0.0,0.0,0.0,0.0,0.0,0.0,0.0,0.0,0.0,0.0,0.0,0.0,0.0,0.0,0.0,0.0,0.0,0.0,0.0,0.0,0.0,0.0,0.0,0.0,0.0,0.0,0.0,0.0,0.0,0.0,0.0,0.0,0.0,0.0,0.0,0.0,0.0,0.0,0.0,0.0,0.0,0.0,0.0,0.0,0.0,0.0,0.0,0.0,0.0,0.0,0.0,0.0,0.0,0.0,0.0,0.0,0.0,0.0,0.0,0.0,0.0,0.0,0.0,0.0,0.0,0.0,0.0,0.0,0.0,0.0,0.0,0.0,0.0,0.0,0.0,0.0,0.0,0.0,0.0,0.0,0.0,0.0,0.0,0.0,0.0,0.0,0.0,0.0,0.0,0.0,-1.3071,-1.2167,-1.3561,-1.3956,-1.3301,-1.3948,-1.4514,0.0,0.0,0.0,0.0,0.0,0.0,0.0,0.0,0.0,0.0,0.0,0.0,0.0,0.0,0.0,0.0,0.0,0.0,0.0,0.0,0.0,0.0,0.0,0.0,0.0,0.0,0.0,0.0,0.0,0.0,0.0,0.0,0.0,0.0,0.0,0.0,0.0,0.0,0.0,0.0,0.0,0.0,0.0,0.0,0.0,0.0,0.0,0.0,0.0,0.0,0.0,0.0,0.0,0.0,0.0,0.0,0.0,0.0,0.0,0.0,0.0,0.0,0.0,0.0,0.0,0.0,0.0,0.0,0.0,0.0,0.0,0.0,0.0,0.0,0.0,0.0,0.0,0.0,0.0,0.0,0.0,0.0,0.0,0.0,0.0,0.0,0.0,0.0,0.0,0.0,0.0,0.0,0.0,0.0,0.0,0.0,0.0,0.0,0.0,0.0,0.0,0.0,0.0,0.0,0.0,0.0,0.0,0.0,-1.3473,-1.3484,-1.4034,-1.4298,-1.4346,-1.464,-1.516,0.0,0.0,0.0,0.0,0.0,0.0,0.0,0.0,0.0,0.0,0.0,0.0,0.0,0.0,0.0,0.0,0.0,0.0,0.0,0.0,0.0,0.0,0.0,0.0,0.0,0.0,0.0,0.0,0.0,0.0,0.0,0.0,0.0,0.0,0.0,0.0,0.0,0.0,0.0,0.0,0.0,0.0,0.0,0.0,0.0,0.0,0.0,0.0,-2.0145,0.0,0.0,0.0,0.0,0.0,0.0,0.0,0.0,0.0,0.0,0.0,0.0,0.0,0.0,0.0,0.0,0.0,0.0,0.0,0.0,0.0,0.0,0.0,0.0,0.0,0.0,0.0,0.0,0.0,0.0,0.0,0.0,0.0,0.0,0.0,0.0,0.0,0.0,0.0,0.0,0.0,0.0,0.0,0.0,0.0,0.0,0.0,0.0,0.0,0.0,0.0,0.0,0.0,0.0,0.0,0.0,0.0,0.0,0.0,-1.3767,-1.3906,-1.4165,-1.449,-1.4879,-1.5059,-1.5538,0.0,0.0,0.0,0.0,0.0,0.0,0.0,0.0,0.0,0.0,0.0,0.0,0.0,0.0,0.0,0.0,0.0,0.0,0.0,0.0,0.0,0.0,0.0,0.0,0.0,0.0,0.0,0.0,0.0,0.0,0.0,0.0,0.0,0.0,0.0,0.0,0.0,0.0,0.0,0.0,0.0,0.0,0.0,0.0,0.0,0.0,0.0,0.0,0.0,0.0,0.0,0.0,0.0,0.0,0.0,0.0,0.0,0.0,0.0,0.0,0.0,0.0,0.0,0.0,0.0,0.0,0.0,0.0,0.0,0.0,0.0,0.0,0.0,0.0,0.0,0.0,0.0,0.0,0.0,0.0,0.0,0.0,0.0,0.0,0.0,0.0,0.0,0.0,0.0,0.0,0.0,0.0,0.0,0.0,0.0,0.0,0.0,0.0,0.0,0.0,0.0,0.0,0.0,0.0,0.0,0.0,0.0,-1.3936,-1.3924,-1.3972,-1.4231,-1.4592,-1.5083,-1.535,-1.5866,-1.6756,0.0,0.0,0.0,0.0,0.0,0.0,0.0,0.0,0.0,0.0,0.0,0.0,0.0,0.0,0.0,0.0,0.0,0.0,0.0,0.0,0.0,0.0,0.0,0.0,0.0,0.0,0.0,0.0,0.0,0.0,0.0,0.0,0.0,0.0,0.0,0.0,0.0,0.0,-1.9699,-1.9476,0.0,0.0,0.0,0.0,0.0,0.0,0.0,0.0,-2.0311,0.0,0.0,0.0,0.0,0.0,0.0,0.0,0.0,0.0,0.0,0.0,0.0,0.0,0.0,0.0,0.0,0.0,0.0,0.0,0.0,0.0,0.0,0.0,0.0,0.0,0.0,0.0,0.0,0.0,0.0,0.0,0.0,0.0,0.0,0.0,0.0,0.0,0.0,0.0,0.0,0.0,0.0,0.0,0.0,0.0,0.0,0.0,0.0,0.0,0.0,0.0,0.0,0.0,0.0,0.0,0.0,-1.4223,-1.4027,-1.4014,-1.4226,-1.4519,-1.479,-1.5083,-1.5499,-1.6292,-1.7458,0.0,0.0,0.0,0.0,0.0,0.0,0.0,0.0,0.0,0.0,0.0,0.0,0.0,0.0,0.0,0.0,0.0,0.0,0.0,0.0,0.0,0.0,0.0,0.0,0.0,0.0,0.0,0.0,0.0,0.0,0.0,0.0,0.0,0.0,0.0,0.0,0.0,0.0,0.0,-1.9522,-1.9448,0.0,0.0,0.0,0.0,0.0,0.0,0.0,0.0,-2.0857,0.0,0.0,0.0,0.0,0.0,0.0,0.0,0.0,0.0,0.0,0.0,0.0,0.0,0.0,0.0,0.0,0.0,0.0,0.0,0.0,0.0,0.0,0.0,0.0,0.0,0.0,0.0,0.0,0.0,0.0,0.0,0.0,0.0,0.0,0.0,0.0,0.0,0.0,0.0,0.0,0.0,0.0,0.0,0.0,0.0,0.0,0.0,0.0,0.0,0.0,0.0,0.0,0.0,0.0,0.0,-1.4738,-1.4442,-1.4368,-1.4484,-1.464,-1.4885,-1.5309,-1.5771,-1.652,0.0,0.0,0.0,0.0,0.0,0.0,0.0,0.0,0.0,0.0,0.0,0.0,0.0,0.0,0.0,0.0,0.0,0.0,0.0,0.0,0.0,0.0,0.0,0.0,0.0,0.0,0.0,0.0,0.0,0.0,0.0,0.0,0.0,0.0,0.0,0.0,0.0,0.0,0.0,0.0,-2.0053,-2.0081,-2.0484,0.0,0.0,0.0,0.0,0.0,0.0,-2.0684,-2.0881,0.0,0.0,0.0,0.0,0.0,0.0,0.0,0.0,0.0,0.0,0.0,0.0,0.0,0.0,0.0,0.0,0.0,0.0,0.0,0.0,0.0,0.0,0.0,0.0,0.0,0.0,0.0,0.0,0.0,0.0,0.0,0.0,0.0,0.0,0.0,0.0,0.0,0.0,0.0,0.0,0.0,0.0,0.0,0.0,0.0,0.0,0.0,0.0,0.0,0.0,0.0,0.0,0.0,0.0,0.0,-1.5172,-1.4835,-1.4655,-1.4655,-1.4694,-1.4924,-1.5401,-1.596,-1.6739,0.0,0.0,0.0,0.0,0.0,0.0,0.0,0.0,0.0,0.0,0.0,0.0,0.0,0.0,0.0,0.0,0.0,0.0,0.0,0.0,0.0,0.0,0.0,0.0,0.0,0.0,0.0,0.0,0.0,0.0,0.0,0.0,0.0,0.0,0.0,0.0,0.0,0.0,0.0,0.0,0.0,-2.0659,-2.1044,-2.0503,0.0,0.0,0.0,0.0,-2.1025,-2.102,0.0,0.0,0.0,0.0,0.0,0.0,0.0,0.0,0.0,0.0,0.0,0.0,0.0,0.0,0.0,0.0,0.0,0.0,0.0,0.0,0.0,0.0,0.0,0.0,0.0,0.0,0.0,0.0,0.0,0.0,0.0,0.0,0.0,0.0,0.0,0.0,0.0,0.0,0.0,0.0,0.0,0.0,0.0,0.0,0.0,0.0,0.0,0.0,0.0,0.0,0.0,0.0,0.0,0.0,0.0,0.0,-1.5439,-1.4876,-1.4615,-1.4602,-1.4597,-1.4767,-1.5054,-1.5998,-1.6955,0.0,0.0,0.0,0.0,0.0,0.0,0.0,0.0,0.0,0.0,0.0,0.0,0.0,0.0,0.0,0.0,0.0,0.0,0.0,0.0,0.0,0.0,0.0,0.0,0.0,0.0,0.0,0.0,0.0,0.0,0.0,0.0,0.0,0.0,0.0,0.0,0.0,0.0,0.0,0.0,0.0,-2.0659,-2.1053,-2.0732,-2.0466,0.0,0.0,-2.142,-2.1154,-2.173,0.0,0.0,0.0,0.0,0.0,0.0,0.0,0.0,0.0,0.0,0.0,0.0,0.0,0.0,0.0,0.0,0.0,0.0,0.0,0.0,0.0,0.0,0.0,0.0,0.0,0.0,0.0,0.0,0.0,0.0,0.0,0.0,0.0,0.0,0.0,0.0,0.0,0.0,0.0,0.0,0.0,0.0,0.0,0.0,0.0,0.0,0.0,0.0,0.0,0.0,0.0,0.0,0.0,0.0,0.0,-1.5538,-1.5231,-1.4785,-1.4598,-1.4598,-1.4611,-1.474,-1.5007,-1.6127,-1.706,0.0,0.0,0.0,0.0,0.0,0.0,0.0,0.0,0.0,0.0,0.0,0.0,0.0,0.0,0.0,0.0,0.0,0.0,0.0,0.0,0.0,0.0,0.0,0.0,0.0,0.0,0.0,0.0,0.0,0.0,0.0,0.0,0.0,0.0,0.0,0.0,0.0,0.0,0.0,0.0,0.0,0.0,-2.1154,-2.1119,0.0,0.0,0.0,-2.1436,-2.1632,0.0,0.0,0.0,0.0,0.0,0.0,0.0,0.0,0.0,0.0,0.0,0.0,0.0,0.0,0.0,0.0,0.0,0.0,0.0,0.0,0.0,0.0,0.0,0.0,0.0,0.0,0.0,0.0,0.0,0.0,0.0,0.0,0.0,0.0,0.0,0.0,0.0,0.0,0.0,0.0,0.0,0.0,0.0,0.0,0.0,0.0,0.0,0.0,0.0,0.0,0.0,0.0,0.0,0.0,0.0,0.0,0.0,-1.5087,-1.472,-1.4576,-1.4576,-1.4504,-1.4674,-1.5198,-1.6261,0.0,0.0,0.0,0.0,0.0,0.0,0.0,0.0,0.0,0.0,0.0,0.0,0.0,0.0,0.0,0.0,0.0,0.0,0.0,0.0,0.0,0.0,0.0,0.0,0.0,0.0,0.0,-2.7074,0.0,0.0,0.0,0.0,0.0,0.0,0.0,0.0,0.0,0.0,0.0,0.0,0.0,0.0,-2.187,-2.12,-2.1431,-2.1687,0.0,0.0,-2.1625,-2.2059,-2.2149,-2.2303,0.0,0.0,0.0,0.0,0.0,0.0,0.0,0.0,0.0,0.0,0.0,0.0,0.0,0.0,0.0,0.0,0.0,0.0,0.0,0.0,0.0,0.0,0.0,0.0,0.0,0.0,0.0,0.0,0.0,0.0,0.0,0.0,0.0,0.0,0.0,0.0,0.0,0.0,0.0,0.0,0.0,0.0,0.0,0.0,0.0,0.0,0.0,0.0,0.0,0.0,0.0,0.0,0.0,0.0,-1.5311,-1.5252,-1.4747,-1.4512,-1.4499,-1.4239,-1.4646,-1.572,-1.6322,-1.7447,0.0,0.0,0.0,0.0,0.0,0.0,0.0,0.0,0.0,0.0,0.0,0.0,0.0,0.0,0.0,0.0,0.0,0.0,0.0,0.0,0.0,0.0,0.0,0.0,0.0,0.0,0.0,0.0,0.0,0.0,0.0,0.0,0.0,0.0,0.0,0.0,0.0,0.0,0.0,0.0,0.0,-2.1612,-2.1172,-2.1421,-2.1687,0.0,-2.2205,-2.2497,-2.2152,-2.2789,-2.332,-2.3331,0.0,0.0,0.0,0.0,0.0,0.0,0.0,0.0,0.0,0.0,0.0,0.0,0.0,0.0,0.0,0.0,0.0,0.0,0.0,0.0,0.0,0.0,0.0,0.0,0.0,0.0,0.0,0.0,0.0,0.0,0.0,0.0,0.0,0.0,0.0,0.0,0.0,0.0,0.0,0.0,0.0,0.0,0.0,0.0,0.0,0.0,0.0,0.0,0.0,0.0,0.0,0.0,0.0,-1.5109,-1.5041,-1.467,-1.4681,-1.5057,-1.5369,-1.5797,-1.6323,-1.7276,-1.8053,0.0,0.0,0.0,0.0,0.0,0.0,0.0,0.0,0.0,0.0,0.0,0.0,0.0,0.0,0.0,0.0,0.0,0.0,0.0,0.0,0.0,0.0,0.0,0.0,0.0,0.0,0.0,0.0,-2.4934,-2.424,-2.4069,0.0,0.0,0.0,0.0,0.0,0.0,0.0,0.0,0.0,0.0,-2.1771,-2.1163,-2.1632,0.0,0.0,-2.2182,-2.2408,-2.269,-2.3159,-2.3444,-2.3402,-2.3911,0.0,0.0,0.0,0.0,0.0,0.0,0.0,0.0,0.0,0.0,0.0,0.0,0.0,0.0,0.0,0.0,0.0,0.0,0.0,0.0,0.0,0.0,0.0,0.0,0.0,0.0,0.0,0.0,0.0,0.0,0.0,0.0,0.0,0.0,0.0,0.0,0.0,0.0,0.0,0.0,0.0,0.0,0.0,0.0,0.0,0.0,0.0,0.0,0.0,0.0,0.0,0.0,-1.4846,-1.4819,-1.4518,-1.475,-1.5582,-1.5912,-1.6483,-1.7261,-1.7987,-1.8456,0.0,0.0,0.0,0.0,0.0,0.0,0.0,0.0,0.0,0.0,0.0,0.0,0.0,0.0,0.0,0.0,0.0,0.0,0.0,0.0,0.0,0.0,0.0,0.0,0.0,0.0,0.0,0.0,-2.4514,-2.3861,-2.3973,0.0,0.0,0.0,0.0,0.0,0.0,0.0,0.0,0.0,0.0,-2.1982,-2.1398,-2.1971,-2.2404,-2.2311,-2.2495,-2.2711,-2.3055,-2.3424,-2.3674,-2.3682,0.0,0.0,0.0,0.0,0.0,0.0,0.0,0.0,0.0,0.0,0.0,0.0,0.0,0.0,0.0,0.0,0.0,0.0,0.0,0.0,0.0,0.0,0.0,0.0,0.0,0.0,0.0,-1.9758,0.0,0.0,-1.9829,0.0,0.0,0.0,0.0,0.0,0.0,0.0,0.0,0.0,0.0,0.0,0.0,0.0,0.0,0.0,0.0,0.0,0.0,0.0,0.0,0.0,0.0,-1.4652,-1.4706,-1.4362,-1.4732,-1.5946,-1.5654,-1.649,-1.8445,-1.8228,-1.8577,-1.9793,0.0,0.0,0.0,0.0,0.0,0.0,0.0,0.0,0.0,0.0,0.0,0.0,0.0,0.0,0.0,0.0,0.0,0.0,0.0,0.0,0.0,0.0,0.0,0.0,0.0,0.0,-2.4819,-2.4637,-2.4476,0.0,0.0,0.0,0.0,0.0,0.0,0.0,0.0,0.0,0.0,-2.2016,-2.2246,-2.1892,-2.237,-2.2823,-2.2794,-2.3319,-2.3594,-2.3225,-2.37,-2.4144,0.0,0.0,0.0,0.0,0.0,0.0,0.0,0.0,0.0,0.0,0.0,0.0,0.0,0.0,0.0,0.0,0.0,0.0,0.0,0.0,0.0,0.0,0.0,0.0,0.0,0.0,0.0,-1.7948,-1.8399,0.0,0.0,0.0,0.0,0.0,0.0,0.0,0.0,0.0,0.0,0.0,-1.9893,-1.9893,0.0,0.0,0.0,0.0,0.0,0.0,0.0,0.0,0.0,0.0,0.0,0.0,-1.4633,-1.4985,-1.5149,-1.5615,-1.6467,-1.7391,-1.8246,-1.903,-1.9187,-1.9534,-2.0129,0.0,0.0,0.0,0.0,0.0,0.0,0.0,0.0,0.0,0.0,0.0,0.0,0.0,0.0,0.0,0.0,0.0,0.0,0.0,0.0,0.0,0.0,0.0,0.0,0.0,-2.3145,0.0,0.0,0.0,0.0,0.0,0.0,0.0,0.0,0.0,0.0,0.0,-2.3301,-2.3654,-2.3368,-2.313,-2.314,-2.3331,-2.3594,0.0,0.0,0.0,0.0,0.0,0.0,0.0,0.0,0.0,0.0,0.0,0.0,0.0,0.0,-2.7095,-2.6189,-2.6541,-2.7172,-2.7873,0.0,0.0,0.0,0.0,0.0,0.0,0.0,0.0,0.0,0.0,0.0,0.0,0.0,0.0,-1.7306,-1.7835,-1.8526,0.0,0.0,0.0,0.0,0.0,0.0,0.0,0.0,-1.9957,-2.0021,-1.9893,-1.9893,-1.9738,0.0,-1.9765,-2.0117,0.0,0.0,0.0,0.0,0.0,0.0,0.0,0.0,-1.5308,-1.5636,-1.5977,-1.6525,-1.7359,-1.8229,-1.8952,-1.9491,-1.9641,-1.9755,-1.9956,-1.9746,-1.9839,0.0,0.0,0.0,0.0,0.0,0.0,0.0,0.0,0.0,0.0,0.0,0.0,0.0,0.0,0.0,0.0,0.0,0.0,0.0,0.0,0.0,0.0,0.0,-2.2674,0.0,0.0,0.0,0.0,0.0,0.0,0.0,0.0,0.0,-2.4718,-2.434,-2.4293,-2.485,-2.4504,-2.4231,-2.4276,0.0,0.0,0.0,0.0,0.0,0.0,0.0,-2.6098,-2.5825,-2.635,-2.6819,-2.6789,-2.7107,-2.7619,-2.8205,0.0,0.0,-2.7715,-2.8037,-2.8662,-2.9285,-2.9752,-3.0241,-3.0914,-3.1129,-3.1163,0.0,0.0,0.0,0.0,0.0,0.0,0.0,0.0,-1.6237,-1.6928,0.0,-1.8112,0.0,0.0,0.0,0.0,-1.9011,-1.9183,0.0,0.0,-2.0127,-2.0292,-1.9902,-1.9893,-1.9884,-1.9875,-1.9857,-1.9866,-1.9875,-1.9693,0.0,0.0,0.0,0.0,0.0,0.0,-1.6597,-1.6683,-1.6747,-1.7319,-1.8478,-1.8243,-1.864,-1.9829,-1.9512,-1.9311,-1.9301,-1.9518,-1.9898,-2.0474,-2.0617,0.0,0.0,0.0,0.0,0.0,0.0,0.0,0.0,0.0,0.0,0.0,0.0,0.0,0.0,0.0,0.0,0.0,0.0,0.0,0.0,-2.3556,0.0,0.0,0.0,0.0,0.0,0.0,0.0,0.0,0.0,0.0,-2.475,-2.496,-2.5275,-2.5286,0.0,0.0,0.0,0.0,-2.5935,-2.5988,-2.6268,-2.6431,-2.6177,-2.6553,-2.6892,-2.7031,0.0,0.0,-2.7702,-2.8126,-2.8524,-2.881,-2.9911,-3.0548,-2.9904,-2.999,-3.0267,-3.048,-3.0856,-3.1118,-3.1319,-3.1645,-3.173,-1.3107,0.0,0.0,0.0,0.0,-1.3628,-1.4043,-1.4803,-1.5411,-1.5857,-1.6243,-1.752,0.0,0.0,0.0,0.0,0.0,0.0,-1.9307,-1.9751,-1.9957,-2.0003,-1.9893,-1.9893,-1.9769,-1.9476,-1.9476,-1.9485,-1.9476,-1.9436,-1.9181,-1.8834,0.0,0.0,0.0,0.0,-1.6876,-1.7163,-1.7472,-1.7806,-1.816,-1.8669,-1.9118,-1.9485,-1.9366,-1.9292,-1.9292,-1.9893,-2.0313,-2.0474,-2.1188,0.0,0.0,0.0,0.0,0.0,0.0,0.0,0.0,0.0,0.0,0.0,0.0,0.0,0.0,0.0,0.0,0.0,0.0,0.0,-2.307,-2.2961,-2.3006,0.0,0.0,0.0,0.0,0.0,0.0,0.0,0.0,0.0,-2.6401,-2.6203,-2.6397,0.0,0.0,-2.667,-2.664,-2.6764,-2.694,-2.729,-2.7278,0.0,-2.7073,-2.732,-2.7528,-2.7348,-2.7782,-2.8388,-2.9015,-2.9225,-2.9742,-3.1042,-3.1757,-3.2266,-3.266,-3.1962,-3.1594,-3.2067,-3.2382,-3.279,-3.333,-3.3547,-3.3547,-1.3261,-1.2887,-1.3407,-1.3622,-1.3658,-1.3616,-1.3803,-1.4189,-1.4735,-1.5094,-1.5378,-1.697,-1.7588,-1.7344,-1.804,0.0,0.0,0.0,-1.8975,-1.9525,-1.9565,-1.9565,-1.9677,-1.9637,-1.9549,-1.9301,-1.9292,-1.9292,-1.9292,-1.9292,-1.9231,-1.9103,0.0,0.0,-1.8149,-1.7847,-1.7792,-1.8046,-1.8367,-1.8527,-1.8527,-1.9015,-1.9292,-1.9301,-1.9608,-1.9766,-1.9805,-2.0576,-2.1176,-2.1484,-2.1848,-2.2114,0.0,0.0,0.0,0.0,0.0,0.0,0.0,0.0,0.0,0.0,0.0,-2.6049,0.0,0.0,0.0,0.0,-2.3813,-2.3258,-2.2935,-2.3023,0.0,0.0,0.0,0.0,0.0,0.0,0.0,-2.5923,-2.6687,-2.7226,-2.7238,-2.7289,-2.7493,-2.795,-2.7765,-2.7563,-2.7493,0.0,-2.7684,-2.799,-2.7898,-2.778,-2.7842,-2.8028,-2.8164,-2.8288,-2.869,-2.9151,-2.9707,-3.0313,-3.1022,-3.1651,-3.2556,-3.3374,-3.3797,-3.3261,-3.296,-3.3395,-3.3589,-3.3845,-3.4346,-3.438,-3.438,-1.3349,-1.3197,-1.3951,-1.4141,-1.393,-1.4165,-1.4135,-1.396,-1.4195,-1.4586,-1.5172,-1.6626,-1.7175,-1.708,-1.761,0.0,-1.8385,-1.8214,-1.8455,-1.8962,-1.8962,-1.9082,-1.9271,-1.9271,-1.9262,-1.9301,-1.9271,-1.9262,-1.9292,-1.9292,-1.9292,-1.9292,-1.9121,-1.8922,-1.8772,-1.8913,-1.9042,-1.8993,-1.9192,-1.9292,-1.9301,-1.9292,-1.9292,-1.9292,-2.0079,-2.0508,-2.0508,-2.1423,-2.222,-2.2953,-2.259,-2.2697,-2.3349,0.0,0.0,0.0,0.0,0.0,0.0,0.0,0.0,0.0,0.0,0.0,0.0,0.0,0.0,0.0,-2.3453,0.0,-2.3503,-2.3588,0.0,0.0,0.0,-2.5643,-2.6088,-2.6265,-2.6403,-2.6403,0.0,0.0,-2.7505,-2.8079,-2.8431,-2.8259,-2.8219,-2.8151,-2.7962,-2.8111,-2.8207,-2.8219,-2.8219,-2.8287,-2.841,-2.8526,-2.887,-2.9576,-2.9819,-2.9935,-3.027,-3.1347,-3.1905,-3.1418,-3.2749,-3.3984,-3.3626,-3.3999,-3.438,-3.4332,-3.438,-3.438,-3.438,-3.438,-3.438,-1.3258,-1.3454,-1.3854,-1.3963,-1.3912,-1.3972,-1.4081,-1.4214,-1.4274,-1.4394,-1.4621,-1.613,-1.7337,-1.8196,-1.836,-1.8423,-1.8393,-1.8346,-1.8475,-1.8772,-1.878,-1.882,-1.8851,-1.8851,-1.8922,-1.9073,-1.9082,-1.9152,-1.9301,-1.9292,-1.9292,-1.9301,-1.9262,-1.9222,-1.9152,-1.9222,-1.9231,-1.9222,-1.9262,-1.9292,-1.9292,-1.9292,-1.9292,-1.9292,-2.0079,-2.0508,-2.0547,-2.1918,-2.2815,-2.3001,-2.3444,-2.3618,-2.3419,-2.288,0.0,0.0,0.0,0.0,0.0,0.0,0.0,0.0,0.0,-2.4765,-2.447,0.0,-2.447,0.0,-2.3612,-2.3594,-2.3714,-2.4315,0.0,0.0,-2.5874,-2.6077,-2.6432,-2.6851,-2.7216,-2.737,-2.7876,-2.8239,-2.8239,-2.8386,-2.8459,-2.8431,-2.8431,-2.8443,-2.8363,-2.8391,-2.8431,-2.8431,-2.8471,-2.8471,-2.8578,-2.9028,-2.9704,-3.0481,-3.0745,-3.1053,-3.1726,-3.2231,-3.2757,-3.32,-3.3713,-3.409,-3.4148,-3.4312,-3.4366,-3.438,-3.438,-3.438,-3.438,-3.438,-3.438,-1.3195,-1.334,-1.3738,-1.3891,-1.3945,-1.4493,-1.481,-1.4997,-1.5419,-1.5656,-1.5684,-1.6875,-1.8013,-1.9042,-1.8742,-1.8551,-1.8475,-1.8319,-1.8362,-1.8563,-1.8571,-1.8652,-1.8851,-1.8812,-1.8931,-1.9112,-1.9112,-1.9183,-1.9301,-1.9292,-1.9292,-1.9292,-1.9292,-1.9292,-1.9292,-1.9292,-1.9292,-1.9292,-1.9292,-1.9292,-1.9292,-1.9292,-1.9381,-1.9578,-2.0459,-2.1088,-2.1357,-2.2654,-2.3446,-2.353,-2.397,-2.4062,-2.3751,-2.3305,-2.2822,0.0,0.0,0.0,0.0,0.0,0.0,0.0,0.0,0.0,0.0,0.0,-2.4393,-2.4041,-2.4158,-2.4402,-2.4701,-2.5341,-2.598,-2.664,-2.6927,-2.7155,-2.74,-2.769,-2.7948,-2.8038,-2.833,-2.851,-2.851,-2.851,-2.851,-2.851,-2.851,-2.851,-2.851,-2.851,-2.863,-2.8949,-2.904,-2.9184,-2.9471,-2.9922,-3.0557,-3.1365,-3.1673,-3.1942,-3.2507,-3.3017,-3.3372,-3.3351,-3.3806,-3.4163,-3.4047,-3.4254,-3.4399,-3.438,-3.438,-3.438,-3.438,-3.438,-3.438,-1.3098,-1.3147,-1.3642,-1.3835,-1.3979,-1.5235,-1.5798,-1.5839,-1.6734,-1.7242,-1.7515,-1.8016,-1.8803,-1.958,-1.8965,-1.8605,-1.8502,-1.8145,-1.8121,-1.8353,-1.8402,-1.8594,-1.8922,-1.8962,-1.9073,-1.9262,-1.9262,-1.9301,-1.9292,-1.9292,-1.9292,-1.9292,-1.9292,-1.9292,-1.9292,-1.9292,-1.9292,-1.9292,-1.9341,-1.935,-1.939,-1.9429,-1.9618,-2.0059,-2.1049,-2.1852,-2.2451,-2.3372,-2.4007,-2.42,-2.4189,-2.4189,-2.4189,-2.3682,-2.3212,0.0,-2.2753,0.0,0.0,0.0,0.0,0.0,0.0,0.0,0.0,-2.471,-2.4637,-2.4792,-2.4944,-2.5263,-2.5852,-2.6351,-2.6899,-2.7482,-2.7966,-2.8299,-2.8471,-2.851,-2.851,-2.851,-2.851,-2.851,-2.851,-2.851,-2.851,-2.851,-2.8657,-2.8736,-2.8657,-2.8697,-2.8988,-2.9742,-2.9858,-3.0114,-3.0782,-3.1044,-3.1415,-3.229,-3.2591,-3.2695,-3.3033,-3.3647,-3.383,-3.3013,-3.3647,-3.4211,-3.3707,-3.4066,-3.4399,-3.438,-3.438,-3.438,-3.438,-3.438,-3.438,-1.2953,-1.3104,-1.3443,-1.369,-1.4027,-1.5283,-1.5798,-1.5798,-1.6035,-1.7016,-1.8511,-1.8632,-1.893,-1.9247,-1.917,-1.8733,-1.8143,-1.8034,-1.804,-1.8072,-1.8282,-1.8434,-1.8523,-1.8692,-1.8891,-1.9033,-1.9082,-1.9152,-1.9292,-1.9292,-1.9292,-1.9292,-1.9292,-1.9292,-1.9292,0.0,0.0,0.0,-1.9478,-1.9636,-1.9784,-2.002,-2.0294,-2.0712,-2.152,0.0,-2.2665,-2.3446,-2.4007,-2.42,-2.4189,0.0,0.0,0.0,0.0,0.0,0.0,0.0,0.0,0.0,0.0,0.0,-2.4418,-2.4754,-2.4875,-2.5294,-2.5329,-2.4886,-2.565,-2.606,-2.5872,-2.6951,-2.7667,-2.7841,-2.8191,-2.8471,-2.851,-2.851,-2.851,-2.851,-2.851,-2.851,-2.851,-2.851,-2.851,-2.859,-2.9067,-2.9445,-2.9523,-2.9484,-2.9781,-3.0532,-3.0707,-3.1007,-3.1746,-3.2001,-3.234,-3.3178,-3.3632,-3.3748,-3.3853,-3.4066,-3.4346,-3.3941,-3.4221,-3.4385,-3.424,-3.4341,-3.438,-3.438,-3.438,-3.438,-3.438,-3.438,-3.438,-1.2856,-1.3007,-1.3346,-1.3588,0.0,-1.5188,-1.6075,-1.6586,-1.7063,-1.8141,-1.9538,-1.9546,-1.9519,-1.9444,-1.9256,-1.8862,-1.8305,-1.8076,-1.7991,-1.7991,-1.8282,-1.8434,-1.8571,-1.8732,-1.8922,-1.9152,-1.9161,-1.9192,-1.9301,-1.9292,-1.9292,-1.9292,-1.9292,-1.949,-1.9923,-2.0343,-2.0304,-1.9883,-2.001,-2.0323,-2.0808,-2.0962,-2.1252,-2.1634,-2.2138,0.0,0.0,0.0,0.0,0.0,0.0,0.0,0.0,-2.3948,0.0,-2.3419,-2.3442,-2.3316,-2.3098,-2.3523,-2.4028,-2.4522,-2.5245,-2.5681,-2.5681,-2.6194,-2.6343,-2.6058,-2.6599,-2.6887,-2.6712,-2.7482,-2.807,-2.807,-2.8311,-2.851,-2.851,-2.851,-2.851,-2.851,-2.851,-2.851,-2.851,-2.851,-2.8697,-2.9028,-2.9445,-3.0012,-3.067,-3.0519,-3.0594,-3.1378,-3.1869,-3.2223,-3.2583,-3.2761,-3.3037,-3.3591,-3.3882,-3.404,-3.4196,-3.4346,-3.438,-3.438,-3.438,-3.438,-3.438,-3.438,-3.438,-3.438,-3.438,-3.438,-3.438,-3.438,-3.4501,-1.2807,-1.2861,-1.3292,-1.3497,-1.3636,-1.514,-1.6452,-1.7615,-1.8603,0.0,0.0,-2.0292,-2.0052,-1.958,-1.9316,-1.893,-1.8477,-1.8136,-1.7991,-1.7991,-1.8322,-1.8531,-1.8652,-1.8922,-1.9112,-1.9222,-1.9301,-1.9292,-1.9292,-1.9292,-1.9292,-1.9292,-1.945,-1.9913,-2.0731,-2.1461,-2.1527,-2.0962,-2.0857,-2.1145,-2.188,-2.1956,-2.2155,-2.2553,-2.2703,-2.3075,-2.3629,-2.3824,-2.397,-2.42,-2.4189,-2.4189,-2.4189,-2.4189,-2.4005,-2.3591,-2.3971,-2.4016,-2.3579,-2.4039,-2.4579,-2.5142,-2.606,-2.6639,-2.66,-2.699,-2.719,-2.719,-2.7371,-2.747,-2.7522,-2.7926,-2.8179,-2.8219,-2.8379,-2.851,-2.851,-2.851,-2.851,-2.851,-2.851,-2.859,-2.8736,-2.8736,-2.9,-2.9742,-3.0114,-3.0632,-3.1869,-3.1759,-3.1613,-3.2209,-3.2753,-3.3241,-3.329,-3.3347,-3.355,-3.3813,-3.3965,-3.4088,-3.4327,-3.438,-3.438,-3.438,-3.438,-3.438,-3.438,-3.438,-3.438,-3.438,-3.438,-3.438,-3.4414,-3.4501,-3.4754,-1.2807,-1.2813,-1.3298,-1.3497,-1.363,-1.514,-1.6875,-1.865,-1.9629,-2.0192,-2.0292,-2.0292,-1.9906,-1.9256,-1.9239,-1.8785,-1.8085,-1.8025,-1.7991,-1.804,-1.8451,-1.8571,-1.8482,-1.8984,-1.9183,-1.9042,-1.9231,-1.9292,-1.9292,-1.9292,-1.9292,-1.9371,-2.0001,-2.0769,-2.1576,-2.1756,-2.2069,-2.2617,-2.2145,-2.2031,-2.2317,-2.2467,-2.2767,-2.315,-2.3187,-2.3409,-2.3824,-2.3897,-2.4007,-2.4189,-2.4189,-2.4189,-2.4189,-2.4189,-2.4166,-2.4097,-2.4166,-2.4166,-2.4097,-2.4545,-2.5233,-2.6203,-2.6795,-2.7116,-2.7087,-2.7144,-2.719,-2.7231,-2.7412,-2.7522,-2.751,-2.7938,-2.8219,-2.8219,-2.8379,-2.851,-2.851,-2.851,-2.851,-2.851,-2.851,-2.8803,-2.9328,-2.9523,-2.9807,-3.0594,-3.123,-3.2051,-3.2753,-3.3051,-3.3016,-3.31,-3.3206,-3.3276,-3.3326,-3.3605,-3.3793,-3.3911,-3.4122,-3.4278,-3.438,-3.438,-3.438,-3.438,-3.438,-3.438,-3.438,-3.438,-3.438,-3.438,-3.438,-3.4414,-3.4467,-3.4905,-3.535,-1.2807,-1.2856,-1.3152,-1.3346,-1.3678,-1.5751,-1.7762,-1.9592,-2.0102,-2.0292,-2.0266,-2.0078,-1.9692,-1.917,-1.8998,-1.8562,-1.7991,-1.7991,-1.7991,-1.8031,-1.8371,-1.8491,-1.8442,-1.8794,-1.9002,-1.9002,-1.9073,-1.9183,-1.9341,-1.9726,-1.9962,-2.004,-2.1231,-2.208,-2.2456,-2.2857,-2.3276,-2.3629,-2.2953,-2.2841,-2.3335,-2.3457,-2.3604,-2.3787,-2.3776,-2.3861,-2.408,-2.4055,-2.4116,-2.4189,-2.4189,-2.4189,-2.4189,-2.4189,-2.4189,-2.4189,-2.4189,-2.4189,-2.4189,-2.4912,-2.567,-2.6444,-2.6932,-2.719,-2.719,-2.719,-2.719,-2.7231,-2.7505,-2.7696,-2.7708,-2.8099,-2.8339,-2.8391,-2.8459,-2.851,-2.851,-2.851,-2.851,-2.855,-2.8882,-2.9289,-2.9678,-3.0075,-3.0632,-3.1452,-3.2232,-3.2895,-3.3241,-3.329,-3.3276,-3.3276,-3.3276,-3.3276,-3.3312,-3.3536,-3.3744,-3.3862,-3.4074,-3.4278,-3.4346,-3.438,-3.438,-3.438,-3.438,-3.438,-3.4414,-3.438,-3.438,-3.438,-3.438,-3.4501,-3.4887,-3.5753,-3.6446,-1.2807,-1.2813,-1.3007,-1.3528,-1.443,-1.6452,-1.8419,-2.0246,-2.0292,-2.0292,-2.024,-1.9853,-1.953,-1.9196,-1.8768,-1.8382,-1.8034,-1.7991,-1.7991,-1.8031,-1.8282,-1.8393,-1.8362,-1.8571,-1.8772,-1.8882,-1.8922,-1.9042,-1.9301,-2.0031,-2.0692,-2.1155,-2.2381,-2.3113,-2.3261,-2.3897,-2.4189,-2.4152,-2.3593,-2.3556,-2.4152,-2.4189,-2.42,-2.4189,-2.42,-2.4189,-2.4189,-2.4189,-2.4189,-2.4189,-2.4189,-2.4189,-2.4189,-2.4189,-2.4189,-2.4189,-2.4189,-2.4303,-2.4568,-2.5256,-2.598,-2.6588,-2.7001,-2.719,-2.719,-2.719,-2.719,-2.7231,-2.7598,-2.7881,-2.7921,-2.8231,-2.851,-2.851,-2.851,-2.851,-2.851,-2.851,-2.8618,-2.8764,-2.9328,-2.9781,-3.0266,-3.0782,-3.1452,-3.2245,-3.2931,-3.3276,-3.3276,-3.3326,-3.3361,-3.3361,-3.3375,-3.3396,-3.3431,-3.3591,-3.3799,-3.3951,-3.4074,-3.423,-3.438,-3.438,-3.438,-3.438,-3.438,-3.4501,-3.4587,-3.4654,-3.4754,-3.4905,-3.5004,-3.5154,-3.5817,-3.66,-3.7417,-1.2807,-1.2807,-1.3007,-1.4465,-1.6479,-1.7102,-1.8465,-2.0147,-2.0292,-2.0292,-2.0249,-1.9853,-1.9521,-1.9153,-1.8759,-1.8374,-1.8008,-1.7991,-1.7991,-1.8031,-1.8282,-1.8273,-1.8121,-1.8491,-1.862,-1.8514,-1.8652,-1.8851,-1.9112,-1.9904,-2.1106,-2.2569,-2.2927,-2.3372,-2.4007,-2.4164,-2.42,-2.4189,-2.4116,-2.4116,-2.42,-2.4189,-2.4189,-2.4189,-2.4189,-2.4189,-2.4189,-2.4189,-2.4189,-2.4189,-2.4189,-2.4189,-2.4225,-2.4189,-2.4189,-2.4225,-2.4189,-2.4579,-2.544,-2.567,-2.6129,-2.6984,-2.7133,-2.719,-2.719,-2.719,-2.719,-2.7272,-2.7638,-2.7881,-2.7921,-2.8243,-2.851,-2.851,-2.851,-2.851,-2.851,-2.851,-2.8776,-2.951,-2.9665,-3.0215,-3.1415,-3.1856,-3.2282,-3.2931,-3.3171,-3.3276,-3.3326,-3.3431,-3.3536,-3.357,-3.357,-3.364,-3.3779,-3.3937,-3.4025,-3.4074,-3.4244,-3.4346,-3.438,-3.438,-3.4414,-3.4568,-3.4467,-3.4687,-3.5121,-3.5335,-3.5514,-3.5834,-3.604,-3.6353,-3.6996,-3.7279,-3.7573,-1.2807,-1.2813,-1.291,-1.437,-1.6539,-1.7102,-1.8465,-2.0238,-2.0292,-2.0292,-2.0215,-1.9675,-1.9316,-1.9179,-1.8537,-1.8136,-1.8,-1.7991,-1.7991,-1.7991,-1.8112,-1.8121,-1.8031,-1.8161,-1.8331,-1.8402,-1.8482,-1.8794,-1.949,-2.0586,-2.1766,-2.2889,-2.3001,-2.3298,-2.3813,-2.3861,-2.3934,-2.4189,-2.4189,-2.4189,-2.4189,-2.4189,-2.4189,-2.4189,-2.4189,-2.4189,-2.4189,-2.4189,-2.4189,-2.4189,-2.4189,-2.4334,-2.4671,-2.4671,-2.4671,-2.4635,-2.437,-2.4636,-2.5635,-2.5716,-2.6152,-2.7121,-2.719,-2.719,-2.719,-2.719,-2.719,-2.7231,-2.765,-2.7881,-2.7921,-2.8243,-2.851,-2.851,-2.851,-2.851,-2.851,-2.851,-2.8816,-2.96,-3.0101,-3.0782,-3.1892,-3.2497,-3.2895,-3.3241,-3.3276,-3.3276,-3.3326,-3.3361,-3.3501,-3.3709,-3.3779,-3.3813,-3.3896,-3.4005,-3.4094,-3.4128,-3.4278,-3.438,-3.438,-3.438,-3.4501,-3.4872,-3.4938,-3.5172,-3.5897,-3.5977,-3.6103,-3.6477,-3.6798,-3.6977,-3.6835,-3.709,-3.7335,-1.2807,-1.2813,-1.291,-1.4376,-1.6485,-1.7055,-1.8465,-2.0147,-2.0292,-2.0292,-2.0206,-1.9504,-1.9179,-1.9067,-1.8333,-1.7991,-1.7991,-1.7991,-1.7991,-1.7991,-1.7991,-1.7991,-1.7991,-1.7991,-1.8121,-1.8273,-1.8474,-1.9103,-2.0109,-2.1213,-2.2214,-2.2889,-2.3113,-2.3298,-2.3593,-2.3677,-2.3897,-2.4164,-2.4189,-2.4189,-2.4189,-2.4189,-2.4189,-2.4189,-2.4189,-2.4189,-2.4189,-2.4189,-2.4189,-2.4189,-2.4189,-2.4431,-2.4981,-2.5004,-2.5004,-2.4933,-2.4503,-2.4636,-2.5635,-2.5716,-2.6152,-2.7041,-2.719,-2.719,-2.719,-2.719,-2.719,-2.7231,-2.7598,-2.7881,-2.7921,-2.8271,-2.8471,-2.851,-2.851,-2.851,-2.851,-2.851,-2.8803,-2.9588,-3.0367,-3.1304,-3.2245,-3.2931,-3.3276,-3.3276,-3.3276,-3.3276,-3.3326,-3.3396,-3.3619,-3.3848,-3.3965,-3.4054,-3.4054,-3.4157,-3.4176,-3.4196,-3.4332,-3.438,-3.438,-3.438,-3.4414,-3.4721,-3.5121,-3.561,-3.6166,-3.6384,-3.6783,-3.6965,-3.7265,-3.748,-3.7246,-3.7396,-3.7256,-1.2807,-1.2856,-1.3292,-1.4621,-1.6532,-1.7063,-1.8457,-2.0292,-2.0292,-2.0292,-2.0198,-1.9565,-1.9179,-1.9127,-1.8358,-1.8,-1.7991,-1.7991,-1.7991,-1.7991,-1.7991,-1.7991,-1.7991,-1.7991,-1.804,-1.8241,-1.8674,-1.9736,-2.127,-2.1645,-2.2214,-2.2927,-2.3261,-2.3519,-2.3593,-2.3897,-2.4164,-2.42,-2.4189,-2.4189,-2.4189,-2.4189,-2.4189,-2.4189,-2.4189,-2.4189,-2.4189,-2.4189,-2.4189,-2.4189,-2.4189,-2.4431,-2.4945,-2.5004,-2.5004,-2.4933,-2.4514,-2.4636,-2.5532,-2.5716,-2.6152,-2.6995,-2.719,-2.719,-2.719,-2.719,-2.719,-2.719,-2.7638,-2.7881,-2.7921,-2.8271,-2.851,-2.851,-2.851,-2.851,-2.855,-2.8618,-2.8882,-2.9742,-3.0632,-3.1649,-3.3002,-3.3276,-3.3276,-3.3276,-3.3276,-3.3326,-3.3361,-3.3605,-3.3813,-3.3917,-3.4122,-3.438,-3.438,-3.4346,-3.4346,-3.438,-3.4332,-3.4414,-3.438,-3.4414,-3.4433,-3.4687,-3.5204,-3.577,-3.6322,-3.692,-3.7519,-3.7828,-3.7988,-3.8044,-3.756,-3.8068,-3.7755,-1.2807,-1.2861,-1.3298,-1.4663,-1.6492,-1.7055,-1.8419,-2.0246,-2.0292,-2.0292,-2.0206,-1.9752,-1.9401,-1.9136,-1.8631,-1.8263,-1.8008,-1.7991,-1.7991,-1.7991,-1.7991,-1.8241,-1.8603,-1.8241,-1.8505,-1.9125,-1.9073,-1.9736,-2.1021,-2.1568,-2.1921,-2.2176,-2.2365,-2.2703,-2.315,-2.3335,-2.3677,-2.4164,-2.4189,-2.4189,-2.4189,-2.4189,-2.4189,-2.4189,-2.4189,-2.4189,-2.4189,-2.4189,-2.4189,-2.4189,-2.4189,-2.4431,-2.4945,-2.5004,-2.5004,-2.4933,-2.4503,-2.4648,-2.5532,-2.5716,-2.6152,-2.7052,-2.719,-2.719,-2.719,-2.719,-2.719,-2.7272,-2.7638,-2.7881,-2.7962,-2.8231,-2.851,-2.851,-2.851,-2.8697,-2.9145,-2.9289,-2.9768,-3.1007,-3.1942,-3.2717,-3.3016,-3.3276,-3.3276,-3.3276,-3.3276,-3.3361,-3.3466,-3.364,-3.3779,-3.3971,-3.4128,-3.4264,-3.438,-3.438,-3.438,-3.438,-3.4414,-3.4399,-3.4399,-3.4481,-3.4534,-3.5432,-3.585,-3.6415,-3.7101,-3.7578,-3.8148,-3.8177,-3.8391,-3.8213,-3.7792,-3.8047,-3.7421,-1.2807,-1.2861,-1.3298,-1.4663,-1.6485,-1.7055,-1.8465,-2.0192,-2.0292,-2.0292,-2.0215,-1.9862,-1.953,-1.9144,-1.881,-1.8468,-1.817,-1.8059,-1.7991,-1.7991,-1.7991,-1.8241,-1.8563,-1.8434,-1.8745,-1.952,-1.9657,-2.0167,-2.1098,-2.1606,-2.1769,-2.1807,-2.2035,-2.244,-2.2964,-2.3261,-2.3677,-2.4116,-2.4189,-2.4189,-2.4189,-2.4189,-2.4189,-2.4189,-2.4189,-2.4189,-2.4189,-2.4189,-2.4189,-2.4189,-2.4189,-2.4431,-2.4909,-2.5004,-2.5004,-2.4933,-2.4503,-2.4648,-2.5532,-2.5716,-2.6113,-2.7075,-2.719,-2.719,-2.719,-2.719,-2.719,-2.7272,-2.7598,-2.7881,-2.7962,-2.8283,-2.851,-2.851,-2.851,-2.8685,-2.9263,-2.9523,-3.0405,-3.1709,-3.2426,-3.2895,-3.3241,-3.3276,-3.3276,-3.3276,-3.3276,-3.3361,-3.3466,-3.364,-3.3744,-3.4005,-3.4142,-3.4278,-3.438,-3.438,-3.438,-3.438,-3.4414,-3.4399,-3.4553,-3.4635,-3.5037,-3.6009,-3.6783,-3.7356,-3.7828,-3.8278,-3.8391,-3.8391,-3.8391,-3.8278,-3.8015,-3.7876,-3.7395,-1.2807,-1.2856,-1.3346,-1.4711,-1.6445,-1.7203,-1.8511,-2.0102,-2.0292,-2.0292,-2.0249,-1.9924,-1.9598,-1.9196,-1.8888,-1.8631,-1.8545,-1.8256,-1.8094,-1.8051,-1.8042,-1.8106,-1.8273,-1.8714,-1.9033,-1.935,-2.0313,-2.1185,-2.1693,-2.1769,-2.1807,-2.1921,-2.2478,-2.2852,-2.3001,-2.3641,-2.4127,-2.4189,-2.4189,-2.4189,-2.4189,-2.4189,-2.4189,-2.4189,-2.4189,-2.4189,-2.4189,-2.4189,-2.4189,-2.4189,-2.4189,-2.4467,-2.4838,-2.4933,-2.4969,-2.4874,-2.4467,-2.4682,-2.5471,-2.5693,-2.6101,-2.6915,-2.7167,-2.719,-2.719,-2.719,-2.719,-2.7272,-2.7557,-2.7881,-2.7962,-2.8231,-2.8471,-2.851,-2.851,-2.855,-2.8882,-2.9367,-3.0367,-3.1833,-3.2354,-3.2511,-3.3051,-3.3276,-3.3276,-3.3276,-3.3276,-3.3312,-3.3396,-3.364,-3.3862,-3.3951,-3.4108,-3.4278,-3.4346,-3.438,-3.438,-3.4414,-3.4399,-3.4467,-3.4806,-3.4971,-3.5367,-3.6228,-3.7131,-3.7725,-3.8017,-3.8391,-3.8391,-3.8391,-3.8375,-3.8403,-3.8298,-3.8158,-3.7953,-1.2807,-1.2953,-1.4052,-1.5276,-1.6586,-1.7801,-1.9117,-2.0246,-2.0292,-2.0292,-2.0266,-2.0172,-1.9915,-1.9563,-1.9375,-1.9239,-1.899,-1.8862,-1.8674,-1.8459,-1.8425,-1.8719,-1.9149,-1.9082,-1.9469,-2.0333,-2.1136,-2.1617,-2.1769,-2.1807,-2.1807,-2.1921,-2.2327,-2.2703,-2.3001,-2.3519,-2.3897,-2.4164,-2.4189,-2.4189,-2.4189,-2.4189,-2.4189,-2.4189,-2.4189,-2.4189,-2.4189,-2.4189,-2.4189,-2.4189,-2.4189,-2.4298,-2.4442,-2.4431,-2.4431,-2.4431,-2.4298,-2.4441,-2.5073,-2.552,-2.5991,-2.6622,-2.7024,-2.7167,-2.719,-2.719,-2.719,-2.7231,-2.7464,-2.7696,-2.7881,-2.8111,-2.8351,-2.8459,-2.851,-2.8961,-2.9973,-3.1244,-3.2273,-3.2789,-3.2931,-3.3065,-3.3206,-3.3276,-3.3276,-3.3276,-3.3276,-3.3312,-3.3501,-3.3605,-3.3813,-3.4005,-3.4176,-3.4278,-3.4346,-3.438,-3.438,-3.438,-3.4414,-3.4553,-3.4938,-3.54,-3.5834,-3.6538,-3.7415,-3.796,-3.8278,-3.8391,-3.8391,-3.8391,-3.8391,-3.8448,-3.8532,-3.8425,-3.8236,-1.2807,-1.2953,-1.4382,-1.5602,-1.6633,-1.8126,-1.9355,-2.0192,-2.0292,-2.0292,-2.0292,-2.0292,-2.0095,-1.9759,-1.97,-1.9615,-1.9401,-1.9384,-1.9256,-1.9007,-1.8845,-1.9156,-1.9633,-1.9617,-1.9986,-2.0848,-2.153,-2.1807,-2.1807,-2.1807,-2.1807,-2.1883,-2.2365,-2.274,-2.3038,-2.3556,-2.3982,-2.4152,-2.4189,-2.4189,-2.4189,-2.4189,-2.4189,-2.4189,-2.4189,-2.4189,-2.4189,-2.4189,-2.4189,-2.4189,-2.4189,-2.4189,-2.4189,-2.4189,-2.4189,-2.4189,-2.4223,-2.4407,-2.4889,-2.5429,-2.5934,-2.6427,-2.6944,-2.7179,-2.719,-2.719,-2.719,-2.7231,-2.7371,-2.7615,-2.7881,-2.8111,-2.8259,-2.8471,-2.851,-2.9211,-3.072,-3.2028,-3.2895,-3.3122,-3.3276,-3.3276,-3.3276,-3.3276,-3.3276,-3.3276,-3.3276,-3.3312,-3.3501,-3.364,-3.3848,-3.4005,-3.4162,-3.4278,-3.438,-3.438,-3.438,-3.438,-3.4414,-3.4654,-3.499,-3.5625,-3.6181,-3.7101,-3.8017,-3.8119,-3.8391,-3.8391,-3.8391,-3.8391,-3.8391,-3.8448,-3.8532,-3.8616,-3.8504,-1.2807,-1.3001,-1.4472,-1.565,-1.668,-1.8272,-1.9492,-2.0192,-2.0292,-2.0292,-2.0292,-2.0292,-2.0121,-1.9794,-1.9785,-1.9804,-1.9725,-1.9769,-1.9717,-1.9641,-1.9436,-1.9376,-1.9482,-2.0121,-2.0639,-2.1005,-2.1533,-2.1769,-2.1807,-2.1807,-2.1807,-2.1883,-2.2563,-2.3001,-2.315,-2.3787,-2.4152,-2.4189,-2.4189,-2.4189,-2.4189,-2.4189,-2.4189,-2.4189,-2.4189,-2.4189,-2.4189,-2.4189,-2.4189,-2.4189,-2.4189,-2.4189,-2.4189,-2.4189,-2.4189,-2.4189,-2.4189,-2.4407,-2.4855,-2.5291,-2.5819,-2.6341,-2.6795,-2.7167,-2.7167,-2.719,-2.719,-2.7231,-2.7371,-2.7563,-2.7841,-2.803,-2.8219,-2.8471,-2.863,-2.9367,-3.0657,-3.1636,-3.2475,-3.3122,-3.3276,-3.3276,-3.3276,-3.3276,-3.3276,-3.3276,-3.3276,-3.3312,-3.3431,-3.3605,-3.3827,-3.402,-3.4162,-3.4278,-3.438,-3.438,-3.438,-3.438,-3.4414,-3.4601,-3.5023,-3.5706,-3.6461,-3.7445,-3.8234,-3.8335,-3.8391,-3.8391,-3.8391,-3.8391,-3.842,-3.8476,-3.8532,-3.8616,-3.8722,-1.2807,-1.305,-1.5175,-1.6257,-1.6821,-1.8926,-2.0002,-2.0292,-2.0292,-2.0292,-2.0292,-2.0292,-2.024,-2.0146,-2.0138,-2.0146,-2.0129,-2.0129,-2.0146,-2.0138,-2.0061,-1.9957,-2.0074,-2.0724,-2.1192,-2.1303,-2.1637,-2.1769,-2.1807,-2.1807,-2.1807,-2.1845,-2.259,-2.3001,-2.3113,-2.3787,-2.4152,-2.4189,-2.4189,-2.4189,-2.4189,-2.4189,-2.4189,-2.4189,-2.4189,-2.4189,-2.4189,-2.4189,-2.4189,-2.4189,-2.4189,-2.4189,-2.4189,-2.4189,-2.4189,-2.4189,-2.42,-2.4235,-2.4441,-2.4866,-2.5371,-2.5876,-2.6427,-2.6818,-2.7167,-2.719,-2.719,-2.7231,-2.726,-2.7371,-2.7574,-2.7869,-2.8111,-2.8498,-2.8882,-2.9665,-3.0707,-3.1599,-3.2426,-3.3122,-3.3241,-3.3276,-3.3276,-3.3276,-3.3276,-3.3276,-3.3312,-3.3347,-3.3501,-3.3605,-3.3827,-3.3971,-3.4128,-3.4264,-3.4346,-3.438,-3.438,-3.438,-3.4414,-3.4448,-3.4971,-3.561,-3.6461,-3.7401,-3.8119,-3.8363,-3.8391,-3.8391,-3.8391,-3.8391,-3.8391,-3.8448,-3.8532,-3.8616,-3.8766,-1.2619,-1.2864,-1.5401,-1.6492,-1.6821,-1.9217,-2.0292,-2.0292,-2.0292,-2.0292,-2.0292,-2.0292,-2.0292,-2.0292,-2.0283,-2.0292,-2.0292,-2.0292,-2.0283,-2.0382,-2.0628,-2.0598,-2.0704,-2.1454,-2.1816,-2.1501,-2.1861,-2.1966,-2.1838,-2.1807,-2.1807,-2.1949,-2.259,-2.3001,-2.3038,-2.3787,-2.4189,-2.4189,-2.4189,-2.4189,-2.4189,-2.4189,-2.4189,-2.4189,-2.4189,-2.4189,-2.4189,-2.4189,-2.4189,-2.4189,-2.4189,-2.4189,-2.4189,-2.4189,-2.4189,-2.4189,-2.4189,-2.42,-2.4281,-2.4636,-2.5027,-2.5451,-2.6014,-2.6542,-2.6875,-2.7082,-2.719,-2.719,-2.719,-2.7301,-2.7522,-2.7829,-2.8111,-2.8379,-2.8882,-2.9549,-3.0329,-3.1415,-3.2209,-3.2717,-3.3086,-3.3276,-3.3276,-3.3276,-3.3276,-3.3276,-3.3276,-3.3431,-3.3536,-3.364,-3.3779,-3.3991,-3.4162,-3.4312,-3.4346,-3.438,-3.438,-3.438,-3.4534,-3.4534,-3.5037,-3.5642,-3.643,-3.7266,-3.7931,-3.8391,-3.8391,-3.8391,-3.8391,-3.8391,-3.8391,-3.8476,-3.8588,-3.8655,-3.8794,-1.2367,-1.2625,-1.5295,-1.6445,-1.6868,-1.9109,-2.0246,-2.0292,-2.0292,-2.0292,-2.0292,-2.0292,-2.0292,-2.0292,-2.0292,-2.0292,-2.0292,-2.0292,-2.0382,-2.0645,-2.1105,-2.1405,-2.1479,-2.219,-2.2271,-2.1889,-2.2278,-2.2224,-2.2004,-2.188,-2.1807,-2.1987,-2.259,-2.2964,-2.315,-2.3787,-2.4152,-2.4189,-2.4189,-2.4189,-2.4189,-2.4189,-2.4189,-2.4189,-2.4189,-2.4189,-2.4189,-2.4189,-2.4189,-2.4189,-2.4189,-2.4189,-2.4189,-2.4189,-2.4189,-2.4189,-2.4189,-2.4189,-2.4246,-2.4568,-2.4855,-2.5096,-2.5853,-2.6455,-2.6616,-2.6932,-2.719,-2.719,-2.719,-2.7301,-2.7482,-2.7898,-2.8099,-2.8207,-2.8419,-2.8831,-2.9665,-3.0994,-3.2001,-3.216,-3.281,-3.3206,-3.3276,-3.3276,-3.3276,-3.3276,-3.3312,-3.3396,-3.357,-3.3724,-3.3882,-3.4025,-3.4196,-3.438,-3.438,-3.438,-3.438,-3.4414,-3.4654,-3.4839,-3.5252,-3.5834,-3.6492,-3.7177,-3.7799,-3.8205,-3.8391,-3.8391,-3.8391,-3.8391,-3.842,-3.856,-3.8711,-3.8722,-3.8832,-1.2367,-1.262,-1.4971,-1.617,-1.6821,-1.8796,-1.9965,-2.0292,-2.0292,-2.0292,-2.0292,-2.0292,-2.0292,-2.0292,-2.0292,-2.0292,-2.0292,-2.0337,-2.06,-2.1266,-2.1872,-2.2482,-2.2693,-2.2909,-2.2698,-2.2539,-2.2471,-2.242,-2.2294,-2.2004,-2.1807,-2.1921,-2.2553,-2.3001,-2.3113,-2.3787,-2.4189,-2.4189,-2.4189,-2.4189,-2.4189,-2.4189,-2.4189,-2.4189,-2.4189,-2.4189,-2.4189,-2.4189,-2.4189,-2.4189,-2.4189,-2.4189,-2.4189,-2.4189,-2.4189,-2.4189,-2.4189,-2.4189,-2.4223,-2.4326,-2.4522,-2.49,-2.5451,-2.6037,-2.6513,-2.6898,-2.7133,-2.719,-2.719,-2.7301,-2.7441,-2.7603,-2.7846,-2.8059,-2.8259,-2.8419,-2.891,-3.019,-3.1291,-3.2001,-3.2725,-3.3276,-3.3276,-3.3276,-3.3276,-3.3276,-3.3347,-3.3396,-3.357,-3.3758,-3.3882,-3.404,-3.4196,-3.4312,-3.4346,-3.4414,-3.4501,-3.4587,-3.4839,-3.5172,-3.5578,-3.6055,-3.6707,-3.7207,-3.7666,-3.8017,-3.8363,-3.8391,-3.8391,-3.842,-3.8448,-3.856,-3.8672,-3.8738,-3.8832,-1.2259,-1.2745,-1.4769,-1.6104,-1.7053,-1.8778,-1.9874,-2.0238,-2.0292,-2.0292,-2.0292,-2.0292,-2.0292,-2.0292,-2.0292,-2.0292,-2.0292,-2.0283,-2.069,-2.1311,-2.1837,-2.2501,-2.3343,-2.3299,-2.3153,-2.3283,-2.3258,-2.2977,-2.2542,-2.2252,-2.2035,-2.1856,-2.259,-2.2964,-2.3113,-2.3787,-2.4152,-2.4189,-2.4189,-2.4189,-2.4189,-2.4189,-2.4189,-2.4189,-2.4189,-2.4189,-2.4189,-2.4189,-2.4189,-2.4189,-2.4189,-2.4189,-2.4189,-2.4189,-2.4189,-2.4189,-2.4189,-2.4189,-2.4189,-2.4212,-2.4315,-2.4568,-2.505,-2.5555,-2.6071,-2.6577,-2.6978,-2.7121,-2.719,-2.726,-2.733,-2.7482,-2.7644,-2.7805,-2.8087,-2.8259,-2.8566,-2.9537,-3.0632,-3.1452,-3.216,-3.2824,-3.3086,-3.3241,-3.3276,-3.3276,-3.3276,-3.3347,-3.3536,-3.3724,-3.3827,-3.3951,-3.4142,-3.423,-3.4278,-3.4399,-3.462,-3.4839,-3.5139,-3.5514,-3.5961,-3.643,-3.692,-3.7326,-3.774,-3.8075,-3.8391,-3.8391,-3.8391,-3.8391,-3.8464,-3.852,-3.8604,-3.8672,-3.8805,-1.2048,-1.2736,-1.4482,-1.5892,-1.7116,-1.8656,-1.9674,-2.0161,-2.0275,-2.0292,-2.0292,-2.0292,-2.0292,-2.0292,-2.0292,-2.0292,-2.0292,-2.0329,-2.069,-2.1356,-2.1436,-2.229,-2.3222,-2.3467,-2.3639,-2.3918,-2.3815,-2.3401,-2.2811,-2.2501,-2.219,-2.1994,-2.258,-2.2953,-2.3187,-2.3677,-2.4127,-2.42,-2.408,-2.4116,-2.4189,-2.4189,-2.4189,-2.4189,-2.4189,-2.4189,-2.4189,-2.4189,-2.4189,-2.4189,-2.4189,-2.4189,-2.4189,-2.4189,-2.4189,-2.4189,-2.4189,-2.4189,-2.4189,-2.4189,-2.4212,-2.4212,-2.4659,-2.5096,-2.5578,-2.6152,-2.6645,-2.6967,-2.7128,-2.719,-2.7231,-2.733,-2.7441,-2.7603,-2.7926,-2.8139,-2.8367,-2.9094,-3.0075,-3.0932,-3.2015,-3.2895,-3.3136,-3.3276,-3.3276,-3.3276,-3.3276,-3.3312,-3.3501,-3.3605,-3.3709,-3.3813,-3.3971,-3.4128,-3.4162,-3.4366,-3.4601,-3.5154,-3.5449,-3.5946,-3.643,-3.7057,-3.749,-3.749,-3.7815,-3.8177,-3.8391,-3.8391,-3.8391,-3.8391,-3.8448,-3.8548,-3.8604,-3.8616,-3.8766,-1.1787,-1.1987,-1.3705,-1.4952,-1.6061,-1.7776,-1.9019,-1.98,-2.0121,-2.0292,-2.0275,-2.0283,-2.0257,-2.0292,-2.0292,-2.0292,-2.0292,-2.0329,-2.069,-2.1266,-2.1401,-2.2078,-2.3135,-2.3353,-2.3737,-2.4183,-2.4105,-2.3619,-2.3111,-2.2687,-2.2346,-2.2123,-2.259,-2.3001,-2.3075,-2.3482,-2.3897,-2.4007,-2.3934,-2.3934,-2.408,-2.4189,-2.4189,-2.4189,-2.4189,-2.4189,-2.4189,-2.4189,-2.4189,-2.4189,-2.4189,-2.4152,-2.408,-2.408,-2.408,-2.4189,-2.4189,-2.4189,-2.4189,-2.4152,-2.4189,-2.4303,-2.4517,-2.4829,-2.5207,-2.5853,-2.6386,-2.6668,-2.6978,-2.7167,-2.719,-2.726,-2.733,-2.7534,-2.7777,-2.803,-2.8327,-2.916,-3.0037,-3.0857,-3.2028,-3.3051,-3.3206,-3.3276,-3.3276,-3.3276,-3.3276,-3.3276,-3.3361,-3.3501,-3.3605,-3.3709,-3.3813,-3.3971,-3.4094,-3.4332,-3.4635,-3.5367,-3.585,-3.6508,-3.7057,-3.7786,-3.8091,-3.7947,-3.7976,-3.8278,-3.8391,-3.8391,-3.8391,-3.8391,-3.8476,-3.856,-3.8588,-3.8616,-3.8794,-1.1734,-1.2188,-1.3497,-1.4665,-1.5805,-1.7339,-1.843,-1.9069,-1.9545,-1.9829,-1.9958,-2.0009,-2.0121,-2.024,-2.0292,-2.0292,-2.0292,-2.0292,-2.0736,-2.1221,-2.1141,-2.1579,-2.2809,-2.295,-2.3353,-2.3833,-2.4036,-2.3971,-2.3536,-2.3091,-2.2594,-2.2394,-2.274,-2.2879,-2.2953,-2.3519,-2.3677,-2.374,-2.3787,-2.3861,-2.3934,-2.4043,-2.4189,-2.42,-2.4152,-2.4189,-2.4189,-2.4189,-2.4189,-2.4116,-2.3776,-2.3629,-2.3482,-2.3287,-2.335,-2.397,-2.4152,-2.4189,-2.408,-2.3897,-2.3714,-2.415,-2.411,-2.4288,-2.4773,-2.5383,-2.595,-2.6432,-2.6639,-2.6955,-2.7185,-2.7179,-2.7301,-2.7493,-2.7748,-2.795,-2.8447,-2.951,-3.0253,-3.0882,-3.1796,-3.2668,-3.3241,-3.3276,-3.3276,-3.3276,-3.3276,-3.3276,-3.3276,-3.3361,-3.3466,-3.357,-3.3675,-3.3951,-3.4074,-3.4264,-3.4687,-3.5449,-3.6103,-3.6768,-3.746,-3.8062,-3.8221,-3.8119,-3.8278,-3.8391,-3.8391,-3.8391,-3.8391,-3.8391,-3.842,-3.8476,-3.8532,-3.8628,-3.8777,-1.165,-1.2258,-1.333,-1.4372,-1.544,-1.7036,-1.797,-1.8409,-1.899,-1.9367,-1.9554,-1.9597,-1.9787,-2.0018,-2.0138,-2.0206,-2.0275,-2.0292,-2.0645,-2.0862,-2.069,-2.1087,-2.2094,-2.2482,-2.2931,-2.3927,-2.4198,-2.4312,-2.3815,-2.336,-2.2936,-2.2595,-2.2767,-2.2804,-2.2804,-2.3372,-2.3446,-2.3629,-2.3677,-2.3897,-2.3861,-2.3861,-2.397,-2.3897,-2.3813,-2.3618,-2.3508,-2.3508,-2.3666,-2.3593,-2.325,-2.2841,-2.2841,-2.222,-2.2408,-2.3482,-2.3813,-2.3922,-2.3776,-2.3482,-2.3335,-2.3762,-2.3335,-2.3705,-2.4239,-2.477,-2.5337,-2.6134,-2.6513,-2.6622,-2.6955,-2.711,-2.7249,-2.7412,-2.7667,-2.8042,-2.8486,-2.9316,-3.0329,-3.0994,-3.1673,-3.2354,-3.3086,-3.3276,-3.3276,-3.3276,-3.3276,-3.3276,-3.3276,-3.3276,-3.3396,-3.3431,-3.3605,-3.3896,-3.4088,-3.4162,-3.4739,-3.5546,-3.6134,-3.6738,-3.746,-3.8221,-3.825,-3.8278,-3.8307,-3.8391,-3.8391,-3.8391,-3.8391,-3.8391,-3.8391,-3.842,-3.8476,-3.856,-3.8711,-1.1348,-1.1564,-1.2918,-1.3734,-1.4487,-1.6434,-1.7598,-1.8053,-1.8761,-1.9187,-1.9239,-1.9239,-1.9281,-1.9444,-1.9683,-1.9992,-2.0189,-2.0292,-2.0382,-2.051,-2.0419,-2.0997,-2.2183,-2.2394,-2.3115,-2.397,-2.4368,-2.4239,-2.3939,-2.3484,-2.3029,-2.2712,-2.2632,-2.2612,-2.2912,-2.3246,-2.3446,-2.3849,-2.3787,-2.3751,-2.3813,-2.3409,-2.3187,-2.299,-2.2644,-2.2295,-2.236,-2.2408,-2.2569,-2.299,-2.2381,-2.2306,-2.2692,-2.2231,-2.1907,-2.2258,-2.2644,-2.3139,-2.3102,-2.2841,-2.2841,-2.3038,-2.2879,-2.3071,-2.3534,-2.4262,-2.4971,-2.5704,-2.6117,-2.649,-2.6657,-2.6967,-2.7139,-2.7383,-2.7626,-2.7841,-2.8231,-2.9081,-3.0101,-3.0994,-3.1636,-3.2403,-3.3171,-3.3241,-3.3276,-3.3276,-3.3276,-3.3276,-3.3276,-3.3276,-3.3361,-3.3431,-3.357,-3.3896,-3.4088,-3.421,-3.4706,-3.5546,-3.6134,-3.6677,-3.7401,-3.8062,-3.8335,-3.8363,-3.8391,-3.8391,-3.8391,-3.8391,-3.8391,-3.8391,-3.8391,-3.8391,-3.8391,-3.8504,-3.8672,-1.1311,-1.1435,-1.2796,-1.347,-1.3942,-1.6016,-1.7036,-1.7358,-1.8112,-1.8648,-1.8861,-1.8845,-1.8998,-1.9196,-1.9573,-1.9768,-2.0001,-2.018,-2.0292,-2.0292,-2.0374,-2.0862,-2.1695,-2.2271,-2.3028,-2.3787,-2.4272,-2.4445,-2.4126,-2.3815,-2.3443,-2.3275,-2.2966,-2.2866,-2.3096,-2.3244,-2.3368,-2.3372,-2.3139,-2.2879,-2.2756,-2.2521,-2.2306,-2.2306,-2.1956,-2.1756,-2.1718,-2.1794,-2.1918,-2.2155,-2.1527,-2.1193,-2.1308,-2.0885,-2.0382,-2.0459,-2.1116,-2.1766,-2.2155,-2.1852,-2.1966,-2.208,-2.2031,-2.1966,-2.2772,-2.3486,-2.4307,-2.5184,-2.544,-2.5819,-2.6352,-2.6645,-2.7002,-2.7285,-2.7539,-2.7788,-2.8139,-2.8976,-2.9871,-3.0732,-3.1599,-3.2295,-3.2945,-3.3241,-3.3276,-3.3276,-3.3276,-3.3276,-3.3276,-3.3276,-3.3396,-3.3515,-3.3689,-3.3882,-3.4074,-3.423,-3.4639,-3.5367,-3.6072,-3.6646,-3.7312,-3.7815,-3.8221,-3.8391,-3.8391,-3.8391,-3.8391,-3.8391,-3.8391,-3.8391,-3.8391,-3.8408,-3.8464,-3.86,-3.8794,-1.1311,-1.1435,-1.2625,-1.3222,-1.3603,-1.5602,-1.6566,-1.682,-1.7652,-1.8203,-1.8382,-1.8468,-1.8665,-1.8999,-1.9299,-1.946,-1.9725,-2.0035,-2.0206,-2.0257,-2.0374,-2.0727,-2.1481,-2.2104,-2.2765,-2.3493,-2.4239,-2.4423,-2.4383,-2.4209,-2.3981,-2.3898,-2.3269,-2.3221,-2.3313,-2.3482,-2.3583,-2.3482,-2.2964,-2.258,-2.2258,-2.1718,-2.1538,-2.1423,-2.1298,-2.1183,-2.1183,-2.1106,-2.1106,-2.1308,-2.0682,-2.0343,-2.0498,-2.004,-1.9569,-1.9608,-2.0118,-2.0498,-2.0847,-2.0885,-2.0924,-2.1039,-2.1193,-2.1385,-2.2729,-2.3049,-2.3423,-2.4654,-2.4958,-2.5394,-2.5899,-2.6272,-2.6725,-2.7059,-2.7377,-2.7678,-2.8007,-2.8648,-2.933,-3.0126,-3.0994,-3.1942,-3.2561,-3.3086,-3.3276,-3.3276,-3.3276,-3.3276,-3.3276,-3.3276,-3.3361,-3.3466,-3.3605,-3.3779,-3.3985,-3.4264,-3.4673,-3.5187,-3.5897,-3.6461,-3.7027,-3.7727,-3.8307,-3.8391,-3.8391,-3.8391,-3.8391,-3.8391,-3.8391,-3.8391,-3.8408,-3.8464,-3.8532,-3.8683,-3.886,-1.1311,-1.1348,-1.2155,-1.2833,-1.3519,-1.5081,-1.6124,-1.6771,-1.7627,-1.8017,-1.8076,-1.8076,-1.8323,-1.8588,-1.8793,-1.9144,-1.9683,-1.9725,-2.0009,-2.0206,-2.0382,-2.0736,-2.1401,-2.2104,-2.2765,-2.3493,-2.4153,-2.4454,-2.4497,-2.4435,-2.4198,-2.3888,-2.3483,-2.3528,-2.3633,-2.3787,-2.3718,-2.3538,-2.3034,-2.258,-2.208,-2.1385,-2.0615,-2.0421,-1.9952,-1.949,-1.9529,-1.9726,-1.9991,-2.0537,-1.9952,-1.9805,-2.004,-1.9648,-1.9332,-1.9371,-1.9411,-1.9726,-1.9835,-2.0187,-2.0459,-2.0537,-2.0615,-2.1039,-2.2569,-2.2916,-2.3427,-2.4155,-2.4576,-2.4877,-2.5348,-2.5784,-2.6375,-2.6771,-2.7157,-2.7487,-2.7725,-2.8007,-2.8688,-2.9485,-3.043,-3.1539,-3.2475,-3.3051,-3.3276,-3.3276,-3.3276,-3.3276,-3.3276,-3.3276,-3.3276,-3.3396,-3.3536,-3.3675,-3.3896,-3.4176,-3.4419,-3.4957,-3.5642,-3.6118,-3.6554,-3.7326,-3.8363,-3.8391,-3.8391,-3.8391,-3.8391,-3.8391,-3.8391,-3.8391,-3.8408,-3.8464,-3.8532,-3.8683,-3.8849,-1.1311,-1.1311,-1.1602,-1.2369,-1.3519,-1.5047,-1.609,-1.6771,-1.7627,-1.7991,-1.7991,-1.8,-1.8068,-1.828,-1.8537,-1.8862,-1.9384,-1.9623,-1.9949,-2.018,-2.0382,-2.0736,-2.1401,-2.2104,-2.2809,-2.3493,-2.4153,-2.4507,-2.4507,-2.4507,-2.4135,-2.3796,-2.3597,-2.3866,-2.4051,-2.4017,-2.3788,-2.3123,-2.2541,-2.1928,-2.0644,-2.0265,-1.9766,-1.9687,-1.9569,-1.9292,-1.9332,-1.9292,-1.949,-1.9608,-1.946,-1.9608,-1.9766,-1.945,-1.9332,-1.9292,-1.9292,-1.9292,-1.9292,-1.9608,-1.9766,-1.9766,-1.9883,-2.0498,-2.2069,-2.2268,-2.3016,-2.3745,-2.4361,-2.4579,-2.5004,-2.5566,-2.6094,-2.6513,-2.6898,-2.7267,-2.7563,-2.7805,-2.8474,-2.942,-3.0329,-3.1355,-3.2259,-3.3136,-3.3241,-3.3276,-3.3276,-3.3276,-3.3276,-3.3276,-3.3276,-3.3347,-3.3501,-3.357,-3.3744,-3.3937,-3.4113,-3.4725,-3.5417,-3.5929,-3.6415,-3.7549,-3.8363,-3.8363,-3.8391,-3.8391,-3.8391,-3.8391,-3.8391,-3.8391,-3.842,-3.8448,-3.856,-3.8672,-3.8821,-1.1311,-1.1311,-1.1311,-1.1989,-1.3258,-1.4747,-1.5752,-1.6509,-1.7546,-1.7991,-1.7991,-1.7991,-1.7991,-1.8094,-1.8417,-1.8802,-1.9222,-1.9529,-1.9941,-2.0163,-2.0382,-2.0736,-2.1401,-2.2104,-2.2809,-2.3493,-2.4153,-2.4507,-2.4507,-2.4507,-2.4122,-2.3806,-2.3868,-2.4095,-2.4044,-2.4378,-2.3965,-2.3026,-2.2203,-2.1395,-2.0112,-1.9545,-1.9341,-1.9332,-1.9292,-1.9292,-1.9292,-1.9292,-1.9292,-1.9371,-1.9292,-1.9292,-1.9292,-1.9292,-1.9292,-1.9292,-1.9292,-1.9292,-1.9292,-1.9292,-1.9301,-1.942,-1.9371,-2.0109,-2.1001,-2.1652,-2.2521,-2.3556,-2.3993,-2.4349,-2.4774,-2.5314,-2.5796,-2.6186,-2.6887,-2.7301,-2.7534,-2.7765,-2.8593,-2.9394,-3.038,-3.1392,-3.2005,-3.2838,-3.3241,-3.3276,-3.3276,-3.3276,-3.3276,-3.3276,-3.3276,-3.3347,-3.3466,-3.3536,-3.364,-3.3833,-3.4025,-3.4351,-3.5041,-3.5819,-3.6538,-3.7608,-3.8307,-3.8391,-3.8391,-3.8391,-3.8391,-3.8391,-3.8391,-3.8391,-3.842,-3.842,-3.8532,-3.8672,-3.8794,-1.1311,-1.1311,-1.1311,-1.1731,-1.2571,-1.407,-1.5157,-1.5992,-1.7367,-1.7991,-1.7991,-1.7991,-1.7991,-1.8117,-1.8425,-1.8802,-1.9187,-1.952,-1.9896,-2.0215,-2.0464,-2.0826,-2.1436,-2.2148,-2.295,-2.3537,-2.411,-2.4507,-2.4507,-2.4411,-2.4013,-2.3754,-2.3836,-2.4149,-2.3717,-2.4554,-2.4535,-2.3665,-2.2785,-2.1789,-2.0737,-1.9792,-1.9451,-1.9292,-1.9292,-1.9292,-1.9292,-1.9292,-1.9292,-1.9292,-1.9292,-1.9292,-1.9292,-1.9292,-1.9292,-1.9292,-1.9292,-1.9292,-1.9292,-1.9292,-1.9292,-1.9292,-1.9292,-1.9805,-2.0537,-2.126,-2.2107,-2.3139,-2.3677,-2.4091,-2.4542,-2.5084,-2.5555,-2.6037,-2.6697,-2.7231,-2.7464,-2.7615,-2.8315,-2.9316,-3.0532,-3.1539,-3.1969,-3.2503,-3.31,-3.3276,-3.3276,-3.3276,-3.3276,-3.3276,-3.3276,-3.3312,-3.3431,-3.3466,-3.3536,-3.3744,-3.3971,-3.423,-3.4824,-3.5691,-3.6446,-3.7326,-3.7902,-3.825,-3.8391,-3.8391,-3.8391,-3.8391,-3.8391,-3.8391,-3.8391,-3.842,-3.8532,-3.8616,-3.8738,-1.1311,-1.1311,-1.1311,-1.1435,-1.194,-1.3824,-1.5074,-1.5902,-1.7237,-1.7991,-1.7991,-1.7991,-1.7991,-1.8111,-1.8442,-1.8861,-1.923,-1.9529,-1.9896,-2.0294,-2.0682,-2.1087,-2.1668,-2.2457,-2.3178,-2.3624,-2.4153,-2.4507,-2.4507,-2.4315,-2.3711,-2.3373,-2.3604,-2.4112,-2.4417,-2.4743,-2.4185,-2.3361,-2.2442,-2.1434,-2.0423,-1.99,-1.9586,-1.9347,-1.9329,-1.932,-1.9301,-1.9292,-1.9292,-1.9292,-1.9292,-1.9292,-1.9292,-1.9292,-1.9292,-1.9292,-1.9292,-1.9292,-1.9292,-1.9292,-1.9292,-1.9292,-1.9332,-1.9648,-2.0421,-2.0692,-2.1614,-2.2569,-2.3113,-2.3604,-2.4226,-2.5127,-2.5643,-2.5934,-2.6456,-2.7007,-2.7301,-2.7423,-2.7886,-2.916,-3.0405,-3.1686,-3.2417,-3.2646,-3.3136,-3.3276,-3.3276,-3.3276,-3.3276,-3.3276,-3.3276,-3.3276,-3.3361,-3.3361,-3.348,-3.3605,-3.3758,-3.3951,-3.481,-3.5867,-3.6584,-3.7131,-3.777,-3.8307,-3.8363,-3.8391,-3.8391,-3.8391,-3.8391,-3.8391,-3.8391,-3.8391,-3.8448,-3.8532,-3.8572,-1.1311,-1.1311,-1.1311,-1.1311,-1.1688,-1.374,-1.5323,-1.6535,-1.757,-1.7991,-1.7991,-1.7991,-1.7991,-1.8177,-1.8554,-1.8913,-1.9273,-1.9727,-1.9939,-2.0329,-2.0736,-2.1266,-2.1926,-2.2677,-2.3299,-2.3754,-2.4153,-2.4411,-2.411,-2.4057,-2.3754,-2.3396,-2.3193,-2.3594,-2.4149,-2.4303,-2.4326,-2.35,-2.2559,-2.1569,-2.0745,-2.0159,-1.9893,-1.9668,-1.9531,-1.9476,-1.9347,-1.9292,-1.9292,-1.9301,-1.9292,-1.9292,-1.9292,-1.9292,-1.9292,-1.9292,-1.9292,-1.9292,-1.9292,-1.9292,-1.9292,-1.9292,-1.9292,-1.9529,-2.007,-2.0343,-2.0962,-2.1766,-2.2381,-2.3185,-2.3966,-2.4916,-2.5556,-2.5796,-2.6491,-2.7064,-2.7272,-2.7383,-2.7736,-2.9042,-3.0329,-3.1613,-3.2789,-3.3016,-3.3276,-3.3276,-3.3276,-3.3276,-3.3276,-3.3276,-3.3276,-3.3276,-3.3276,-3.3326,-3.3361,-3.3445,-3.3585,-3.3689,-3.4558,-3.558,-3.6337,-3.6814,-3.7608,-3.8278,-3.8335,-3.8391,-3.8391,-3.8391,-3.8391,-3.8391,-3.8391,-3.8391,-3.8391,-3.842,-3.8488,-1.1311,-1.1311,-1.1311,-1.1305,-1.1725,-1.3782,-1.591,-1.7821,-1.7959,-1.7991,-1.7991,-1.7991,-1.7991,-1.8153,-1.8811,-1.9179,-1.9359,-1.9924,-2.018,-2.0411,-2.0736,-2.1436,-2.2094,-2.2668,-2.3517,-2.4143,-2.4454,-2.4196,-2.3677,-2.3634,-2.3667,-2.3657,-2.328,-2.3497,-2.3953,-2.4361,-2.4342,-2.343,-2.2566,-2.1679,-2.0979,-2.0668,-2.0296,-2.0031,-1.9884,-1.9732,-1.9558,-1.9412,-1.9356,-1.932,-1.9292,-1.9292,-1.9292,-1.9292,-1.9292,-1.9292,-1.9292,-1.9292,-1.9292,-1.9292,-1.9292,-1.9292,-1.9292,-1.9341,-1.9539,-1.9962,-2.0498,-2.1029,-2.1662,-2.2641,-2.3585,-2.4465,-2.5318,-2.5995,-2.68,-2.7116,-2.729,-2.7545,-2.7898,-2.8885,-3.0203,-3.1452,-3.2704,-3.3171,-3.3171,-3.3276,-3.3276,-3.3276,-3.3276,-3.3276,-3.3276,-3.3276,-3.3276,-3.3276,-3.3326,-3.3361,-3.3431,-3.357,-3.3991,-3.4894,-3.5659,-3.6538,-3.7296,-3.7886,-3.825,-3.8391,-3.8391,-3.8391,-3.8391,-3.8391,-3.8391,-3.8391,-3.8391,-3.8391,-3.8432,-1.1311,-1.1311,-1.1311,-1.1397,-1.1909,-1.3957,-1.5745,-1.7033,-1.77,-1.7991,-1.7991,-1.7991,-1.8008,-1.8068,-1.8836,-1.911,-1.9513,-1.9891,-2.018,-2.051,-2.0997,-2.1828,-2.258,-2.3202,-2.4003,-2.4325,-2.4368,-2.4067,-2.3416,-2.3285,-2.3178,-2.3193,-2.341,-2.3681,-2.394,-2.4466,-2.3724,-2.3042,-2.2296,-2.1733,-2.1296,-2.1016,-2.0653,-2.0424,-2.0314,-2.0118,-1.9852,-1.9674,-1.9604,-1.9375,-1.9311,-1.9292,-1.9292,-1.9292,-1.9292,-1.9292,-1.9292,-1.9292,-1.9292,-1.9292,-1.9292,-1.9292,-1.9292,-1.9292,-1.9371,-1.9569,-1.9962,-2.0459,-2.1091,-2.209,-2.3341,-2.4364,-2.5346,-2.6302,-2.6938,-2.7151,-2.7272,-2.7383,-2.7777,-2.8609,-2.9935,-3.1119,-3.2367,-3.2931,-3.2966,-3.3171,-3.3276,-3.3276,-3.3276,-3.3276,-3.3276,-3.3276,-3.3276,-3.3276,-3.3276,-3.3326,-3.3361,-3.3486,-3.3957,-3.4471,-3.5272,-3.615,-3.6951,-3.7608,-3.8148,-3.8335,-3.8391,-3.8391,-3.8391,-3.8391,-3.8391,-3.8391,-3.8391,-3.8391,-3.842,-1.1311,-1.1311,-1.1311,-1.1483,-1.216,-1.4006,-1.5413,-1.6288,-1.7448,-1.7991,-1.7991,-1.7991,-1.8076,-1.8357,-1.8896,-1.9307,-1.9478,-1.9975,-2.0292,-2.0555,-2.1257,-2.1784,-2.257,-2.3246,-2.3647,-2.397,-2.4024,-2.3667,-2.2925,-2.2362,-2.2176,-2.2818,-2.3377,-2.3377,-2.329,-2.3115,-2.2862,-2.2344,-2.1854,-2.1566,-2.1447,-2.1328,-2.1099,-2.0842,-2.0759,-2.053,-2.0159,-2.004,-1.9756,-1.9531,-1.9457,-1.9292,-1.9292,-1.9292,-1.9292,-1.9292,-1.9292,-1.9292,-1.9292,-1.9292,-1.9292,-1.9292,-1.9292,-1.9292,-1.9292,-1.9411,-1.9648,-1.9971,-2.0703,-2.1617,-2.3032,-2.441,-2.5525,-2.6657,-2.6897,-2.7167,-2.719,-2.719,-2.7725,-2.845,-2.9512,-3.067,-3.1613,-3.2209,-3.2739,-3.2966,-3.3171,-3.3276,-3.3276,-3.3276,-3.3276,-3.3276,-3.3276,-3.3276,-3.3276,-3.3312,-3.3396,-3.3591,-3.4025,-3.4558,-3.5157,-3.604,-3.7011,-3.7653,-3.8148,-3.8307,-3.8391,-3.8391,-3.8391,-3.8391,-3.8391,-3.8391,-3.8391,-3.8391,-3.842,-1.1311,-1.1311,-1.1348,-1.1607,-1.2252,-1.3957,-1.5047,-1.5602,-1.7294,-1.7991,-1.7991,-1.7991,-1.8228,-1.8537,-1.8982,-1.9376,-1.9667,-2.0086,-2.0292,-2.0337,-2.0736,-2.1347,-2.2006,-2.2448,-2.3028,-2.3353,-2.3406,-2.3081,-2.2113,-2.1687,-2.1874,-2.2353,-2.2299,-2.2422,-2.2545,-2.2501,-2.2334,-2.1954,-2.1776,-2.1632,-2.165,-2.1614,-2.1522,-2.1236,-2.1117,-2.0979,-2.0594,-2.0241,-1.9957,-1.982,-1.9641,-1.9412,-1.9301,-1.9292,-1.9292,-1.9292,-1.9292,-1.9292,-1.9292,-1.9292,-1.9292,-1.9292,-1.9292,-1.9292,-1.9292,-1.9292,-1.945,-1.9801,-2.0555,-2.1779,-2.3173,-2.46,-2.5829,-2.6639,-2.7075,-2.719,-2.719,-2.7272,-2.7615,-2.8303,-2.9108,-3.0253,-3.1156,-3.1833,-3.2561,-3.2739,-3.3051,-3.3241,-3.3276,-3.3276,-3.3276,-3.3276,-3.3276,-3.3276,-3.3276,-3.3347,-3.3466,-3.373,-3.4113,-3.4606,-3.5204,-3.615,-3.7207,-3.7711,-3.8177,-3.8307,-3.8391,-3.8391,-3.8391,-3.8391,-3.8391,-3.8391,-3.8391,-3.8391,-3.8391,-1.1311,-1.1311,-1.1527,-1.1742,-1.2252,-1.4084,-1.5095,-1.556,-1.7253,-1.7991,-1.7991,-1.8025,-1.8222,-1.8656,-1.9007,-1.9393,-1.9751,-2.0121,-2.0257,-2.0464,-2.0736,-2.1087,-2.1704,-2.2138,-2.2448,-2.258,-2.2633,-2.2467,-2.1989,-2.1741,-2.1909,-2.2765,-2.258,-2.2448,-2.2457,-2.2501,-2.2246,-2.1731,-2.1687,-2.1687,-2.1687,-2.1687,-2.1604,-2.1522,-2.1476,-2.1293,-2.1,-2.0869,-2.0613,-2.0393,-1.9998,-1.9659,-1.9338,-1.9311,-1.9292,-1.9292,-1.9292,-1.9292,-1.9292,-1.9292,-1.9292,-1.9292,-1.9292,-1.9292,-1.9292,-1.9292,-1.9497,-1.9867,-2.0679,-2.199,-2.3343,-2.4777,-2.6008,-2.6619,-2.719,-2.719,-2.719,-2.7383,-2.7574,-2.8155,-2.8806,-2.9679,-3.0632,-3.1502,-3.2187,-3.2717,-3.3086,-3.3276,-3.3276,-3.3276,-3.3276,-3.3276,-3.3276,-3.3276,-3.3276,-3.3347,-3.3486,-3.377,-3.4167,-3.4691,-3.5252,-3.6228,-3.7208,-3.774,-3.8132,-3.8262,-3.8363,-3.8391,-3.8391,-3.8391,-3.8391,-3.8391,-3.8391,-3.8391,-3.8391,-1.1311,-1.1348,-1.157,-1.1828,-1.2332,-1.4174,-1.513,-1.5684,-1.7253,-1.7991,-1.7991,-1.8034,-1.8282,-1.8768,-1.9085,-1.9513,-1.9915,-2.018,-2.0275,-2.0464,-2.069,-2.1042,-2.1436,-2.1739,-2.1828,-2.1961,-2.1837,-2.1758,-2.183,-2.1785,-2.1989,-2.2457,-2.2492,-2.2536,-2.2501,-2.2457,-2.229,-2.1741,-2.1687,-2.1687,-2.1687,-2.1687,-2.1687,-2.1687,-2.1641,-2.1504,-2.1394,-2.1255,-2.0989,-2.0732,-2.0402,-1.9966,-1.9683,-1.9622,-1.9485,-1.9356,-1.9292,-1.9292,-1.9292,-1.9292,-1.9292,-1.9292,-1.9292,-1.9292,-1.9292,-1.9332,-1.9638,-2.0095,-2.1028,-2.2291,-2.3752,-2.5191,-2.6143,-2.6853,-2.7097,-2.719,-2.719,-2.7272,-2.7383,-2.7574,-2.8355,-2.9225,-3.0253,-3.1355,-3.2042,-3.2417,-3.2824,-3.3276,-3.3276,-3.3276,-3.3276,-3.3276,-3.3276,-3.3276,-3.3276,-3.3382,-3.3507,-3.3859,-3.4206,-3.5121,-3.5847,-3.6476,-3.7134,-3.7653,-3.803,-3.8205,-3.8262,-3.8363,-3.8391,-3.8391,-3.8391,-3.8391,-3.8391,-3.8391,-3.8391,-1.1311,-1.1354,-1.1618,-1.1828,-1.2289,-1.4161,-1.513,-1.5684,-1.7253,-1.7991,-1.8017,-1.8059,-1.8554,-1.8973,-1.9213,-1.9727,-2.0095,-2.024,-2.0283,-2.0292,-2.0337,-2.069,-2.0961,-2.1221,-2.1266,-2.1311,-2.132,-2.1463,-2.1651,-2.1651,-2.1696,-2.1687,-2.1687,-2.1731,-2.1687,-2.1731,-2.1687,-2.1696,-2.1687,-2.1687,-2.1687,-2.1687,-2.1687,-2.1687,-2.1687,-2.1687,-2.1559,-2.1412,-2.1209,-2.1034,-2.0763,-2.0369,-2.0031,-1.9857,-1.9687,-1.9531,-1.9329,-1.9311,-1.9292,-1.9292,-1.9292,-1.9292,-1.9292,-1.9301,-1.9311,-1.9534,-1.985,-2.0769,-2.1676,-2.2768,-2.4207,-2.5477,-2.6393,-2.6962,-2.7097,-2.719,-2.719,-2.719,-2.7231,-2.7272,-2.8007,-2.8885,-2.9845,-3.0983,-3.17,-3.2114,-3.2561,-3.298,-3.3276,-3.3276,-3.3276,-3.3276,-3.3276,-3.3276,-3.3276,-3.3382,-3.3472,-3.3894,-3.4375,-3.5447,-3.6383,-3.68,-3.7178,-3.7594,-3.7915,-3.8148,-3.8278,-3.8363,-3.8391,-3.8391,-3.8391,-3.8391,-3.8391,-3.8391,-3.8391,-1.1311,-1.1305,-1.1607,-1.1828,-1.2295,-1.4126,-1.513,-1.5677,-1.7204,-1.7991,-1.8094,-1.8391,-1.8759,-1.9179,-1.9179,-1.959,-2.0198,-2.0292,-2.0292,-2.0292,-2.0292,-2.0428,-2.0564,-2.0736,-2.0699,-2.088,-2.115,-2.1392,-2.1562,-2.1651,-2.1687,-2.1687,-2.1687,-2.1687,-2.1687,-2.1687,-2.1687,-2.1687,-2.1687,-2.1687,-2.1687,-2.1687,-2.1687,-2.1687,-2.1687,-2.1687,-2.165,-2.1623,-2.1577,-2.1493,-2.1174,-2.0781,-2.0451,-2.0168,-1.9948,-1.9774,-1.9604,-1.9494,-1.9494,-1.943,-1.943,-1.9393,-1.9402,-1.9393,-1.9485,-1.9705,-2.0446,-2.1878,-2.2816,-2.3634,-2.4938,-2.6154,-2.7097,-2.7097,-2.719,-2.719,-2.719,-2.719,-2.719,-2.7423,-2.7857,-2.8581,-2.9277,-3.0342,-3.1331,-3.1773,-3.2381,-3.2789,-3.3171,-3.3241,-3.3241,-3.3276,-3.3276,-3.3276,-3.3276,-3.3312,-3.3472,-3.3894,-3.4442,-3.5382,-3.6196,-3.6876,-3.7282,-3.7476,-3.7902,-3.8205,-3.8335,-3.8335,-3.8391,-3.8391,-3.8391,-3.8391,-3.8391,-3.8391,-3.8391]}]]